GEFSSGP_con_probscp_006.txt.gz
Probability
0 0 0 0 0 0 0 0 0 0 0 0 0 0 0 0 0 0 0 0 0 0 0 0 0 0 0 0 0 0 0 0 0 0 0 0 0 0 0 0 0 0 0 0 0 0 0 0 0
0 0 0 0 0 0 0 0 0 0 0 0 0 0 0 0 0 0 0 0 0 0 0 0 0 0 0 0 0 0 0 0 0 0 0 0 0 0 0 0 0 0 0 0 0 0 0 0 0
0 0 0 0 0 0 0 0 0 0 0 0 0 0 0 0 0 0 0 0 0 0 0 0 1 1 1 1 1 0 0 0 0 0 0 0 0 0 0 0 0 0 0 0 0 0 0 0 0
0 0 0 0 0 0 0 0 0 1 0 0 0 0 0 0 0 0 0 0 0 0 0 2 4 3 2 2 2 1 1 0 0 0 0 0 0 0 0 0 0 0 0 0 0 0 0 0 0
0 0 0 0 0 0 0 0 1 2 1 0 0 0 0 0 0 0 0 0 0 0 1 3 6 6 5 5 3 2 1 0 0 0 0 0 0 0 0 0 0 0 0 0 0 0 0 0 0
0 0 0 0 0 0 0 0 1 2 1 0 0 0 0 0 0 0 0 0 0 0 1 5 10 16 21 20 14 10 7 7 6 4 1 0 0 0 0 0 0 0 0 0 0 0 0 0 0
0 0 0 0 0 0 0 0 0 0 0 0 0 0 0 0 0 0 0 2 4 8 12 14 18 31 44 47 41 36 34 32 26 14 5 1 0 0 0 0 0 0 0 0 0 0 0 0 0
0 0 0 0 0 0 0 0 0 0 0 0 0 0 0 1 3 6 13 22 29 35 39 39 36 41 53 58 59 63 66 64 49 25 7 1 0 0 0 0 0 0 0 0 0 0 0 0 0
0 0 0 0 0 0 0 0 0 0 0 0 0 0 2 9 19 29 44 61 69 70 68 62 52 45 47 49 54 64 72 71 52 25 7 2 0 0 0 0 0 0 0 0 0 0 0 2 3
0 0 0 0 0 0 0 0 0 0 0 0 1 3 9 24 45 60 75 88 93 89 78 63 53 50 45 41 44 53 58 54 37 17 6 3 1 0 0 0 0 0 0 0 0 0 2 6 10
0 0 0 0 0 0 0 0 0 0 0 2 7 16 28 46 66 81 89 94 96 92 74 51 45 48 42 34 38 46 43 32 19 9 5 4 2 1 0 0 0 0 0 0 0 1 4 9 12
0 0 0 0 0 0 0 0 0 0 1 8 23 40 54 66 78 86 89 91 93 90 69 43 32 30 25 21 26 32 26 15 7 3 3 4 2 1 0 0 0 1 0 0 1 1 3 5 6
0 0 0 0 0 0 0 0 0 1 8 26 46 60 68 76 81 83 82 81 80 78 63 38 19 12 10 14 24 31 24 12 4 2 4 8 5 1 0 0 0 0 0 0 0 0 0 0 1
0 0 0 0 0 0 0 0 0 5 24 51 65 65 63 68 75 76 73 65 56 54 49 35 20 16 19 29 43 52 45 30 16 6 6 12 8 2 0 0 0 0 0 0 0 0 0 0 0
0 0 0 0 0 0 0 0 0 11 41 69 73 60 49 50 58 60 55 44 36 34 33 29 27 32 41 50 58 61 57 45 26 9 5 8 6 1 0 0 0 0 0 0 0 0 0 0 0
0 0 0 0 0 0 0 0 2 20 53 76 71 50 33 30 34 36 32 26 25 25 23 23 26 34 44 46 42 41 41 34 19 7 3 3 2 0 0 0 0 0 0 0 0 0 0 0 0
0 0 0 0 0 0 0 0 5 25 54 67 57 35 19 14 16 18 18 17 17 17 19 19 19 21 24 23 17 15 15 12 6 3 3 3 1 0 0 0 0 0 0 0 0 0 0 0 0
0 0 0 0 0 0 0 0 5 19 35 39 29 17 8 5 5 7 9 10 10 11 14 15 13 9 7 6 4 2 2 2 1 1 3 3 1 0 0 0 0 0 0 0 0 0 0 0 0
0 0 0 0 0 0 0 1 3 8 13 13 9 6 3 1 1 2 3 4 6 8 10 10 7 4 2 1 1 0 0 0 0 0 1 1 1 0 0 0 0 0 0 0 0 0 0 0 0
0 0 0 0 0 0 0 2 4 4 4 4 3 2 1 0 0 0 0 1 4 6 7 6 4 2 1 0 0 0 0 0 0 0 0 0 0 0 0 0 0 0 0 0 0 0 0 0 0
0 0 0 0 0 0 0 4 8 6 3 2 2 1 0 0 0 0 0 0 2 4 3 2 1 1 0 0 0 0 0 0 0 0 0 0 0 0 0 0 0 0 0 0 0 0 0 0 0
0 0 0 0 0 0 0 3 7 5 2 1 1 0 0 0 0 0 0 0 0 1 0 0 0 0 0 0 0 0 0 0 0 0 0 0 0 0 0 0 0 0 0 0 0 0 0 0 0
0 0 0 0 0 0 0 1 2 2 1 0 0 0 0 0 0 0 0 0 0 0 0 0 0 0 0 0 0 0 0 0 1 1 0 0 0 0 0 0 0 0 0 0 0 0 0 0 0
0 0 0 0 0 0 0 0 0 0 0 0 0 0 0 0 0 0 0 0 0 0 0 0 0 0 0 0 0 0 0 0 1 1 0 0 0 0 0 0 0 0 0 0 0 0 0 0 0
0 0 0 0 0 0 0 0 0 0 0 0 0 0 0 0 0 0 0 0 0 0 0 0 0 0 0 0 0 0 0 0 1 1 0 0 0 0 0 0 0 0 0 0 0 0 0 0 0
0 0 0 0 0 0 0 0 0 0 0 0 0 0 0 0 0 0 0 0 0 0 0 0 0 0 0 0 0 0 0 0 0 0 0 0 0 0 0 0 0 0 0 0 0 0 0 0 0
0 0 0 0 0 0 0 0 0 0 0 0 0 0 0 0 0 0 0 0 0 0 0 0 0 0 0 0 0 0 0 0 0 0 0 0 0 0 0 0 0 0 0 0 0 0 0 0 0
0 0 0 0 0 0 0 0 0 0 0 0 0 0 0 0 0 0 0 0 0 0 0 0 0 0 0 0 0 0 0 0 0 0 0 0 0 0 0 0 0 0 0 0 0 0 0 0 0
0 0 0 0 0 0 0 0 0 0 0 0 0 0 0 0 0 0 0 0 0 0 0 0 0 0 0 0 0 0 0 0 0 0 0 0 0 0 0 0 0 0 0 0 0 0 0 0 0
0 0 0 0 0 0 0 0 0 0 0 0 0 0 0 0 0 0 0 0 0 0 0 0 0 0 0 0 0 0 0 0 0 0 0 0 0 0 0 0 0 0 0 0 0 0 0 0 0

GEFSSGP_con_probscp_012.txt.gz
Probability
0 0 0 0 0 0 0 0 0 0 0 0 0 0 0 0 0 0 0 0 0 0 1 4 10 12 8 3 0 0 0 0 0 0 0 0 0 0 0 0 0 0 0 0 0 0 0 0 0
0 0 0 0 0 0 0 0 0 0 0 0 0 0 0 0 0 0 0 0 0 1 3 8 17 20 13 5 1 0 0 0 0 0 0 0 0 0 0 0 0 0 0 0 0 0 0 0 0
0 0 0 0 0 0 0 0 0 0 0 0 0 0 0 0 0 0 0 0 1 3 5 17 32 31 18 7 2 1 0 0 0 0 0 0 0 0 0 0 0 0 0 0 0 0 0 0 0
0 0 0 0 0 0 0 0 0 0 0 0 0 0 0 0 0 0 0 0 3 6 7 23 45 41 21 9 3 2 1 1 1 1 1 0 0 0 0 0 0 0 0 0 0 0 0 0 0
0 0 0 0 0 0 0 0 0 0 0 0 0 0 0 0 0 0 0 1 5 9 9 25 51 49 25 11 6 5 5 4 3 2 2 1 0 0 0 0 0 0 0 0 0 0 0 0 0
0 0 0 0 0 0 0 0 0 0 0 0 0 0 0 0 0 0 0 1 8 16 13 22 44 46 29 15 10 10 12 11 10 9 6 2 1 0 0 0 0 0 0 0 0 0 0 0 0
0 0 0 0 0 0 0 0 0 0 0 0 0 0 0 0 0 0 2 9 22 30 28 29 35 36 28 20 17 21 26 27 29 28 21 11 3 0 0 0 0 0 0 0 0 0 0 0 0
0 0 0 0 0 0 0 0 0 0 0 0 0 0 0 1 4 8 16 30 45 53 53 52 49 43 36 29 27 33 39 44 50 52 45 28 12 2 0 0 0 0 0 0 0 0 0 0 0
0 0 0 0 0 0 0 0 0 0 0 0 0 0 2 7 18 32 45 57 66 70 71 72 69 62 55 48 41 45 52 56 64 71 66 49 28 10 2 0 0 0 0 0 0 0 0 0 0
0 0 0 0 0 0 0 0 0 0 0 0 0 3 13 29 45 61 71 74 73 72 70 68 67 65 64 60 57 59 65 70 79 85 79 66 47 25 11 5 3 1 1 1 2 2 1 1 1
0 0 0 0 0 0 0 0 0 0 0 0 2 12 36 60 72 78 79 74 68 63 56 52 50 53 57 61 65 69 73 79 86 87 82 75 62 42 27 18 12 8 7 6 7 6 4 2 3
0 0 0 0 0 0 0 0 0 1 5 10 16 32 58 77 80 77 71 63 57 51 43 39 38 42 47 55 62 68 75 80 79 76 77 77 67 49 36 30 25 19 14 9 9 8 5 2 2
0 0 0 0 0 0 0 1 1 4 17 33 47 58 68 72 68 62 57 52 47 41 37 34 34 35 37 42 49 58 67 74 70 62 64 65 55 38 28 28 25 18 11 7 5 6 5 3 2
0 0 0 0 0 0 2 4 5 9 26 52 69 73 68 60 55 51 49 45 39 37 36 34 31 29 25 26 31 38 48 55 53 46 43 41 33 20 14 14 11 7 3 2 2 2 3 3 2
0 0 0 0 0 0 3 7 8 11 25 46 61 63 57 51 46 43 42 39 33 30 31 30 25 21 18 17 18 20 26 32 34 31 27 22 15 9 7 4 2 0 0 0 0 1 1 1 1
0 0 0 0 0 0 2 5 6 7 15 25 33 36 36 34 29 27 29 29 23 19 19 20 19 16 12 11 10 8 11 17 21 23 22 15 9 6 4 2 0 0 0 0 0 0 0 0 0
0 0 0 0 0 0 1 1 2 3 5 8 10 12 14 13 11 11 13 13 11 10 10 12 12 9 6 4 3 2 4 10 15 17 16 11 7 5 3 1 0 0 0 0 0 0 0 0 0
0 0 0 0 0 0 0 0 0 1 1 1 1 2 2 2 2 4 4 3 3 4 5 5 5 4 2 1 0 0 2 5 9 9 7 5 4 4 3 2 1 0 0 0 0 0 0 0 0
0 0 0 0 0 0 0 0 0 0 0 0 0 0 0 0 1 3 3 1 0 1 1 1 1 1 0 0 0 0 1 2 3 2 1 1 1 2 3 2 1 0 0 0 0 0 0 0 0
0 0 0 0 0 0 0 0 0 0 0 0 0 0 0 0 0 1 1 0 0 0 0 0 0 0 0 0 0 0 0 1 1 0 0 0 0 2 2 1 1 0 0 0 0 0 0 0 0
0 0 0 0 0 0 0 0 0 0 0 0 0 0 0 0 0 0 0 0 0 0 0 0 0 0 0 0 0 0 0 0 0 0 0 0 0 1 2 1 0 0 0 0 0 0 0 0 0
0 0 0 0 0 0 0 0 0 0 0 0 0 0 0 0 0 0 0 0 0 0 0 0 0 0 0 0 0 0 0 0 0 0 0 0 0 1 1 0 0 0 0 0 0 0 0 0 0
0 0 0 0 0 0 0 0 0 0 0 0 0 0 0 0 0 0 0 0 0 0 0 0 0 0 0 0 0 0 0 0 0 0 0 0 0 0 0 0 0 0 0 0 0 0 0 0 0
0 0 0 0 0 0 0 0 0 0 0 0 0 0 0 0 0 0 0 0 0 0 0 0 0 0 0 0 0 0 0 0 0 0 0 0 0 0 0 0 0 0 0 0 0 0 0 0 0
0 0 0 0 0 0 0 0 0 0 0 0 0 0 0 0 0 0 0 0 0 0 0 0 0 0 0 0 0 0 0 0 0 0 0 0 0 0 0 0 0 0 0 0 0 0 0 0 0
0 0 0 0 0 0 0 0 0 0 0 0 0 0 0 0 0 0 0 0 0 0 0 0 0 0 0 0 0 0 0 0 0 0 0 0 0 0 0 0 0 0 0 0 0 0 0 0 0
0 0 0 0 0 0 0 0 0 0 0 0 0 0 0 0 0 0 0 0 0 0 0 0 0 0 0 0 0 0 0 0 0 0 0 0 0 0 0 0 0 0 0 0 0 0 0 0 0
0 0 0 0 0 0 0 0 0 0 0 0 0 0 0 0 0 0 0 0 0 0 0 0 0 0 0 0 0 0 0 0 0 0 0 0 0 0 0 0 0 0 0 0 0 0 0 0 0
0 0 0 0 0 0 0 0 0 0 0 0 0 0 0 0 0 0 0 0 0 0 0 0 0 0 0 0 0 0 0 0 0 0 0 0 0 0 0 0 0 0 0 0 0 0 0 0 0
0 0 0 0 0 0 0 0 0 0 0 0 0 0 0 0 0 0 0 0 0 0 0 0 0 0 0 0 0 0 0 0 0 0 0 0 0 0 0 0 0 0 0 0 0 0 0 0 0

GEFSSGP_con_probscp_018.txt.gz
Probability
0 0 0 0 0 0 0 0 0 0 0 0 0 0 0 0 0 0 0 0 0 1 2 1 0 0 0 0 0 0 0 0 0 0 0 0 0 0 0 0 0 0 0 0 0 0 0 0 0
0 0 0 0 0 0 0 0 0 0 0 0 0 0 0 0 0 0 0 0 0 0 1 0 0 0 0 0 0 0 0 0 0 0 0 0 0 0 0 0 0 0 0 0 0 0 0 0 0
0 0 0 0 0 0 0 0 0 0 0 0 0 0 0 0 0 0 0 0 0 0 0 0 0 0 0 0 0 0 0 0 0 0 0 0 0 0 0 0 0 0 0 0 0 0 0 0 0
0 0 0 0 0 0 0 0 0 0 0 0 0 0 0 0 0 0 0 0 0 0 0 0 0 0 0 0 0 0 0 0 0 0 0 0 0 0 0 0 0 0 0 0 0 0 0 0 0
0 0 0 0 0 0 0 0 0 0 0 0 0 0 0 0 0 0 0 0 0 0 0 1 2 2 2 1 0 0 0 0 0 0 0 0 0 0 0 0 0 0 0 0 0 0 0 0 0
0 0 0 0 0 0 0 0 0 0 0 0 0 0 0 0 0 0 1 1 1 1 2 6 8 10 11 9 6 3 1 0 0 0 0 0 0 0 0 1 1 2 2 1 0 0 0 0 0
0 0 0 0 0 0 0 0 0 0 0 0 0 0 1 5 9 12 14 15 12 7 9 15 20 25 31 31 28 23 18 13 9 6 4 3 2 1 2 4 5 5 5 3 1 0 0 0 0
0 0 0 0 0 0 0 0 0 0 0 0 0 0 7 20 33 40 44 44 39 29 26 30 36 46 54 58 62 61 55 48 41 33 27 19 9 4 5 12 18 18 12 6 3 1 1 1 1
0 0 0 0 0 0 0 0 0 0 0 1 2 3 14 36 52 59 65 68 64 53 43 41 50 63 71 76 85 89 88 85 80 73 67 52 29 17 18 32 51 46 27 14 8 7 7 5 5
0 0 0 0 0 0 0 0 0 0 1 4 6 6 14 30 45 52 58 62 60 49 38 35 44 58 68 76 86 92 96 98 97 95 92 82 64 51 49 66 82 72 47 30 25 24 19 17 19
0 0 0 0 0 0 0 0 0 1 4 9 11 7 7 15 28 36 39 38 34 26 19 19 27 40 53 65 74 81 87 91 94 95 96 96 92 86 84 89 93 84 69 59 56 52 44 41 46
0 0 0 0 0 0 0 0 2 5 11 17 19 16 13 18 29 34 31 25 21 17 14 15 21 31 44 54 61 67 71 76 82 87 92 97 98 98 96 95 93 88 82 81 81 78 70 66 66
0 0 0 0 0 0 0 0 2 8 19 31 40 41 40 42 46 45 40 35 32 30 26 23 23 29 40 47 50 53 58 60 63 69 77 83 87 88 89 90 87 80 78 84 85 80 75 69 65
0 0 0 0 0 0 0 0 2 8 21 38 54 61 61 58 55 51 48 45 42 38 32 24 21 28 35 39 41 43 45 46 44 50 57 61 63 67 73 78 75 67 66 72 69 61 55 50 46
0 0 0 0 0 0 0 0 1 4 13 27 41 51 53 47 40 39 39 37 34 32 27 22 22 28 32 32 31 31 32 32 33 37 41 40 41 46 56 63 61 57 57 57 50 42 36 29 23
0 0 0 0 0 0 0 0 0 1 5 11 18 25 27 24 21 22 24 25 26 27 26 24 23 26 28 25 21 20 22 23 24 26 27 26 26 33 44 52 51 49 46 41 36 32 27 18 10
0 0 0 0 0 0 0 0 0 0 1 3 5 7 9 10 11 13 16 20 24 25 24 21 19 19 19 16 13 12 13 14 14 14 15 17 19 25 38 47 45 38 33 28 27 27 23 15 9
0 0 0 0 0 0 0 0 0 0 0 1 1 1 2 4 7 9 11 15 17 15 13 11 10 10 10 9 8 8 8 9 10 10 12 15 18 25 37 41 34 25 20 18 18 18 16 10 7
0 0 0 0 0 0 0 0 0 0 0 0 0 0 0 1 3 5 6 7 7 5 3 3 4 5 6 5 6 7 8 8 10 12 12 15 20 29 36 32 23 17 12 10 9 8 7 5 4
0 0 0 0 0 0 0 0 0 0 0 0 0 0 0 0 0 1 2 2 2 1 0 1 3 4 3 3 3 4 5 6 7 9 11 12 18 27 32 30 23 15 9 6 5 2 1 2 3
0 0 0 0 0 0 0 0 0 0 0 0 0 0 0 0 0 0 0 0 0 0 0 0 1 1 1 1 1 1 1 1 3 5 6 7 11 18 28 34 35 30 22 14 7 2 1 1 2
0 0 0 0 0 0 0 0 0 0 0 0 0 0 0 0 0 0 0 0 0 0 0 0 0 0 0 0 0 0 0 0 1 1 2 3 5 9 17 30 46 53 49 37 23 11 5 1 1
0 0 0 0 0 0 0 0 0 0 0 0 0 0 0 0 0 0 0 0 0 0 0 0 0 0 0 0 0 0 0 0 0 0 0 1 1 2 6 16 34 51 60 60 50 36 22 10 5
0 0 0 0 0 0 0 0 0 0 0 0 0 0 0 0 0 0 0 0 0 0 0 0 0 0 0 0 0 0 0 0 0 0 0 0 0 0 1 5 12 25 41 54 60 57 47 32 22
0 0 0 0 0 0 0 0 0 0 0 0 0 0 0 0 0 0 0 0 0 0 0 0 0 0 0 0 0 0 0 0 0 0 0 0 0 0 0 0 2 6 15 28 42 53 57 52 46
0 0 0 0 0 0 0 1 0 0 0 0 0 0 0 0 0 0 0 0 0 0 0 0 0 0 0 0 0 0 0 0 0 0 0 0 0 0 0 0 0 0 2 9 21 34 46 54 58
0 0 0 0 0 0 1 2 2 0 0 0 0 0 0 0 0 0 0 0 0 0 0 0 0 0 0 0 0 0 0 0 0 0 0 0 0 0 0 0 0 0 0 2 8 17 27 38 46
0 0 0 0 0 0 0 2 2 1 0 0 0 0 0 0 0 0 0 0 0 0 0 0 0 0 0 0 0 0 0 0 0 0 0 0 0 0 0 0 0 0 0 0 2 5 11 18 23
0 0 0 0 0 0 0 0 1 0 0 0 0 0 0 0 0 0 0 0 0 0 0 0 0 0 0 0 0 0 0 0 0 0 0 0 0 0 0 0 0 0 0 0 0 0 2 5 7
0 0 0 0 0 0 0 0 0 0 0 0 0 0 0 0 0 0 0 0 0 0 0 0 0 0 0 0 0 0 0 0 0 0 0 0 0 0 0 0 0 0 0 0 0 0 0 1 1

GEFSSGP_con_probscp_024.txt.gz
Probability
0 0 0 0 1 1 1 0 0 0 0 0 0 0 0 0 0 0 7 29 45 28 6 0 0 0 0 0 0 0 0 0 0 0 0 0 1 0 0 0 0 0 0 0 0 0 0 0 0
0 0 0 0 0 0 0 0 0 0 0 0 0 0 0 0 0 0 6 25 34 20 4 1 0 0 0 0 0 0 0 0 0 1 1 1 2 1 0 0 0 0 0 0 0 0 0 0 0
0 0 0 0 0 0 0 0 0 0 0 0 0 0 0 0 0 0 6 24 33 23 10 5 2 1 0 0 0 0 0 0 0 2 3 3 3 1 0 0 0 0 0 0 0 0 0 0 0
0 0 0 0 0 0 0 0 0 0 0 0 1 1 0 0 0 0 10 33 48 43 30 18 11 8 4 2 1 1 1 2 1 2 3 4 3 1 0 0 0 0 0 0 0 0 0 0 0
0 0 0 0 0 0 0 0 0 0 0 0 3 4 2 0 0 1 13 35 53 61 54 37 25 19 11 6 4 4 4 5 4 4 4 4 3 2 1 1 1 1 2 3 3 2 2 2 1
0 0 0 0 0 0 0 0 0 0 0 0 4 7 4 0 0 2 10 22 44 70 71 50 34 24 16 12 9 8 8 9 8 8 7 5 3 2 2 3 4 7 11 15 13 9 8 7 5
0 0 0 0 0 0 0 0 0 1 3 4 8 12 9 3 0 1 4 12 37 69 72 47 30 26 20 16 14 13 14 15 13 13 11 5 2 2 4 8 14 22 32 36 30 21 15 13 12
0 0 0 0 0 0 0 0 0 3 8 15 23 29 25 11 1 0 2 9 31 56 57 39 36 38 31 27 29 29 28 27 24 22 17 11 6 7 12 20 30 42 53 55 46 34 24 20 18
0 0 0 0 0 0 0 0 0 5 16 26 37 48 41 19 6 5 7 11 22 36 41 44 56 57 45 47 57 56 51 47 44 41 39 32 20 16 23 34 48 58 63 63 55 45 37 31 26
0 0 0 0 0 0 0 0 1 9 24 36 43 47 41 27 19 20 23 22 25 32 44 60 73 71 60 63 76 76 71 72 70 69 71 64 45 31 33 51 67 71 68 66 62 56 52 46 40
0 0 0 0 0 0 0 1 5 18 36 48 50 46 41 40 44 49 52 51 51 54 63 72 79 80 74 72 77 79 81 87 89 89 91 87 73 54 47 59 75 79 75 70 65 63 59 50 43
0 0 0 0 0 0 0 3 14 32 49 61 66 64 61 64 72 79 82 82 82 81 78 77 79 82 81 75 71 72 78 85 91 94 96 95 89 74 59 58 66 70 68 61 57 56 49 39 33
0 0 0 0 0 0 1 6 21 37 53 68 79 84 84 86 91 95 97 97 96 92 84 75 74 76 77 71 64 63 68 72 80 87 91 93 92 82 68 59 54 52 47 40 38 35 29 25 24
0 0 0 0 0 0 3 9 20 31 47 66 82 90 93 94 95 96 95 95 94 91 82 71 66 66 67 64 58 55 57 61 68 75 79 83 85 82 74 62 50 39 30 23 19 15 14 15 17
0 0 0 0 0 1 4 8 13 19 33 51 66 78 86 89 88 85 81 80 81 81 77 69 62 62 62 58 52 46 47 53 60 65 66 68 72 75 73 65 51 37 26 17 9 6 7 8 8
0 0 0 0 0 0 3 6 8 11 21 31 38 50 63 69 69 65 61 60 63 70 73 69 62 61 60 52 42 37 39 46 54 60 62 60 60 64 69 67 56 41 29 18 8 5 5 4 2
0 0 0 0 0 1 4 7 8 11 18 19 17 21 32 39 39 40 40 40 45 54 63 62 56 52 46 36 31 31 35 41 50 60 67 66 60 61 67 69 62 48 35 22 9 4 4 2 0
0 0 0 0 0 2 8 11 9 12 18 18 13 12 16 18 17 19 21 22 24 29 37 41 40 36 29 21 20 25 28 31 41 56 65 65 61 62 67 71 67 57 44 28 11 4 4 2 0
0 0 0 0 0 2 8 12 9 7 12 16 15 14 13 12 9 7 8 8 7 8 13 18 22 23 22 17 14 15 17 19 26 39 44 42 41 46 55 64 69 64 51 34 17 8 5 2 1
0 0 0 1 0 1 5 9 7 3 5 10 13 12 10 8 4 2 1 1 2 2 4 9 14 21 25 21 12 10 12 11 13 19 21 18 17 22 32 47 61 66 57 40 24 15 9 2 0
0 0 0 0 0 1 2 5 5 3 2 3 6 8 6 3 1 0 0 0 1 2 4 11 21 27 29 22 12 9 8 6 6 10 12 9 6 7 13 26 42 57 62 51 35 26 17 7 2
0 0 0 0 0 1 1 3 6 6 3 3 3 3 2 1 0 0 0 0 0 1 5 16 25 29 25 17 10 6 3 2 3 6 8 8 4 3 4 10 20 37 53 56 49 40 31 19 9
0 0 0 0 0 0 0 2 5 7 10 13 11 5 2 0 0 0 0 0 0 0 4 11 16 16 13 8 5 2 1 0 1 2 4 5 3 1 1 2 6 15 28 42 48 49 45 34 22
0 0 0 0 0 0 0 1 3 8 18 26 22 11 4 1 0 0 0 0 0 0 1 3 4 4 3 2 1 0 0 0 0 0 0 1 1 0 0 0 1 3 9 18 28 39 44 42 35
0 0 0 0 0 0 0 1 5 10 17 21 18 10 5 1 0 0 0 0 0 0 0 0 1 1 0 0 0 0 0 0 0 0 0 0 0 0 0 0 0 1 2 4 9 18 27 35 39
0 0 0 0 0 0 3 6 8 7 8 7 5 4 2 0 0 0 0 0 0 0 0 0 0 0 0 0 0 0 0 0 0 0 0 0 0 0 0 0 0 0 1 1 2 5 10 20 28
0 0 0 0 0 0 4 9 6 2 1 0 0 0 0 0 0 0 0 0 0 0 0 0 0 0 0 0 0 0 0 0 0 0 0 0 0 0 0 0 0 0 0 1 1 2 3 7 11
0 0 0 0 0 0 3 4 3 0 0 0 0 0 0 0 0 0 0 0 0 0 0 0 0 0 0 0 0 0 0 0 0 0 0 0 0 0 0 0 0 0 1 3 3 2 2 3 3
0 0 0 0 0 0 0 0 0 0 0 0 0 0 0 0 0 0 0 0 0 0 0 0 0 0 0 0 0 0 0 0 0 0 0 0 0 0 0 0 0 0 0 2 3 1 1 1 2
0 0 0 0 0 0 0 0 0 0 0 0 0 0 0 0 0 0 0 0 0 0 0 0 0 0 0 0 0 0 0 0 0 0 0 0 0 0 0 0 0 0 0 1 1 1 0 1 2

GEFSSGP_con_probscp_030.txt.gz
Probability
0 0 0 0 0 0 0 0 0 0 0 0 0 0 0 0 0 0 0 0 1 3 2 2 2 1 1 2 4 5 4 1 0 0 0 0 0 0 0 0 0 0 0 0 0 0 0 0 0
0 0 0 0 0 0 0 0 0 1 1 1 0 0 0 0 0 0 0 0 1 2 2 3 4 4 4 6 9 11 9 4 1 0 0 0 0 0 0 0 0 0 0 0 0 0 0 0 0
0 0 0 0 0 0 0 0 1 3 3 2 1 0 0 0 1 1 0 0 0 0 1 4 8 9 10 12 16 19 16 9 3 1 0 0 0 0 0 0 0 0 0 0 0 0 0 0 0
0 0 0 0 0 0 0 1 4 7 7 4 2 1 0 1 2 3 2 1 0 0 1 5 12 15 13 15 20 23 20 13 7 3 1 1 1 1 0 0 0 0 0 0 0 0 0 0 0
0 0 0 0 0 0 0 2 9 14 11 7 4 2 1 3 5 6 4 1 0 0 0 4 12 15 12 13 18 22 19 15 11 6 3 3 3 2 1 1 0 0 0 0 0 0 0 0 0
0 0 0 0 0 0 0 3 13 22 19 12 8 4 4 6 8 9 7 3 1 0 0 3 7 9 9 10 13 16 15 13 10 7 5 4 3 2 2 2 1 0 0 1 1 2 2 0 0
0 0 0 0 0 0 1 5 17 27 27 19 11 7 8 10 14 18 15 8 2 0 0 1 2 3 5 7 8 9 10 10 9 7 5 4 3 2 1 2 1 1 1 3 5 6 5 3 2
0 0 0 0 0 0 3 11 23 33 35 27 18 15 17 22 31 37 32 20 10 3 1 1 0 0 1 3 4 5 7 9 8 6 3 3 3 2 1 2 2 3 4 7 10 11 10 8 7
0 0 0 0 0 1 5 15 30 43 47 42 34 32 36 44 55 61 55 41 25 12 6 3 2 1 0 0 1 3 6 9 9 6 4 4 5 5 4 4 4 6 11 15 16 16 16 16 16
0 0 0 0 0 2 9 20 38 55 61 57 52 52 58 66 75 79 74 61 44 29 19 14 9 5 2 1 1 2 6 10 12 11 9 9 13 13 12 10 7 9 17 23 25 25 25 26 27
0 0 0 0 1 5 16 34 55 69 73 69 66 67 73 81 86 86 82 72 60 49 40 33 26 18 12 8 6 7 11 16 20 21 21 24 26 25 21 15 9 11 17 25 30 31 31 30 29
0 0 0 0 2 10 26 51 72 80 80 80 78 78 83 88 89 89 85 77 69 63 56 50 43 32 24 20 19 17 19 23 28 31 33 38 39 31 23 17 11 11 14 18 23 24 24 22 20
0 0 0 1 5 16 35 60 76 79 80 82 84 85 87 88 87 86 83 76 71 67 62 56 48 37 29 29 31 29 28 30 32 32 32 37 37 28 20 14 10 10 10 11 12 11 9 9 9
0 0 0 1 7 19 38 58 69 70 71 75 77 80 81 80 79 78 74 67 61 57 52 46 39 32 29 31 33 34 35 32 28 24 22 24 23 18 13 9 7 6 7 7 6 4 2 2 2
0 0 0 1 5 13 29 46 52 52 55 59 61 63 63 61 59 57 53 46 39 34 30 27 23 22 22 23 26 30 30 24 18 14 14 15 14 11 8 5 4 3 3 3 3 2 2 1 1
0 0 0 0 2 7 18 31 33 31 33 36 38 39 38 36 32 29 27 23 18 15 12 11 10 10 9 10 15 18 17 13 9 7 8 12 12 8 5 4 2 1 0 1 1 1 1 1 0
0 0 0 0 1 4 11 19 20 17 15 16 17 18 17 14 11 9 8 8 7 5 5 5 5 3 2 2 5 7 6 5 4 3 4 8 9 7 3 2 1 0 0 0 0 0 0 0 0
0 0 0 0 0 2 6 11 12 10 7 6 7 7 5 3 2 1 1 1 1 1 2 2 2 1 0 0 0 1 1 1 1 1 2 4 6 5 2 0 0 0 0 0 0 0 0 0 0
0 0 0 0 0 1 3 6 8 7 4 4 4 3 1 0 0 0 0 0 0 0 0 0 0 0 0 0 0 0 0 0 0 0 0 1 3 3 1 0 0 0 0 0 0 0 0 0 0
0 0 0 0 1 2 4 6 6 4 3 3 2 1 0 0 0 0 0 0 0 0 0 0 0 0 0 0 0 0 0 0 0 0 0 0 1 1 0 0 0 0 0 0 0 0 0 0 0
0 0 0 0 1 2 4 5 3 2 1 1 1 0 0 0 0 0 0 0 0 0 0 0 0 0 0 0 0 0 0 0 0 0 0 0 0 0 0 0 0 0 0 0 0 0 0 0 0
0 0 0 0 0 1 2 3 2 1 0 0 0 0 0 0 0 0 0 0 0 0 0 0 0 0 0 0 0 0 0 0 0 0 0 0 0 0 0 0 0 0 0 0 0 0 0 0 0
0 0 0 0 0 0 0 1 1 1 0 0 0 0 0 0 0 0 1 0 0 0 0 0 0 0 0 0 0 0 0 0 0 0 0 0 0 0 0 0 0 0 0 0 0 0 0 0 0
0 0 0 0 0 0 0 0 0 0 0 0 0 0 0 0 0 0 0 0 0 0 0 0 0 0 0 0 0 0 0 0 0 0 0 0 0 0 0 0 0 0 0 0 0 0 0 0 0
0 0 0 0 0 0 0 0 0 0 0 0 0 0 0 0 0 0 0 0 0 0 0 0 0 0 0 0 0 0 0 0 0 0 0 0 0 0 0 0 0 0 0 0 0 0 0 0 0
0 0 0 0 0 0 0 0 0 0 0 0 0 0 0 0 0 0 0 0 0 0 0 0 0 0 0 0 0 0 0 0 0 0 0 0 0 0 0 0 0 0 0 0 0 0 0 0 0
0 0 0 0 0 0 0 0 0 0 0 0 0 0 0 0 0 0 0 0 0 0 0 0 0 0 0 0 0 0 0 0 0 0 0 0 0 0 0 0 0 0 0 0 0 0 0 0 0
0 0 0 0 0 0 0 0 0 0 0 0 0 0 0 0 0 0 0 0 0 0 0 0 0 0 0 0 0 0 0 0 0 0 0 0 0 0 0 0 0 0 0 0 0 0 0 0 0
0 0 0 0 0 0 0 0 0 0 0 0 0 0 0 0 0 0 0 0 0 0 0 0 0 0 0 0 0 0 0 0 0 0 0 0 0 0 0 0 0 0 0 0 0 0 0 0 0
0 0 0 0 0 0 0 0 0 0 0 0 0 0 0 0 0 0 0 0 0 0 0 0 0 0 0 0 0 0 0 0 0 0 0 0 0 0 0 0 0 0 0 0 0 0 0 0 0

GEFSSGP_con_probscp_036.txt.gz
Probability
0 0 0 0 0 0 0 0 0 0 0 0 0 2 4 2 0 0 0 0 0 1 0 0 0 0 1 4 7 7 4 1 0 0 1 0 0 0 1 1 0 0 0 0 0 0 0 0 0
0 0 0 0 0 0 0 0 0 0 0 0 0 2 4 2 0 0 0 0 1 1 1 0 0 1 3 7 9 10 6 1 0 0 1 1 1 1 2 1 0 0 0 0 0 0 0 0 0
0 0 0 0 0 0 0 0 0 0 0 0 0 1 2 2 0 0 0 1 2 3 1 0 1 4 8 11 11 11 7 3 2 2 2 1 2 3 2 1 0 0 0 0 0 0 0 0 0
0 0 0 0 0 0 0 0 0 0 0 0 0 0 1 1 0 0 0 1 3 3 2 0 1 6 11 12 11 11 9 8 8 8 6 5 4 3 3 1 0 0 0 0 0 0 0 0 0
0 0 0 0 0 0 0 0 0 0 0 0 0 2 4 3 1 0 0 0 1 2 1 0 1 4 8 10 10 9 10 11 11 12 11 9 6 4 3 2 1 0 0 0 0 0 0 0 0
0 0 0 0 0 0 0 0 1 1 1 0 0 4 8 7 4 2 1 0 0 0 0 0 0 1 3 5 6 6 7 9 11 12 11 9 7 5 3 2 1 0 0 0 0 0 0 0 0
0 0 0 0 0 0 0 0 1 2 2 1 0 6 13 13 10 7 4 1 0 0 0 0 0 0 1 1 1 2 4 6 8 8 8 6 5 3 2 1 0 0 0 0 1 1 1 1 1
0 0 0 0 0 0 0 0 1 2 3 3 3 9 20 26 26 22 14 8 3 1 0 0 0 0 0 0 0 1 2 3 4 4 4 4 3 2 1 0 1 1 1 1 2 3 5 6 6
0 0 0 0 0 0 1 3 4 6 10 14 20 28 40 49 47 40 28 15 7 3 1 1 1 1 1 1 1 1 0 1 2 2 2 3 3 2 1 1 2 2 2 2 2 3 7 11 13
0 0 0 0 0 1 5 13 18 22 26 33 46 60 68 68 62 52 36 19 9 4 3 3 3 3 2 2 2 1 1 1 2 2 4 6 7 6 4 4 4 3 3 3 3 3 6 12 15
0 0 0 0 0 4 14 29 42 48 50 53 64 77 80 75 68 57 41 25 13 7 5 4 3 3 3 2 2 2 2 2 3 4 7 11 12 9 7 7 5 4 4 4 3 3 6 9 12
0 0 1 3 8 17 32 51 65 70 69 70 75 79 79 74 67 57 45 31 19 11 7 4 3 2 1 1 1 2 1 2 3 5 8 12 12 9 8 6 5 5 5 4 3 4 5 7 9
0 0 2 10 22 36 53 68 76 77 75 78 82 79 73 66 57 47 39 29 19 12 8 5 3 2 1 1 1 1 1 0 1 3 6 8 9 8 6 4 3 4 4 3 2 2 2 3 4
0 0 2 10 24 42 59 69 70 69 70 74 76 71 62 52 43 33 26 19 14 9 6 4 2 1 1 1 1 1 0 0 0 1 2 3 6 8 7 5 4 3 3 2 1 1 0 1 1
0 0 1 4 12 26 42 50 51 55 59 61 59 54 45 37 29 21 14 10 7 5 3 2 1 0 0 1 1 0 0 0 0 0 0 1 3 5 7 7 6 4 2 1 0 0 0 0 0
0 0 0 0 3 10 22 28 30 37 43 43 38 33 27 21 15 10 7 4 3 2 1 1 0 0 0 0 0 0 0 0 0 0 0 0 1 2 4 6 5 3 2 0 0 0 0 0 0
0 0 0 0 0 4 11 16 18 22 25 23 19 16 12 8 4 2 1 1 1 1 0 0 0 0 0 0 0 0 0 0 0 0 0 0 0 0 2 3 2 1 1 0 0 0 0 0 0
0 0 0 0 1 3 7 11 13 12 11 10 8 6 4 2 1 0 0 0 0 0 0 0 0 0 0 0 0 0 0 0 0 0 0 0 0 0 1 1 0 0 0 0 0 0 0 0 0
0 0 0 0 1 2 4 7 9 8 6 5 4 2 1 0 0 0 0 0 0 0 0 0 0 0 0 0 0 0 0 0 0 0 0 0 0 0 0 0 0 0 0 0 0 0 0 0 0
0 0 0 0 0 1 2 3 4 4 3 2 2 1 0 0 0 0 0 0 0 0 0 0 0 0 0 0 0 0 0 0 0 0 0 0 0 0 0 0 0 0 0 0 0 0 0 0 0
0 0 0 0 0 0 0 1 1 2 1 1 0 0 0 0 0 0 0 0 0 0 0 0 0 0 0 0 0 0 0 0 0 0 0 0 0 0 0 0 0 0 0 0 0 0 0 0 0
0 0 0 0 0 0 0 0 0 0 0 0 0 0 0 0 0 0 0 0 0 0 0 0 0 0 0 0 0 0 0 0 0 0 0 0 0 0 0 0 0 0 0 0 0 0 0 0 0
0 0 0 0 0 0 0 0 0 0 0 0 0 0 0 0 0 0 0 0 0 0 0 0 0 0 0 0 0 0 0 0 0 0 0 0 0 0 0 0 0 0 0 0 0 0 0 0 0
0 0 0 0 0 0 0 0 0 0 0 0 0 0 0 0 0 0 0 0 0 0 0 0 0 0 0 0 0 0 0 0 0 0 0 0 0 0 0 0 0 0 0 0 0 0 0 0 0
0 0 0 0 0 0 0 0 0 0 0 0 0 0 0 0 0 0 0 0 0 0 0 0 0 0 0 0 0 0 0 0 0 0 0 0 0 0 0 0 0 0 0 0 0 0 0 0 0
0 0 0 0 0 0 0 0 0 0 0 0 0 0 0 0 0 0 0 0 0 0 0 0 0 0 0 0 0 0 0 0 0 0 0 0 0 0 0 0 0 0 0 0 0 0 0 0 0
0 0 0 0 0 0 0 0 0 0 0 0 0 0 0 0 0 0 0 0 0 0 0 0 0 0 0 0 0 0 0 0 0 0 0 0 0 0 0 0 0 0 0 0 0 0 0 0 0
0 0 0 0 0 0 0 0 0 0 0 0 0 0 0 0 0 0 0 0 0 0 0 0 0 0 0 0 0 0 0 0 0 0 0 0 0 0 0 0 0 0 0 0 0 0 0 0 0
0 0 0 0 0 0 0 0 0 0 0 0 0 0 0 0 0 0 0 0 0 0 0 0 0 0 0 0 0 0 0 0 0 0 0 0 0 0 0 0 0 0 0 0 0 0 0 0 0
0 0 0 0 0 0 0 0 0 0 0 0 0 0 0 0 0 0 0 0 0 0 0 0 0 0 0 0 0 0 0 0 0 0 0 0 0 0 0 0 0 0 0 0 0 0 0 0 0

GEFSSGP_con_probscp_042.txt.gz
Probability
0 0 0 0 0 0 0 0 0 0 0 0 0 0 0 0 0 0 0 0 0 0 0 0 0 0 0 0 0 0 0 0 0 0 0 0 0 0 0 0 0 0 0 0 0 0 0 0 0
0 0 0 0 0 0 0 0 0 0 0 0 0 0 0 0 0 0 0 0 0 0 0 0 0 0 0 0 0 1 1 1 1 0 0 0 0 0 0 0 0 0 0 0 0 0 0 0 0
0 0 0 0 0 0 0 0 0 0 0 0 0 0 0 0 0 0 0 0 0 0 0 0 0 0 0 0 0 1 2 2 2 1 0 0 0 0 0 0 0 0 0 0 0 0 0 0 0
0 0 0 0 0 0 0 0 0 0 0 0 0 0 0 0 0 0 0 0 0 0 0 1 1 0 0 0 0 1 1 1 1 1 0 0 0 0 0 0 0 0 0 0 0 0 0 0 0
0 0 0 0 0 0 1 0 0 0 0 0 0 0 0 0 0 0 0 0 0 0 0 1 1 0 1 1 1 0 1 1 1 0 0 0 0 0 0 0 0 0 0 0 0 0 0 0 0
0 0 0 0 0 1 2 1 1 1 0 0 0 0 0 0 0 0 0 0 0 0 0 0 0 0 1 3 2 2 3 3 2 1 0 0 0 0 0 0 0 0 0 0 0 0 0 0 0
0 0 0 0 1 2 2 3 4 3 1 1 0 1 3 5 4 2 2 2 2 1 1 0 0 2 3 5 6 5 5 4 3 1 1 1 0 0 0 0 0 0 0 0 0 0 0 0 0
0 0 0 0 1 2 2 4 7 7 6 4 4 9 18 24 18 11 9 8 6 4 3 1 2 5 6 6 8 7 5 2 1 1 2 2 1 0 0 0 0 0 0 0 0 0 0 0 0
0 0 0 0 2 3 3 6 9 10 12 15 21 33 47 50 36 22 18 16 13 9 5 3 5 7 8 7 8 8 5 2 1 1 2 2 1 0 1 1 1 0 0 0 0 0 0 0 0
0 0 0 0 1 2 4 5 6 9 16 28 44 62 72 65 45 28 21 19 16 12 6 4 6 8 8 7 7 8 7 5 3 3 3 2 2 2 3 4 3 1 0 0 0 0 0 1 2
0 0 0 0 0 1 2 3 5 13 25 41 58 75 80 70 50 31 21 17 15 11 6 4 6 7 8 6 6 10 12 10 6 4 4 5 6 8 11 13 11 9 8 7 6 6 4 5 7
0 0 0 0 0 0 1 3 11 26 43 56 67 76 78 73 59 40 26 21 17 13 9 7 7 7 7 5 6 11 14 11 7 5 6 8 11 14 19 23 22 22 22 20 18 16 11 10 10
0 0 0 0 0 0 2 7 19 37 56 69 75 77 76 74 66 52 37 28 22 18 14 12 10 8 7 7 8 10 9 7 6 6 7 9 12 15 19 23 24 26 28 30 29 25 20 17 15
0 0 0 0 0 1 3 9 20 38 55 68 74 74 71 69 63 53 41 29 22 17 14 12 10 7 6 7 8 7 5 3 4 5 6 7 9 11 13 15 17 20 25 29 29 26 23 21 20
0 0 0 0 0 1 3 6 17 31 45 55 62 63 61 55 46 39 31 22 15 12 10 8 6 5 4 5 5 4 3 2 2 2 2 3 5 7 8 9 11 15 18 20 21 20 19 19 18
0 0 0 0 0 1 1 4 12 22 33 44 50 51 47 38 28 22 18 12 9 8 7 5 3 3 3 2 2 2 1 0 0 0 0 0 1 3 4 5 9 12 11 9 10 12 13 14 15
0 0 0 0 0 0 0 2 7 16 27 38 43 40 34 23 15 11 8 6 6 6 5 3 2 2 1 1 1 1 0 0 0 0 0 0 0 1 2 4 7 8 5 4 5 6 8 10 12
0 0 0 0 0 0 0 2 7 15 25 32 33 30 23 15 7 5 4 3 4 3 3 1 0 0 0 0 0 0 0 0 0 0 0 0 0 0 1 2 4 3 2 1 2 3 3 5 6
0 0 0 0 0 0 0 2 8 15 18 20 21 20 15 9 4 2 1 1 2 1 1 0 0 0 0 0 0 0 0 0 0 0 0 0 0 0 0 0 1 1 0 0 1 1 1 1 1
0 0 0 0 0 0 0 2 7 11 11 10 11 11 8 5 2 1 0 0 0 0 0 0 0 0 0 0 0 0 0 0 0 0 0 0 0 0 0 0 0 0 0 0 0 0 0 0 0
0 0 0 0 0 0 0 2 4 5 5 4 4 4 3 1 1 0 0 0 0 0 0 0 1 1 1 0 0 0 0 0 0 0 0 0 0 0 0 0 0 0 0 0 0 0 0 0 0
0 0 0 0 0 0 0 1 2 2 2 1 1 1 1 0 0 0 0 0 0 0 0 2 4 6 5 4 3 1 0 0 0 0 0 0 0 0 0 0 0 0 0 0 0 0 0 0 0
0 0 0 0 0 0 0 0 1 1 0 0 0 0 0 0 0 0 0 0 0 0 1 4 12 16 14 11 8 5 2 0 0 0 0 0 0 0 0 0 0 0 0 0 0 0 0 0 0
0 0 0 0 0 0 0 0 0 0 0 0 0 0 0 0 0 0 0 0 0 0 2 7 16 24 21 14 10 5 2 0 0 0 0 0 0 0 0 0 0 0 0 0 0 0 0 0 0
0 0 0 0 0 0 0 0 0 0 0 0 0 0 0 0 0 0 0 0 1 2 3 7 13 18 16 10 6 3 1 0 0 0 0 0 0 0 0 0 0 0 0 0 0 0 0 0 0
0 0 0 0 0 0 0 0 0 0 0 0 0 0 0 0 0 0 0 1 2 3 4 5 6 7 6 5 3 2 0 0 0 0 0 0 0 0 0 0 0 0 0 0 0 0 0 0 0
0 0 0 0 0 0 0 0 0 0 0 0 0 0 0 0 0 0 1 2 3 3 3 3 3 2 2 2 2 1 0 0 0 0 0 0 0 0 0 0 0 0 0 0 0 0 0 0 0
0 0 0 0 0 0 0 0 0 0 0 0 0 0 0 0 0 0 1 2 3 3 2 1 1 1 0 1 1 0 0 0 0 0 0 0 0 0 0 0 0 0 0 0 0 0 0 0 0
0 0 0 0 0 0 0 0 0 0 0 0 0 0 0 0 0 0 0 1 2 1 1 0 0 0 0 0 0 0 0 0 0 0 0 0 0 0 0 0 0 0 0 0 0 0 0 0 0
0 0 0 0 0 0 0 0 0 0 0 0 0 0 0 0 0 0 0 0 1 0 0 0 0 0 0 0 0 0 0 0 0 0 0 0 0 0 0 0 0 0 0 0 0 0 0 0 0

GEFSSGP_con_probscp_048.txt.gz
Probability
3 3 3 3 3 3 2 2 2 3 3 3 3 3 3 3 3 3 3 5 6 5 3 3 3 3 3 3 3 3 3 3 3 3 3 3 3 3 3 3 3 3 3 3 3 3 3 3 3
2 3 3 3 3 3 3 2 3 3 2 3 3 3 3 3 3 3 3 5 6 6 5 5 5 4 3 3 3 3 3 3 3 3 3 3 3 3 3 3 3 3 3 3 3 3 3 3 3
3 3 3 3 3 3 3 3 3 3 3 3 4 4 4 3 3 3 3 5 8 9 9 9 8 6 4 3 3 4 4 3 3 3 3 3 3 3 3 3 3 3 3 3 3 3 3 3 3
3 3 3 3 3 3 3 3 3 3 3 4 7 7 5 3 3 3 4 7 11 13 12 12 12 8 4 3 4 5 5 4 4 3 3 3 3 3 3 3 3 3 3 3 3 3 3 3 3
3 3 3 3 3 4 3 3 4 4 5 8 13 12 6 3 3 4 5 9 13 15 13 12 13 10 6 4 4 5 6 6 5 5 5 5 5 4 4 3 3 3 3 3 3 3 3 3 3
3 3 3 3 3 4 5 4 6 10 10 13 19 17 8 4 4 5 7 12 19 22 17 12 11 10 9 8 7 7 7 8 8 8 8 8 7 6 4 3 3 3 3 3 3 3 3 3 3
3 3 3 2 3 4 6 6 10 17 19 19 24 22 13 8 7 8 11 19 28 29 20 11 8 9 10 11 10 10 10 11 10 10 10 8 6 4 4 3 3 3 3 3 3 3 3 3 3
1 2 2 1 2 5 6 7 12 20 25 28 33 32 23 15 12 14 20 30 38 36 24 14 10 10 10 11 11 11 11 10 9 8 8 6 4 3 4 5 4 4 3 4 3 3 3 4 4
0 1 1 0 2 4 5 7 11 19 29 39 48 46 35 23 18 23 32 41 47 43 32 25 22 18 15 14 12 10 9 8 7 8 9 7 5 5 6 7 7 6 5 5 4 3 4 6 6
0 0 0 0 0 2 4 6 10 19 33 46 54 51 39 27 25 31 41 48 52 48 39 36 34 29 24 20 16 14 13 13 13 13 14 11 7 6 8 11 11 9 6 5 5 5 6 7 7
0 0 0 0 0 1 3 7 13 24 36 42 44 42 35 31 32 40 47 53 55 51 43 40 40 38 33 26 20 20 21 20 17 16 16 14 10 9 13 18 18 13 8 6 6 7 8 8 8
0 0 0 1 1 2 4 9 18 27 33 32 31 32 33 37 43 52 59 63 65 60 51 46 44 41 36 30 23 20 19 17 14 12 14 15 14 14 18 23 23 19 14 10 11 12 12 11 11
0 0 0 1 2 3 5 11 21 27 28 29 30 32 37 46 58 67 73 76 77 72 61 52 45 37 30 26 21 15 11 9 8 7 9 12 15 16 17 20 23 22 20 17 15 16 15 16 17
0 0 0 1 2 4 5 12 23 29 30 34 38 42 49 59 70 77 80 81 80 74 62 47 36 28 21 17 14 10 7 5 5 5 5 7 8 10 11 13 17 20 22 21 17 14 15 17 17
0 0 0 1 3 4 7 14 23 29 32 38 45 52 60 67 73 76 77 77 75 68 52 34 23 18 14 11 9 6 4 3 2 3 3 2 2 3 5 8 10 13 18 20 15 11 13 15 14
1 0 1 2 3 4 8 16 21 23 26 34 44 53 60 64 65 66 67 67 64 55 39 24 15 11 10 9 7 4 3 1 1 1 1 0 0 0 1 4 6 7 9 12 13 12 12 13 13
2 1 1 2 3 4 9 15 17 15 19 29 40 49 53 53 52 51 51 51 48 40 30 21 14 9 9 8 6 4 3 2 1 0 0 0 0 0 1 2 3 3 4 7 10 11 10 10 10
3 2 2 2 2 4 9 14 14 12 17 28 39 46 46 43 39 36 34 33 30 25 21 17 13 8 7 6 5 4 3 3 2 1 1 0 0 0 0 1 2 1 3 5 7 7 7 5 5
3 2 2 3 3 4 7 12 14 13 16 24 34 38 37 32 27 23 20 18 16 14 13 11 10 8 7 5 4 4 4 4 3 2 1 0 0 0 0 0 1 1 2 2 3 4 4 4 4
3 3 3 3 3 3 5 9 12 13 13 17 22 25 24 19 15 13 10 9 8 8 9 8 9 9 8 6 5 5 5 6 5 3 2 1 0 0 0 0 0 0 1 2 2 2 3 3 3
3 3 3 3 3 3 4 6 9 10 9 10 11 11 11 8 7 7 6 5 5 6 9 11 14 15 14 11 7 5 7 8 6 5 5 3 1 0 0 0 0 0 1 1 1 2 2 3 3
2 2 3 3 3 3 3 5 7 8 8 7 6 4 4 3 3 4 4 3 4 5 11 21 29 30 28 22 14 8 8 7 7 7 7 4 1 0 0 0 0 0 0 0 0 1 1 2 3
1 1 2 3 3 3 3 4 6 7 7 6 5 3 3 3 3 3 3 3 3 4 12 31 47 50 45 37 25 16 12 10 8 8 6 3 2 1 0 0 0 0 1 1 1 1 1 2 3
0 1 2 3 3 2 2 3 4 5 5 4 4 4 3 3 3 3 3 3 3 4 11 33 57 63 58 48 35 24 18 13 11 8 5 3 3 2 1 0 0 1 2 2 2 2 2 3 3
1 2 3 3 3 2 2 3 3 3 3 3 4 4 4 3 3 3 3 3 4 6 13 32 56 66 60 50 37 27 19 14 11 8 5 3 3 3 2 1 1 2 3 3 3 3 3 3 3
0 1 2 3 3 3 3 3 3 2 2 3 3 4 3 3 3 3 3 3 5 10 19 33 50 58 51 41 33 25 16 11 8 6 4 3 3 3 3 1 1 3 3 3 3 3 3 3 3
0 0 1 2 3 3 3 3 3 1 1 2 3 3 3 4 3 3 3 3 6 13 24 36 44 44 34 27 22 17 11 8 6 4 3 3 3 3 3 3 3 3 3 3 3 3 3 3 3
1 1 1 2 3 3 2 2 3 2 1 1 1 2 3 3 3 3 3 4 6 13 24 32 34 30 21 13 10 8 7 6 4 3 3 3 3 3 3 3 3 3 3 3 3 3 3 3 3
2 2 2 2 3 3 2 2 2 2 2 2 1 1 1 2 2 3 3 4 6 11 17 22 22 18 12 6 2 2 4 5 4 3 3 4 4 3 3 3 3 3 3 3 3 3 3 3 3
1 1 2 3 3 3 3 2 1 2 3 3 2 1 0 0 1 3 3 4 5 7 11 14 13 11 8 4 1 1 3 4 4 3 4 5 5 4 3 3 3 3 3 3 3 3 3 3 3

GEFSSGP_con_probscp_054.txt.gz
Probability
1 1 0 0 0 0 0 0 0 0 0 1 2 2 1 0 0 0 0 0 2 4 3 3 4 4 3 3 3 1 0 0 0 0 0 0 0 0 0 0 0 0 0 0 0 0 0 0 0
1 0 0 0 0 0 0 0 0 0 1 3 4 4 2 0 0 0 0 1 2 3 2 3 3 3 3 3 2 1 0 0 0 0 0 0 0 0 0 0 0 0 0 0 0 0 0 0 0
0 0 0 0 0 0 0 0 1 2 4 7 8 7 4 1 0 0 0 1 2 2 1 1 3 4 4 3 2 1 0 0 0 0 0 0 0 0 0 0 0 0 0 0 0 0 0 0 0
0 0 0 0 0 0 0 1 3 7 12 14 12 9 5 2 1 1 0 1 3 3 1 2 4 6 7 5 4 3 1 0 0 0 0 0 0 0 0 0 0 0 0 0 0 0 0 0 0
0 0 0 0 0 0 1 5 12 19 23 21 18 14 9 4 4 2 1 2 3 4 3 3 6 9 10 10 9 7 4 2 2 2 1 1 0 0 0 0 0 0 0 0 0 0 0 0 0
0 0 0 0 0 0 3 11 24 32 28 21 20 20 13 7 5 3 2 1 2 3 3 4 7 10 12 13 13 11 8 6 4 4 4 3 1 0 0 0 0 0 0 0 0 0 0 0 0
0 0 0 0 0 0 3 13 27 33 27 19 18 19 14 8 7 7 5 3 2 3 4 4 4 5 8 11 12 12 10 8 5 5 5 4 1 0 0 0 0 0 0 0 0 0 0 0 0
0 0 0 0 0 0 2 8 17 21 20 16 14 13 12 12 16 16 11 6 4 4 4 4 2 1 2 5 8 11 10 8 6 4 3 2 1 0 0 0 0 0 0 0 0 0 0 0 1
0 0 0 0 0 0 1 3 7 11 13 14 13 13 18 25 29 26 17 9 5 4 4 3 1 0 0 2 5 8 8 7 6 3 1 0 0 0 0 1 1 0 0 0 0 1 1 1 1
0 0 0 0 0 0 1 1 2 5 10 12 15 21 27 34 37 32 21 11 7 4 3 2 1 0 0 2 4 6 6 6 4 2 1 0 0 0 0 1 1 0 0 0 0 1 1 0 1
0 0 0 0 0 0 1 1 2 4 8 11 18 26 30 33 35 32 24 15 10 7 5 3 3 2 2 4 4 4 4 3 2 1 0 0 0 0 0 1 1 0 0 0 0 0 0 0 0
0 0 0 0 0 0 1 2 4 6 7 11 17 23 26 29 30 30 28 23 20 17 11 8 7 6 5 5 4 3 2 1 1 0 0 1 0 0 0 0 0 0 0 0 0 0 0 0 0
0 0 0 0 0 1 2 4 6 7 9 12 15 18 22 26 27 30 34 33 29 24 16 11 10 8 5 4 3 1 1 0 0 0 0 0 0 0 0 0 0 0 0 0 0 0 0 0 0
0 0 0 0 0 1 3 5 6 8 10 13 14 15 19 23 27 31 35 34 29 24 17 12 9 6 3 2 1 0 0 0 0 0 0 0 0 0 0 0 0 0 0 0 0 0 0 0 0
0 0 0 0 0 0 2 4 5 7 9 11 12 14 18 21 25 30 31 28 24 19 15 11 7 4 1 0 0 0 0 0 0 0 0 0 0 0 0 0 0 0 0 0 0 0 0 0 0
0 0 0 0 0 0 0 1 3 6 9 9 10 12 16 19 23 26 26 23 19 15 11 8 5 2 0 0 0 0 0 0 0 0 0 0 0 0 0 0 0 0 0 0 0 0 0 0 0
0 0 0 0 0 0 0 0 2 5 7 7 8 11 14 16 19 21 21 18 15 10 6 4 2 1 0 0 0 0 0 0 0 0 0 0 0 0 0 0 0 0 0 0 0 0 0 0 0
0 0 0 0 0 0 0 1 3 5 5 5 6 9 11 13 13 14 14 12 10 6 2 1 0 0 0 0 0 0 0 0 0 0 0 0 0 0 0 0 0 0 0 0 0 0 0 0 0
0 0 0 0 0 0 1 2 3 5 4 4 4 7 10 12 12 11 9 7 5 3 1 0 0 0 0 0 0 0 0 0 0 0 0 0 0 0 0 0 0 0 0 0 0 0 0 0 0
0 0 0 0 0 0 2 2 2 3 3 3 3 5 8 11 12 10 7 4 2 1 0 0 0 0 0 0 0 0 0 0 0 0 0 0 0 0 0 0 0 0 0 0 0 0 0 0 0
0 0 0 0 0 0 1 2 2 1 1 2 3 4 6 8 8 7 5 3 1 0 0 0 0 0 0 0 0 0 0 0 0 0 0 0 0 0 0 0 0 0 0 0 0 0 0 0 0
0 0 0 0 0 0 0 1 1 0 0 2 4 5 5 5 4 3 2 2 1 0 0 0 0 0 0 0 0 0 0 0 0 0 0 0 0 0 0 0 0 0 0 0 0 0 0 0 0
0 0 0 0 0 0 0 0 0 0 0 1 4 5 4 2 2 1 0 0 0 0 0 0 0 0 0 0 0 0 0 0 0 0 0 0 0 0 0 0 0 0 0 0 0 0 0 0 0
0 0 0 0 0 0 0 0 0 0 0 0 2 3 3 2 1 0 0 0 0 0 0 0 0 0 0 0 0 0 0 0 0 0 0 0 0 0 0 0 0 0 0 0 0 0 0 0 0
0 0 0 0 0 0 0 0 0 0 0 0 0 1 1 1 1 0 0 0 0 0 0 0 0 0 0 0 0 0 0 0 0 0 0 0 0 0 0 0 0 0 0 0 0 0 0 0 0
0 0 0 0 0 0 0 0 0 0 0 0 0 0 0 0 0 0 0 0 0 0 0 0 0 0 0 0 0 0 0 0 0 0 0 0 0 0 0 0 0 0 0 0 0 0 0 0 0
0 0 0 0 0 0 0 0 0 0 0 0 0 0 0 0 0 0 0 0 0 0 0 0 2 3 2 0 0 0 0 0 0 0 0 0 0 0 0 0 0 0 0 0 0 0 0 0 0
0 0 0 0 0 0 0 0 0 0 0 0 0 0 0 0 0 0 0 0 0 0 1 3 6 7 4 1 0 0 0 0 0 0 0 0 0 0 0 0 0 0 0 0 0 0 0 0 0
0 0 0 0 0 0 0 0 0 0 0 0 0 0 0 0 0 0 0 0 0 1 4 8 10 9 6 2 0 0 0 0 0 0 0 0 0 0 0 0 0 0 0 0 0 0 0 0 0
0 0 0 0 0 0 0 0 0 0 0 0 0 0 0 0 0 0 0 0 0 2 7 12 13 11 7 2 0 0 0 0 0 0 0 0 0 0 0 0 0 0 0 0 0 0 0 0 0

GEFSSGP_con_probscp_060.txt.gz
Probability
0 0 0 0 0 0 0 0 0 0 0 1 0 0 1 1 1 1 1 1 3 4 3 1 0 0 0 1 1 0 0 0 0 0 0 0 0 0 0 0 0 0 0 0 0 0 0 0 0
0 0 0 0 0 0 0 0 1 1 1 1 1 0 1 2 2 2 1 2 4 5 3 1 0 0 1 2 2 1 0 0 0 0 0 0 0 0 0 0 0 0 0 0 0 0 0 0 0
0 0 0 0 0 0 0 1 2 3 3 2 1 1 2 2 1 1 2 4 6 7 5 3 3 3 3 3 3 2 1 1 0 0 0 0 0 0 0 0 0 0 0 0 0 0 0 0 0
0 0 0 0 0 0 0 2 4 5 4 3 1 1 3 3 2 1 4 8 12 14 11 8 7 6 5 4 3 2 2 1 0 0 0 0 0 0 0 0 0 0 0 0 0 0 0 0 0
0 0 0 0 0 0 1 3 6 8 7 5 4 4 5 5 3 2 7 15 22 24 19 12 9 7 5 3 2 1 1 1 0 0 0 0 0 0 0 0 0 0 0 0 0 0 0 0 0
0 0 0 0 0 0 2 4 8 11 11 10 8 5 4 5 6 7 14 25 33 34 26 15 9 6 5 4 2 1 0 0 0 0 0 0 0 0 0 0 0 0 0 0 0 0 0 0 0
0 0 0 0 0 0 1 3 6 10 12 11 8 5 4 5 11 18 28 38 40 37 29 18 10 5 5 5 4 2 1 0 0 0 0 0 0 0 0 0 0 0 0 0 0 0 0 0 0
0 0 0 0 0 0 0 1 3 6 9 9 6 4 4 8 17 29 40 45 41 33 26 18 10 5 5 5 5 5 3 1 1 0 0 0 0 0 0 0 0 0 0 0 0 0 0 0 0
0 0 0 0 0 0 0 0 1 4 6 6 5 5 10 19 27 34 40 39 32 24 18 12 8 5 5 5 5 5 4 2 1 0 0 0 0 0 0 0 0 0 0 0 0 0 0 0 0
0 0 0 0 0 0 0 1 3 5 5 5 6 11 22 32 33 30 27 25 21 17 12 8 6 6 6 6 5 4 4 3 2 0 0 0 0 0 0 0 0 0 0 0 0 0 0 0 0
0 0 0 0 0 0 1 1 3 5 4 5 10 22 35 39 33 23 16 13 11 9 7 5 5 5 5 5 4 3 2 2 1 0 0 0 0 0 0 0 0 0 0 0 0 0 0 0 0
0 0 0 0 1 1 2 3 3 3 2 5 15 30 40 38 29 19 12 7 4 3 2 2 3 3 2 1 1 1 1 1 0 0 0 0 0 0 0 0 0 0 0 0 0 0 0 0 0
0 0 0 0 1 2 3 3 3 2 2 6 16 28 35 33 27 21 13 6 2 0 0 1 2 2 1 0 0 0 0 0 0 0 0 0 0 0 0 0 0 0 0 0 0 0 0 0 0
0 0 0 0 1 2 2 3 3 2 3 7 13 21 26 27 27 24 16 7 2 0 1 1 1 1 0 0 0 0 0 0 0 0 0 0 0 0 0 0 0 0 0 0 0 0 0 0 0
0 0 0 0 0 1 2 3 3 3 4 6 10 14 18 21 22 20 15 8 3 0 1 1 1 0 0 0 0 0 0 0 0 0 0 0 0 0 0 0 0 0 0 0 0 0 0 0 0
0 0 0 0 0 0 1 2 3 3 3 5 7 10 12 15 15 14 13 9 4 2 1 1 0 0 0 0 0 0 0 0 0 0 0 0 0 0 0 0 0 0 0 0 0 0 0 0 0
0 0 0 0 0 0 0 1 3 3 3 3 5 6 7 9 11 12 12 10 7 5 4 2 1 0 0 0 0 0 0 0 0 0 0 0 0 0 0 0 0 0 0 0 0 0 0 0 0
0 0 0 0 0 0 0 1 2 2 3 3 3 3 4 6 9 10 10 10 9 8 5 3 1 0 0 0 0 0 0 0 0 0 0 0 0 0 0 0 0 0 0 0 0 0 0 0 0
0 0 0 0 0 0 0 0 1 1 1 2 2 1 1 3 7 8 8 9 8 7 5 2 0 0 0 0 0 0 0 0 0 0 0 0 0 0 0 0 0 0 0 0 0 0 0 0 0
0 0 0 0 0 0 0 0 0 0 0 1 1 0 0 1 4 6 7 8 7 4 3 1 0 0 0 0 0 0 0 0 0 0 0 0 0 0 0 0 0 0 0 0 0 0 0 0 0
0 0 0 0 0 0 0 0 0 0 0 0 0 0 0 0 2 4 6 6 5 2 1 0 0 0 0 0 0 0 0 0 0 0 0 0 0 0 0 0 0 0 0 0 0 0 0 0 0
0 0 0 0 0 0 0 0 0 0 0 0 0 0 0 0 1 2 3 4 3 1 0 0 0 0 0 0 0 0 0 0 0 0 0 0 0 0 0 0 0 0 0 0 0 0 0 0 0
0 0 0 0 0 0 0 0 0 0 0 0 0 0 0 0 0 1 2 2 2 1 0 0 0 0 0 0 0 0 0 0 0 0 0 0 0 0 0 0 0 0 0 0 0 0 0 0 0
0 0 0 0 0 0 0 0 0 0 0 0 0 0 0 0 0 0 1 1 1 0 0 0 0 0 0 0 0 0 0 0 0 0 0 0 0 0 0 0 0 0 0 0 0 0 0 0 0
0 0 0 0 0 0 0 0 0 0 0 0 0 0 0 0 0 0 0 0 0 0 0 0 0 0 0 0 0 0 0 0 0 0 0 0 0 0 0 0 0 0 0 0 0 0 0 0 0
0 0 0 0 0 0 0 0 0 0 0 0 0 0 0 0 0 0 0 0 0 0 0 0 0 0 0 0 0 0 0 0 0 0 0 0 0 0 0 0 0 0 0 0 0 0 0 0 0
0 0 0 0 0 0 0 0 0 0 0 0 0 0 0 0 0 0 0 0 0 0 0 0 0 0 0 0 0 0 0 0 0 0 0 0 0 0 0 0 0 0 0 0 0 0 0 0 0
0 0 0 0 0 0 0 0 0 0 0 0 0 0 0 0 0 0 0 0 0 0 0 0 0 0 0 0 0 0 0 0 0 0 0 0 0 0 0 0 0 0 0 0 0 0 0 0 0
0 0 0 0 0 0 0 0 0 0 0 0 0 0 0 0 0 0 0 0 0 0 0 0 0 0 0 0 0 0 0 0 0 0 0 0 0 0 0 0 0 0 0 0 0 0 0 0 0
0 0 0 0 0 0 0 0 0 0 0 0 0 0 0 0 0 0 0 0 0 0 0 0 0 0 0 0 0 0 0 0 0 0 0 0 0 0 0 0 0 0 0 0 0 0 0 0 0

GEFSSGP_con_probscp_066.txt.gz
Probability
0 0 0 0 0 0 0 0 0 0 0 0 0 0 0 0 0 1 1 1 1 0 0 0 0 0 0 0 0 0 0 0 0 0 0 0 0 0 0 0 0 0 0 0 0 0 0 0 0
0 0 0 0 0 0 0 0 0 0 0 0 0 0 0 0 0 1 1 1 1 1 0 0 0 0 0 0 0 0 0 0 0 0 0 0 0 0 0 0 0 0 0 0 0 0 0 0 0
0 0 0 0 0 0 0 0 0 0 0 0 0 0 0 0 0 0 0 1 2 1 0 0 0 0 0 0 0 0 0 0 0 0 0 0 0 0 0 0 0 0 0 0 0 0 0 0 0
0 0 0 0 0 0 0 0 0 0 0 0 0 0 2 3 1 0 1 1 2 2 1 0 0 0 0 0 0 0 0 0 0 0 0 0 0 0 0 0 0 0 0 0 0 0 0 0 0
0 0 0 0 0 0 0 0 0 0 0 0 0 1 5 8 5 2 2 2 1 1 1 0 0 0 0 0 0 0 0 0 0 0 0 0 0 0 0 0 0 0 0 0 0 0 0 0 0
0 0 0 0 0 0 0 0 0 0 0 0 0 2 8 12 9 4 2 2 1 1 0 0 1 0 0 0 0 0 0 0 0 0 0 0 0 0 0 0 0 0 0 0 0 0 0 0 0
0 0 0 0 0 0 0 0 0 0 0 0 0 3 9 16 14 9 6 5 2 1 0 0 0 0 0 0 0 0 0 0 0 0 1 1 0 0 0 0 0 0 0 0 0 0 0 0 0
0 0 0 0 0 0 0 0 0 0 1 2 2 4 14 25 27 23 20 15 8 3 1 1 0 0 0 0 0 0 0 0 0 0 1 1 0 0 0 0 0 0 0 0 0 0 0 0 0
0 0 0 0 0 0 0 0 0 0 1 2 3 7 20 35 40 39 35 28 17 10 6 4 2 0 0 0 0 0 0 0 0 0 1 1 0 0 0 0 0 0 0 0 0 0 0 0 0
0 0 0 0 0 0 0 0 0 0 0 2 4 9 23 38 45 43 38 31 24 18 12 8 5 2 2 3 3 1 0 0 0 0 0 0 0 0 0 0 0 0 0 0 0 0 0 0 0
0 0 0 0 0 0 0 0 0 0 0 1 4 9 21 35 42 38 29 25 25 22 15 11 9 8 7 8 7 3 1 0 0 0 0 0 0 0 0 0 0 0 0 0 0 0 0 0 0
0 0 0 0 0 0 0 0 0 0 0 1 3 9 16 27 34 32 25 24 27 26 20 15 13 14 14 13 8 3 1 0 0 0 0 0 0 0 0 0 0 0 0 0 0 0 0 0 0
0 0 0 0 0 0 0 0 0 0 0 0 2 7 12 19 28 32 32 32 31 29 26 21 17 17 19 14 7 2 0 0 0 0 0 0 0 0 0 0 0 0 0 0 0 0 0 0 0
0 0 0 0 0 0 0 0 0 0 1 2 3 5 10 18 27 35 40 39 32 28 27 23 17 16 17 13 5 1 0 0 0 0 0 0 0 0 0 0 0 0 0 0 0 0 0 0 0
0 0 0 0 0 0 0 0 1 1 3 6 6 6 10 20 28 34 38 36 30 25 22 18 14 14 15 11 5 1 0 0 0 0 0 0 0 0 0 0 0 0 0 0 0 0 0 0 0
0 0 0 0 0 0 0 1 2 2 5 9 10 10 12 19 27 31 32 30 26 22 18 14 12 13 14 11 6 2 0 0 0 0 0 0 0 0 0 0 0 0 0 0 0 0 0 0 0
0 0 0 0 0 0 0 2 3 3 5 9 9 9 10 15 21 26 28 27 24 20 17 15 13 12 12 10 6 2 0 0 0 0 0 0 0 0 0 0 0 0 0 0 0 0 0 0 0
0 0 0 0 0 0 0 1 3 3 4 6 6 7 8 9 11 15 20 23 22 19 18 16 14 12 11 8 5 1 0 0 0 0 0 0 0 0 0 0 0 0 0 0 0 0 0 0 0
0 0 0 0 0 0 0 0 2 3 2 3 5 6 5 3 3 6 11 16 18 18 18 17 14 11 9 5 2 0 0 0 0 0 0 0 0 0 0 0 0 0 0 0 0 0 0 0 0
0 0 0 0 0 0 0 0 1 2 1 2 3 3 2 1 0 1 5 10 13 15 16 14 12 9 6 2 0 0 0 0 0 0 0 0 0 0 0 0 0 0 0 0 0 0 0 0 0
0 0 0 0 0 0 0 0 0 0 0 0 1 1 1 0 0 0 2 5 7 9 10 10 10 8 4 1 0 0 0 0 0 0 0 0 0 0 0 0 0 0 0 0 0 0 0 0 0
0 0 0 0 0 0 0 0 0 0 0 0 1 1 2 1 1 0 0 1 3 4 5 6 8 7 4 1 0 0 0 0 0 0 0 0 0 0 0 0 0 0 0 0 0 0 0 0 0
0 0 0 0 0 0 0 0 0 0 0 0 1 2 2 2 1 0 0 0 1 3 4 4 5 6 4 2 1 0 0 0 0 0 0 0 0 0 0 0 0 0 0 0 0 0 0 0 0
0 0 0 0 0 0 0 0 0 0 0 0 0 1 2 1 0 0 1 1 2 3 4 3 3 4 3 2 1 0 0 0 0 0 0 0 0 0 0 0 0 0 0 0 0 0 0 0 0
0 0 0 0 0 0 0 0 0 0 0 0 0 0 0 0 0 1 2 2 3 3 3 2 1 2 2 1 0 0 0 0 0 0 0 0 0 0 0 0 0 0 0 0 0 0 0 0 0
0 0 0 0 0 0 0 0 0 0 0 0 0 0 0 0 0 1 3 4 3 2 2 1 1 1 1 1 1 1 1 0 0 0 0 0 0 0 0 0 0 0 0 0 0 0 0 0 0
0 0 0 0 0 0 0 0 0 0 0 0 0 0 0 0 0 2 5 5 3 2 2 2 2 2 2 2 2 3 2 1 1 0 0 0 0 0 0 0 0 0 0 0 0 0 0 0 0
0 0 0 0 0 0 0 0 0 0 0 0 0 0 0 0 0 1 4 5 4 3 4 4 4 4 4 4 5 6 6 5 4 4 4 5 5 3 1 0 0 0 0 1 1 0 0 0 0
0 0 0 0 0 0 0 0 0 0 0 0 0 0 0 0 0 1 3 5 5 4 5 5 5 4 4 7 10 11 10 11 12 13 15 15 14 11 6 2 1 1 1 2 2 1 0 0 0
0 0 0 0 0 0 0 0 0 0 0 0 0 0 0 0 0 0 2 4 6 5 5 6 6 5 5 9 14 15 14 15 18 21 23 23 21 16 10 5 3 2 2 3 2 1 0 0 0

GEFSSGP_con_probscp_072.txt.gz
Probability
1 2 2 1 0 0 0 0 1 1 1 0 0 0 1 2 2 2 5 14 19 12 6 5 3 1 0 0 0 0 0 0 0 0 0 0 0 0 0 0 0 0 0 0 0 0 0 0 0
0 1 1 0 0 0 0 1 2 3 2 0 1 2 4 7 6 5 10 21 21 11 5 4 3 1 0 0 0 0 0 0 0 0 0 0 0 0 0 0 0 0 0 0 0 0 0 0 0
0 0 0 0 0 0 0 2 5 5 2 0 2 7 12 14 11 10 18 26 20 10 5 5 3 1 0 0 0 0 0 0 0 0 0 0 0 0 0 0 0 0 0 0 0 0 0 0 0
0 0 0 0 0 0 1 4 6 4 1 1 7 17 21 16 14 15 19 21 16 9 5 5 4 2 0 0 0 0 0 0 0 0 0 0 0 0 0 0 0 0 0 0 0 0 0 0 0
0 0 0 0 0 0 1 3 4 4 2 3 12 25 26 17 14 15 13 14 14 9 5 4 4 2 0 0 0 0 0 0 0 0 0 0 0 0 0 0 0 0 0 0 0 0 0 0 0
0 0 0 0 0 1 1 2 4 4 3 6 15 26 28 19 13 12 12 15 18 15 8 4 4 2 0 0 0 0 0 0 0 0 0 0 0 0 0 0 0 0 0 0 0 0 0 0 0
0 0 0 0 1 2 2 2 3 3 4 8 15 25 30 25 15 11 15 23 29 25 14 6 2 0 0 0 0 0 0 0 0 0 0 0 0 0 0 0 0 0 0 0 0 0 0 0 0
0 0 0 0 1 2 2 1 1 2 5 10 18 28 35 30 19 15 21 34 43 36 20 7 2 1 0 0 0 0 0 0 0 0 0 0 0 0 0 0 0 0 0 0 0 0 0 0 0
0 0 0 0 0 1 1 0 0 1 5 14 25 35 40 33 24 23 31 45 56 50 29 12 5 2 0 0 0 0 0 0 0 0 0 0 0 0 0 0 0 0 0 0 0 0 0 0 0
0 0 0 0 0 0 0 1 1 2 7 20 36 46 43 34 28 28 36 52 63 59 43 27 16 8 4 3 1 0 0 0 0 0 0 0 0 1 1 1 0 0 1 0 0 0 0 0 0
0 0 0 0 0 0 0 1 1 4 11 26 43 51 45 36 31 30 38 52 64 64 56 48 39 30 21 12 3 1 1 1 2 2 1 1 1 1 1 1 0 0 0 0 0 0 0 0 0
0 0 0 0 0 0 1 1 2 7 15 26 38 46 44 35 31 34 43 56 67 70 68 67 67 62 49 29 11 5 5 5 4 3 2 2 1 1 1 0 0 0 0 0 0 0 0 0 0
0 0 0 0 0 1 1 1 3 10 18 24 30 38 41 37 36 43 55 66 75 79 79 81 83 79 68 47 26 16 13 9 5 4 3 1 1 0 0 0 0 0 0 0 0 0 0 0 0
0 0 0 0 1 2 2 2 5 14 23 26 29 34 38 39 42 53 65 73 80 85 86 86 83 77 66 52 37 25 16 10 7 4 2 0 0 0 0 0 0 0 0 0 0 0 0 0 0
0 0 0 0 1 2 3 5 9 17 24 30 31 31 34 37 43 55 66 72 80 85 84 79 72 65 55 44 32 19 11 7 7 5 2 0 0 0 0 0 0 0 0 0 0 0 0 0 0
0 0 0 0 0 1 4 9 15 18 24 30 30 27 29 34 40 51 59 65 75 81 79 71 62 55 46 36 23 12 7 6 5 3 1 0 0 0 0 0 0 0 0 0 0 0 0 0 0
0 0 0 0 0 0 3 11 18 20 23 29 29 25 27 32 38 45 50 55 63 70 71 65 56 48 40 33 23 13 8 6 3 1 0 0 0 0 0 0 0 0 0 0 0 0 0 0 0
0 0 0 0 0 0 2 10 18 19 21 27 28 25 26 31 35 38 41 44 50 56 58 54 48 41 35 29 21 14 8 4 1 0 0 0 0 0 0 0 0 0 0 0 0 0 0 0 0
0 0 0 0 0 0 2 8 16 18 18 22 27 27 26 28 30 31 32 35 40 45 46 42 38 35 29 21 15 10 7 3 1 0 0 0 0 0 0 0 0 0 0 0 0 0 0 0 0
0 0 0 0 0 0 2 7 13 15 14 16 22 25 24 24 24 24 24 26 31 36 37 35 32 28 22 15 10 8 6 3 1 1 0 0 0 0 0 0 0 0 0 0 0 0 0 0 0
0 0 0 0 0 0 2 6 10 12 11 12 16 20 21 22 21 19 18 19 23 28 29 27 24 19 15 12 8 6 5 4 2 1 0 0 0 0 0 0 0 0 0 0 0 0 0 0 0
0 0 0 0 0 0 1 4 8 9 10 11 12 14 16 17 17 17 16 16 19 22 22 21 18 15 12 9 7 5 4 3 2 1 0 0 0 0 0 0 0 0 0 0 0 0 0 0 0
0 0 0 0 0 0 0 2 5 6 6 7 7 8 10 12 14 15 13 13 15 18 19 19 18 15 11 9 7 5 4 3 1 0 0 0 0 0 0 0 0 0 0 0 0 0 0 0 0
0 0 0 1 1 1 1 1 2 2 2 2 2 4 6 10 12 11 10 9 11 13 15 16 16 14 10 9 7 6 5 3 2 0 0 0 0 0 1 1 1 0 0 0 0 0 0 0 0
0 0 0 1 1 1 0 1 1 1 0 0 0 2 4 7 9 9 8 6 6 8 10 12 13 12 9 9 9 8 6 4 2 1 0 0 0 2 5 5 3 1 0 0 0 0 0 0 0
0 0 0 1 1 0 0 0 0 0 0 0 0 1 1 2 5 8 8 6 5 6 9 13 15 14 11 10 10 10 7 4 1 0 0 0 0 5 11 11 7 3 0 0 0 0 0 0 0
0 0 0 0 0 0 0 0 0 0 0 0 0 0 0 0 3 7 9 9 8 8 12 21 24 21 14 10 10 11 8 4 1 0 0 0 0 7 16 16 11 6 2 0 0 0 0 0 0
0 0 0 0 0 0 0 0 1 0 0 0 0 0 0 0 1 5 9 11 12 13 17 26 31 28 19 12 10 10 9 6 3 2 2 3 5 14 22 21 15 11 7 4 3 2 1 2 2
0 0 0 0 0 0 0 0 1 1 0 0 0 0 0 0 0 3 6 11 15 17 21 29 33 29 21 15 13 13 12 12 12 11 10 11 16 25 33 31 23 17 12 13 13 8 5 7 8
0 0 0 0 0 0 0 0 1 1 1 0 0 0 0 0 0 1 5 11 16 19 25 31 33 27 21 18 17 17 18 20 20 20 19 20 24 34 43 41 31 22 16 19 21 15 10 11 13

GEFSSGP_con_probscp_078.txt.gz
Probability
0 0 0 0 0 0 0 0 0 1 3 9 19 24 20 10 3 2 4 9 13 14 9 5 4 3 1 0 0 0 0 0 0 0 0 0 0 0 0 0 0 0 0 0 0 0 0 0 0
0 0 0 0 0 0 0 0 0 2 7 17 28 31 24 13 6 4 7 10 14 15 12 7 6 3 1 0 0 0 0 0 0 0 0 0 0 0 0 0 0 0 0 0 0 0 0 0 0
0 0 0 0 0 0 0 0 2 7 16 28 38 36 24 13 8 8 10 13 16 17 15 12 9 5 1 0 0 0 0 0 0 0 0 0 0 0 0 0 0 0 0 0 0 0 0 0 0
0 0 0 0 0 0 0 0 4 12 25 39 46 39 23 13 14 16 16 18 20 20 17 15 13 7 1 0 0 0 0 0 0 0 0 0 0 0 0 0 0 0 0 0 0 0 0 0 0
0 0 0 0 0 0 0 1 7 19 32 46 52 41 24 18 26 30 25 24 26 23 17 14 14 9 3 0 0 0 0 0 0 0 0 0 0 0 0 0 0 0 0 0 0 0 0 0 0
0 0 0 0 0 0 1 2 9 22 34 46 51 41 25 25 36 38 29 26 28 26 19 15 14 10 5 1 0 0 0 0 0 0 0 0 0 0 0 0 0 0 0 0 0 0 0 0 1
0 0 0 0 0 1 2 3 8 19 30 38 44 38 26 28 39 38 30 28 29 27 23 19 15 10 5 1 0 0 0 0 0 0 0 0 0 0 0 0 0 0 0 0 0 0 0 1 2
0 0 0 0 1 2 3 3 8 18 27 31 35 34 29 33 40 39 34 31 30 26 23 21 16 9 4 1 0 0 0 0 0 0 0 0 0 0 0 0 0 0 0 0 0 0 0 1 2
0 0 0 0 1 2 3 4 9 21 31 35 35 34 37 43 48 45 39 35 30 23 19 18 14 8 3 1 0 0 0 0 0 0 0 0 0 0 0 0 0 0 0 0 0 0 0 0 1
0 0 0 0 1 2 3 3 10 23 35 42 43 43 50 57 58 54 45 38 30 22 16 13 10 7 4 1 1 0 0 0 0 0 0 0 0 0 0 0 0 0 0 0 0 0 0 0 0
0 0 0 0 1 2 2 2 9 20 32 43 49 52 58 63 63 58 49 40 32 22 14 10 9 8 5 3 2 0 0 0 0 0 0 0 0 0 0 0 0 0 0 0 0 0 0 0 0
0 0 0 0 1 1 1 4 9 16 27 40 48 52 56 60 61 59 53 44 36 26 16 11 10 8 6 4 2 0 0 0 0 0 0 0 0 0 0 0 0 0 0 0 0 0 0 0 0
0 0 0 0 0 1 2 6 11 19 32 42 45 46 48 53 56 57 54 48 40 29 20 17 15 11 8 7 3 1 0 0 0 0 0 0 0 0 0 0 0 0 0 0 0 0 0 0 0
0 0 0 0 0 1 3 7 16 29 43 48 45 41 40 43 49 51 50 46 39 30 26 27 24 18 13 10 6 2 0 0 0 0 0 0 0 0 0 0 0 0 0 0 0 0 0 0 0
0 0 0 0 0 1 3 7 18 33 45 49 46 40 36 38 41 40 38 37 35 32 33 34 31 24 17 12 8 4 1 0 0 0 0 0 0 0 0 0 0 0 0 0 0 0 0 0 0
0 0 0 0 0 1 2 5 15 31 42 46 44 38 34 34 33 29 28 31 34 34 35 35 33 27 18 11 7 5 2 0 0 0 0 0 0 0 0 0 0 0 0 0 0 0 0 0 0
0 0 0 0 0 0 1 6 16 29 40 42 37 30 28 29 26 21 22 26 28 28 28 31 31 26 17 10 7 4 1 0 0 0 0 0 0 0 0 0 0 0 0 0 0 0 0 0 0
0 0 0 0 0 0 3 10 18 28 34 34 27 21 20 22 19 16 16 18 18 17 21 26 27 22 14 9 6 3 1 0 0 0 0 0 0 0 0 0 0 0 0 0 0 0 0 0 0
0 0 0 0 0 2 6 12 17 21 23 20 15 14 15 17 15 13 12 12 12 11 15 22 23 19 12 7 5 3 1 0 0 0 0 0 0 0 0 0 0 0 0 0 0 0 0 0 0
0 0 0 0 1 3 6 9 11 13 13 9 7 9 12 16 16 14 11 11 9 7 10 16 18 15 9 5 4 3 1 0 0 0 0 0 0 0 0 0 0 0 0 0 0 0 0 0 0
0 0 0 0 1 2 3 3 5 7 7 5 4 5 9 14 17 16 12 10 7 6 8 11 13 10 6 4 3 2 1 0 0 0 0 0 0 0 0 0 0 0 0 0 0 0 0 0 0
0 0 0 0 0 0 0 1 2 3 3 3 3 3 4 8 14 15 13 9 6 5 6 8 9 7 4 2 3 2 1 0 0 0 0 0 0 0 0 0 0 0 0 0 0 0 0 0 0
0 0 0 0 0 0 0 0 1 1 2 2 2 1 1 3 8 12 11 8 6 5 6 7 7 5 2 1 1 1 0 0 0 0 0 0 0 0 0 0 0 0 0 0 0 0 0 0 0
0 0 0 0 0 0 0 0 0 0 1 1 1 0 0 2 5 8 8 7 6 6 6 6 5 3 1 0 0 0 0 0 0 0 0 0 0 0 0 0 0 0 0 0 0 0 0 0 0
0 0 0 0 0 0 0 0 0 0 0 0 0 0 1 2 4 7 8 7 7 7 6 5 4 3 1 0 0 0 0 0 0 0 0 0 0 0 0 0 0 0 0 0 0 0 0 0 0
0 0 0 0 0 0 0 0 0 0 0 0 0 0 1 2 3 5 7 7 6 6 6 6 4 2 1 0 0 0 0 0 0 0 0 0 0 0 0 0 0 0 0 0 0 0 0 0 0
0 0 0 0 0 0 0 0 0 0 0 0 0 1 1 1 2 2 4 4 4 4 6 7 6 3 1 0 0 0 0 0 0 0 0 0 0 0 0 0 0 0 0 0 0 0 0 0 0
0 0 0 0 0 0 0 0 0 0 0 0 0 0 0 0 0 0 1 2 2 4 7 9 8 5 2 0 0 0 0 0 0 0 0 0 0 0 0 0 0 0 0 0 0 0 0 0 0
1 1 0 0 0 0 0 0 0 0 0 0 0 0 0 0 0 0 1 2 4 6 9 10 9 6 3 1 0 0 1 1 1 1 0 0 0 0 0 0 0 0 0 0 0 0 0 0 0
2 2 1 0 0 0 0 0 0 0 0 0 0 0 0 0 0 0 1 4 6 9 11 11 9 7 5 2 1 1 2 2 2 2 1 0 0 0 0 0 0 0 0 0 0 0 0 0 0

GEFSSGP_con_probscp_084.txt.gz
Probability
0 0 0 0 0 0 0 0 0 0 0 1 2 4 3 3 2 1 1 2 5 10 11 13 15 13 9 6 3 2 1 0 0 0 0 0 0 0 0 0 0 0 0 0 0 0 0 0 0
0 0 0 0 0 0 0 0 0 0 0 2 5 5 5 4 3 3 2 3 8 13 13 13 15 15 12 7 4 3 1 0 0 0 0 0 0 0 0 0 0 0 0 0 0 0 0 0 0
0 0 0 0 0 0 0 0 1 1 1 5 8 7 5 5 4 4 4 6 12 16 15 14 16 16 12 7 4 3 1 0 0 0 0 0 0 0 0 0 0 0 0 0 0 0 0 0 0
0 0 0 0 0 0 0 1 3 5 5 8 11 9 6 5 5 8 11 14 17 18 16 15 17 16 10 6 3 1 0 0 0 0 0 0 0 0 0 0 0 0 0 0 0 0 0 0 0
0 0 0 0 0 0 0 1 5 9 11 14 15 12 8 8 12 17 21 23 25 26 24 21 20 17 10 4 2 1 0 0 0 0 0 0 0 0 0 0 0 0 0 0 0 0 0 0 0
0 0 0 0 0 0 0 1 5 11 16 20 19 15 13 16 23 27 26 26 31 38 39 32 25 17 9 5 2 1 0 0 0 0 0 0 0 0 0 0 0 0 0 0 0 0 0 0 0
0 0 0 0 0 0 0 2 7 14 21 25 23 18 16 21 29 31 28 28 36 47 52 47 34 21 12 6 3 1 0 0 0 0 0 0 0 0 0 0 0 0 0 0 0 0 0 0 0
0 0 0 0 0 1 2 3 10 19 25 27 25 18 19 28 35 36 35 38 46 53 57 55 47 33 20 9 3 1 0 0 0 0 0 0 0 0 0 0 0 0 0 0 0 0 0 0 0
0 0 0 0 1 2 2 6 15 24 30 31 27 22 30 44 49 46 46 50 54 56 56 54 51 41 26 14 6 2 1 0 0 0 0 0 0 0 0 0 0 0 0 0 0 0 0 0 0
0 0 0 0 1 1 2 6 18 29 34 35 34 37 48 59 59 52 50 52 52 52 52 49 47 40 28 16 8 3 2 0 0 0 0 0 0 0 0 0 0 0 0 0 0 0 0 0 0
0 0 0 0 0 0 1 6 18 27 28 31 41 53 63 64 59 51 47 46 46 49 49 45 43 38 27 16 10 6 2 0 0 0 0 0 0 0 0 0 0 0 0 0 0 0 0 0 0
0 0 0 0 0 0 1 5 12 16 17 25 44 62 67 64 57 50 43 39 41 46 47 44 42 37 26 17 12 8 4 1 0 0 0 0 0 0 0 0 0 0 0 0 0 0 0 0 0
0 0 0 0 0 1 2 4 7 9 15 31 51 63 64 61 56 48 40 34 35 40 41 41 40 34 24 17 13 9 6 2 0 0 0 0 0 0 0 0 0 0 0 0 0 0 0 0 0
0 0 0 0 0 1 2 3 5 10 26 46 58 60 58 55 51 45 36 27 26 30 33 34 33 28 20 15 12 9 6 2 0 0 0 0 0 0 0 0 0 0 0 0 0 0 0 0 0
0 0 0 0 0 0 1 1 4 15 34 50 56 53 48 45 43 39 30 21 17 19 23 25 25 21 14 11 9 7 4 1 0 0 0 0 0 0 0 0 0 0 0 0 0 0 0 0 0
0 0 0 0 0 0 0 1 5 18 35 44 45 42 38 34 31 29 25 18 12 10 12 16 19 16 11 7 5 4 2 1 0 0 0 0 0 0 0 0 0 0 0 0 0 0 0 0 0
0 0 0 0 0 0 0 2 8 20 30 33 32 31 28 24 20 18 18 15 9 5 7 11 13 13 9 4 2 2 1 1 0 0 0 0 0 0 0 0 0 0 0 0 0 0 0 0 0
0 0 0 0 0 0 1 3 10 18 22 21 21 20 19 17 13 12 14 12 7 4 6 8 10 9 6 3 1 0 1 1 0 0 0 0 0 0 0 0 0 0 0 0 0 0 0 0 0
0 0 0 0 0 0 1 3 7 12 13 12 12 12 12 11 10 9 12 11 6 3 4 6 7 6 5 2 1 0 1 1 0 0 0 0 0 0 0 0 0 0 0 0 0 0 0 0 0
0 0 0 0 0 0 0 1 4 6 6 6 7 7 6 6 7 8 10 11 7 4 3 5 5 5 4 2 0 0 0 0 0 0 0 0 0 0 0 0 0 0 0 0 0 0 0 0 0
0 0 0 0 0 0 0 0 1 2 2 2 3 3 2 2 4 6 8 10 8 4 3 3 4 4 3 1 0 0 0 0 0 0 0 0 0 0 0 0 0 0 0 0 0 0 0 0 0
0 0 0 0 0 0 0 0 0 0 0 0 0 0 0 0 1 2 4 6 6 3 2 2 3 3 2 1 0 1 0 0 0 0 0 0 0 0 0 0 0 0 0 0 0 0 0 0 0
0 0 0 0 0 0 0 0 0 0 0 0 0 0 0 0 0 0 1 3 3 2 1 2 3 2 1 0 0 0 0 0 0 0 0 0 0 0 0 0 0 0 0 0 0 0 0 0 0
0 0 0 0 0 0 0 0 0 0 0 0 0 0 0 0 0 0 1 2 1 1 0 1 2 1 0 0 0 0 0 0 0 0 0 0 0 0 0 0 0 0 0 0 0 0 0 0 0
0 0 0 0 0 0 0 0 0 0 0 0 0 0 0 0 0 1 2 2 1 0 0 1 1 1 0 0 0 0 0 0 0 0 0 0 0 0 0 0 0 0 0 0 0 0 0 0 0
0 0 0 0 0 0 0 0 0 0 0 0 0 0 0 0 0 1 2 2 1 0 0 1 1 1 0 0 0 0 0 0 0 0 0 0 0 0 0 0 0 0 0 0 0 0 0 0 0
0 0 0 0 0 0 0 0 0 0 0 0 0 0 0 0 0 0 1 1 0 0 0 1 2 2 1 0 0 0 0 0 0 0 0 0 0 0 0 0 0 0 0 0 0 0 0 0 0
0 0 0 0 0 0 0 0 0 0 0 0 0 0 0 0 0 0 0 0 0 0 0 1 2 2 1 0 0 0 0 0 0 0 0 0 0 0 0 0 0 0 0 0 0 0 0 0 0
0 0 0 0 0 0 0 0 0 0 0 0 0 0 0 0 0 0 0 0 0 0 0 0 1 2 2 1 0 0 0 0 0 0 0 0 0 0 0 0 0 0 0 0 0 0 0 0 0
0 0 0 0 0 0 0 0 0 0 0 0 0 0 0 0 0 0 0 0 0 0 0 1 1 2 2 1 0 0 0 0 0 0 0 0 0 0 0 0 0 0 0 0 0 0 0 0 0

GEFSSGP_con_probscp_090.txt.gz
Probability
0 0 0 0 0 0 0 0 0 0 0 0 0 0 0 0 0 0 0 0 1 8 12 7 3 3 2 1 0 0 0 0 0 0 0 0 0 0 0 0 0 0 0 0 0 0 0 0 0
0 0 0 0 0 0 0 0 0 0 0 0 0 0 0 0 0 0 0 0 2 7 11 8 4 3 3 1 0 0 0 0 0 0 0 0 0 0 0 0 0 0 0 0 0 0 0 0 0
0 0 0 0 0 0 0 0 0 0 0 0 0 0 0 0 1 0 1 2 3 7 11 11 7 4 3 2 2 2 1 0 0 0 0 0 0 0 0 0 0 0 0 0 0 0 0 0 0
0 0 0 0 0 0 0 0 0 0 1 2 1 0 1 1 1 0 1 3 5 7 11 13 10 5 4 3 3 3 2 1 0 0 0 0 0 0 0 0 0 0 0 0 0 0 0 0 0
0 0 0 0 0 0 0 0 0 1 2 2 2 1 2 3 3 3 4 5 6 6 10 14 12 6 5 4 3 3 2 1 0 0 0 0 0 0 0 0 0 0 0 0 0 0 0 0 0
0 0 0 0 0 0 0 1 1 1 1 2 2 3 6 8 9 9 9 7 6 5 9 14 11 6 5 5 3 2 2 1 0 0 0 0 0 0 0 0 0 0 0 0 0 0 0 0 0
0 0 0 0 0 0 0 1 1 0 1 3 3 5 11 16 18 16 13 9 7 6 10 14 11 5 4 3 3 2 1 0 0 0 0 0 0 0 0 0 0 0 0 0 0 0 0 0 0
0 0 0 0 0 0 0 1 1 1 3 4 4 6 19 32 35 28 22 16 12 9 12 15 13 7 3 1 2 2 1 0 0 0 0 0 0 0 0 0 0 0 0 0 0 0 0 0 0
0 0 0 0 0 0 0 1 1 2 4 6 8 14 34 54 55 47 40 32 25 19 17 17 16 12 7 3 2 1 0 0 0 0 0 0 0 0 0 0 0 0 0 0 0 0 0 0 0
0 0 0 0 0 0 0 1 2 2 5 9 15 29 53 68 67 59 53 48 41 33 26 21 18 16 13 10 7 5 3 1 0 0 0 0 0 0 0 0 0 0 0 0 0 0 0 0 0
0 0 0 0 0 0 0 1 1 2 5 10 19 40 63 72 68 61 56 53 49 43 35 27 24 21 20 19 16 13 8 3 0 0 0 0 0 0 0 0 0 0 0 0 0 0 0 0 0
0 0 0 0 0 0 0 0 1 3 6 10 21 43 62 67 64 59 55 52 49 46 40 34 33 34 33 31 26 19 10 4 1 0 0 0 0 0 0 0 0 0 0 0 0 0 0 0 0
0 0 0 0 0 0 0 0 2 5 6 11 25 44 57 60 57 54 52 49 47 46 44 41 44 47 47 42 32 20 10 5 2 0 0 0 0 0 0 0 0 0 0 0 0 0 0 0 0
0 0 0 0 0 0 0 1 4 7 8 14 29 41 49 51 51 50 49 46 45 46 47 49 51 53 51 44 32 21 11 5 3 1 0 0 1 1 0 0 0 0 0 0 0 0 0 0 0
0 0 0 0 0 0 0 3 8 9 10 18 27 34 39 45 48 47 44 39 39 42 46 49 52 52 49 42 33 23 13 7 5 3 1 1 2 2 1 0 0 0 0 0 0 0 0 0 0
0 0 0 0 0 0 0 5 11 10 10 17 23 25 31 38 42 39 34 29 29 33 37 44 50 51 49 46 39 27 17 12 9 6 3 1 2 2 1 0 0 0 0 0 0 0 0 0 0
0 0 0 0 0 0 0 4 9 7 6 12 18 19 24 29 30 28 24 21 23 25 30 40 50 53 51 50 44 31 21 16 11 7 4 2 2 1 0 0 0 0 0 0 0 0 0 0 0
0 0 0 0 0 0 0 3 6 5 5 10 15 16 18 20 20 19 17 16 19 22 26 35 46 53 52 48 42 33 24 17 11 7 5 3 2 1 0 0 0 0 0 0 0 0 0 0 0
0 0 0 0 0 0 0 1 3 5 6 10 12 13 14 15 14 14 14 13 15 19 23 27 34 44 48 44 38 33 24 14 7 5 4 3 2 1 0 0 0 0 0 0 0 0 0 0 0
0 0 0 0 0 0 0 1 3 5 6 7 7 8 9 10 11 13 13 13 13 14 17 20 24 31 39 39 35 30 21 10 5 4 3 3 2 1 0 0 0 0 0 0 0 0 0 0 0
0 0 0 0 0 0 0 2 4 6 6 4 3 3 4 5 6 10 11 11 10 10 12 15 18 23 28 30 28 23 15 7 3 3 3 2 1 0 0 0 0 0 0 0 0 0 0 0 0
0 0 0 0 0 0 0 1 3 5 6 4 3 2 2 1 2 4 7 8 7 7 9 12 16 20 21 21 19 15 10 6 4 3 3 2 2 1 0 0 0 0 0 0 0 0 0 0 0
0 0 0 0 0 0 0 0 1 3 4 3 3 3 2 1 0 0 2 4 4 5 7 10 13 15 16 14 13 12 9 7 5 4 4 3 2 1 0 0 0 0 0 0 0 0 0 0 0
0 0 0 0 0 0 0 0 0 1 1 2 3 2 2 2 1 0 0 1 2 4 5 7 9 10 10 9 9 10 10 7 5 3 3 3 2 1 0 0 0 0 0 0 0 1 0 0 0
0 0 0 0 0 0 0 0 0 0 0 1 1 2 2 3 2 1 0 0 2 3 4 4 5 6 6 6 6 7 7 6 4 3 3 3 2 0 0 0 0 0 0 0 0 0 0 0 0
0 0 0 0 0 0 0 0 0 0 0 0 1 2 3 5 5 3 1 1 1 2 4 3 2 3 4 4 4 4 5 5 4 3 3 2 1 0 0 1 1 1 0 0 0 0 0 0 0
0 0 0 0 0 0 0 0 0 0 0 0 1 3 5 7 7 5 4 2 1 2 3 3 2 1 2 2 3 3 3 3 4 4 3 1 1 0 0 1 2 2 1 1 0 0 0 0 0
0 0 0 0 0 0 0 0 0 1 0 0 1 4 6 7 7 6 5 3 2 2 3 3 3 2 1 1 1 1 1 2 4 5 4 1 0 0 0 1 2 2 2 1 0 0 0 0 0
0 0 0 0 0 0 0 0 0 0 0 0 1 4 8 9 8 7 6 4 2 2 3 3 3 3 2 1 0 0 1 2 4 5 4 3 2 1 1 0 1 2 2 2 1 1 0 0 0
0 0 0 0 0 0 0 0 0 0 0 0 1 5 10 11 8 7 7 5 3 2 3 3 3 3 3 2 1 1 1 2 4 5 4 4 3 3 2 1 1 2 3 2 2 2 1 0 0

GEFSSGP_con_probscp_096.txt.gz
Probability
1 4 7 9 8 6 2 0 0 0 0 0 0 0 0 1 2 1 6 26 45 39 30 30 29 19 7 1 0 0 0 0 0 0 0 0 0 0 0 0 0 0 0 0 0 0 0 0 0
1 3 6 7 7 4 1 0 0 0 0 0 0 0 1 2 3 4 12 31 41 32 25 28 30 21 10 3 1 0 0 0 0 0 0 0 0 0 0 0 0 0 0 0 0 0 0 0 0
0 1 3 4 4 2 0 0 0 0 0 0 0 1 3 4 4 7 19 35 38 27 23 27 30 24 14 6 2 1 0 0 0 0 0 0 0 0 0 0 0 0 0 0 0 0 0 0 0
0 0 1 2 2 1 0 0 0 0 0 0 0 4 9 9 8 10 20 34 40 35 27 26 27 24 15 7 3 2 1 0 0 0 0 0 0 0 0 0 0 0 0 0 0 0 0 0 0
0 0 0 0 0 0 0 0 0 0 0 0 1 8 16 16 14 13 19 34 47 47 35 25 26 24 16 7 4 3 2 1 0 0 0 0 0 0 0 0 0 0 0 0 0 0 0 0 0
0 0 0 0 0 0 0 0 0 0 1 1 2 11 23 25 20 15 19 35 49 53 41 26 23 23 16 8 5 4 2 1 0 0 0 0 0 0 0 0 0 0 0 0 0 0 0 0 0
0 0 1 0 0 0 0 0 0 0 1 2 2 14 32 35 25 17 21 34 48 53 41 24 18 18 14 9 6 5 3 1 0 0 0 0 0 0 0 0 0 0 0 0 0 0 0 0 0
0 0 0 0 0 0 0 0 0 1 2 3 4 19 41 44 31 23 26 37 47 48 37 21 16 16 12 7 6 5 3 1 0 0 0 0 0 0 0 0 0 0 0 0 0 0 0 0 0
0 0 0 0 0 0 0 0 0 2 6 9 13 31 51 52 40 35 38 45 50 47 35 22 18 18 12 5 4 4 3 2 1 0 0 0 0 0 0 0 0 0 0 0 0 0 0 0 0
0 0 0 0 0 0 0 0 0 3 9 16 26 46 61 59 52 50 51 54 56 52 39 30 25 20 14 9 6 4 4 3 1 0 0 0 0 0 0 1 0 0 0 0 0 0 0 0 0
0 0 0 0 0 0 0 0 0 3 9 18 34 55 67 65 59 56 55 57 58 55 47 40 34 26 20 17 11 6 5 4 2 1 0 0 0 0 0 0 0 0 0 0 0 0 0 0 0
0 0 0 0 0 0 0 1 2 5 10 16 31 54 69 67 58 53 54 57 58 58 55 52 47 40 35 30 20 12 8 6 5 3 2 1 1 0 0 0 0 0 0 0 0 0 0 0 0
0 0 0 0 0 0 0 1 4 7 11 17 29 50 66 67 57 53 56 60 62 62 61 62 60 56 53 45 31 19 12 9 10 8 5 3 2 1 0 1 1 0 0 0 0 0 0 0 0
0 0 0 0 0 0 0 2 6 12 15 20 32 48 63 67 61 59 63 67 67 65 63 62 63 63 62 54 38 24 15 11 13 12 8 5 4 3 2 1 1 0 0 0 0 0 0 0 0
0 0 0 0 0 0 0 3 10 16 19 24 35 49 62 67 63 64 69 71 69 66 60 57 56 59 61 54 41 27 17 14 17 17 13 9 7 5 3 1 1 0 0 0 0 0 0 0 0
0 0 0 0 0 0 1 6 13 16 19 28 39 51 61 65 61 62 68 70 68 64 59 54 51 52 55 53 46 35 25 23 25 22 17 13 11 8 4 1 0 0 0 0 0 0 0 0 0
0 0 0 0 0 0 1 6 12 14 17 27 42 54 62 63 59 59 65 66 63 60 57 53 50 49 50 52 50 43 37 35 32 27 21 17 14 10 4 1 1 0 0 0 0 0 0 0 0
0 0 0 0 0 0 1 5 11 14 16 27 44 58 62 59 57 57 60 59 56 53 51 50 49 48 47 48 50 47 43 39 35 30 24 17 14 10 5 2 2 1 0 0 1 0 0 0 0
0 0 0 0 0 0 1 4 12 16 18 28 45 57 59 56 56 58 56 50 47 47 47 46 47 46 45 45 48 48 44 38 34 29 22 16 12 9 5 3 3 2 1 1 1 0 0 0 0
0 0 0 0 0 0 1 5 12 18 19 23 38 52 56 56 59 61 54 44 40 42 43 44 44 42 41 42 44 47 45 37 30 24 19 14 10 8 6 5 4 3 2 2 1 0 0 0 0
0 0 0 0 0 0 1 5 12 17 18 20 30 44 51 53 59 59 52 42 38 40 42 41 38 35 35 36 38 39 37 30 24 20 16 11 8 8 7 6 6 5 4 3 1 0 0 0 0
0 0 0 0 0 0 0 3 8 12 16 22 31 37 41 45 49 51 47 39 36 37 40 38 33 30 31 32 31 30 25 21 19 17 13 9 6 6 7 7 6 6 5 3 1 0 0 0 0
0 0 0 0 0 0 0 1 3 5 11 23 33 34 32 33 36 40 40 34 29 29 33 34 32 30 30 29 28 25 21 19 16 13 11 7 4 3 4 6 6 5 4 2 1 1 1 1 1
0 0 0 0 0 0 0 0 0 1 6 19 31 34 29 27 29 32 32 27 22 21 23 27 30 30 28 26 25 24 23 20 16 12 9 6 2 1 3 5 6 5 4 2 1 2 2 1 0
0 0 0 0 1 0 0 0 0 1 3 13 26 31 26 24 27 28 26 22 18 17 17 20 25 27 25 22 20 22 24 20 15 12 9 5 2 2 4 5 6 6 5 3 1 1 1 1 1
0 0 0 0 0 0 0 1 1 1 3 8 19 25 21 20 24 25 22 20 17 14 13 16 20 22 21 17 15 18 19 16 13 12 11 7 5 6 7 7 7 7 5 2 0 1 1 2 3
0 0 0 0 0 0 1 1 1 2 3 6 14 20 20 19 22 22 19 19 17 13 13 15 17 18 17 15 12 12 12 12 11 13 14 13 12 11 9 7 7 6 4 1 0 1 2 3 5
0 0 0 0 0 0 0 1 2 3 4 5 12 22 25 23 23 22 20 18 16 14 14 16 15 15 15 13 9 8 9 10 10 12 14 16 17 15 10 7 6 5 4 2 1 1 1 3 4
0 0 0 0 0 0 0 0 2 2 2 4 12 24 30 27 26 26 24 19 15 13 13 13 12 12 12 11 9 8 8 9 10 11 13 16 18 17 13 10 7 6 4 3 2 1 1 2 4
0 0 0 0 0 0 0 1 1 1 1 2 11 26 33 31 30 30 28 22 16 13 12 10 9 10 10 10 9 9 10 10 11 12 14 16 18 17 14 12 9 7 6 4 2 1 1 2 4

GEFSSGP_con_probscp_102.txt.gz
Probability
0 0 0 0 0 0 0 0 0 0 1 1 2 4 5 3 1 0 1 4 8 10 8 10 14 13 7 2 0 0 0 0 0 0 0 0 0 0 0 0 0 0 0 0 0 0 0 0 0
0 0 0 0 0 0 0 0 0 0 2 4 4 4 5 3 2 1 4 11 16 16 13 14 19 17 10 4 1 0 0 0 0 0 0 0 0 0 0 0 0 0 0 0 0 0 0 0 0
0 0 0 0 0 0 0 0 1 3 7 9 8 7 5 5 7 8 13 22 26 24 21 23 26 23 15 8 2 0 0 0 0 0 0 0 0 0 0 0 0 0 0 0 0 0 0 0 0
0 0 0 0 0 0 0 1 3 7 11 16 16 12 8 11 19 25 27 31 33 30 28 29 31 28 20 11 4 1 0 0 0 0 0 0 0 0 0 0 0 0 0 0 0 0 0 0 0
0 0 0 0 0 0 0 1 5 10 15 22 26 21 16 23 39 44 38 36 37 36 32 31 32 30 24 14 6 1 0 0 0 0 0 0 0 0 0 0 0 0 0 0 0 0 0 0 0
0 0 0 0 0 0 0 1 5 12 18 25 33 31 26 37 53 51 39 35 39 41 36 31 29 27 23 16 8 2 0 0 0 0 0 0 0 0 0 0 0 0 0 0 0 0 0 0 0
0 0 0 0 0 0 0 1 4 10 16 24 35 38 36 43 51 49 38 35 38 42 39 32 26 22 19 14 8 3 1 0 0 0 0 0 0 0 0 0 0 0 0 0 0 0 0 0 0
0 0 0 0 0 0 0 0 4 10 15 21 33 41 42 45 50 49 42 35 33 34 34 31 26 20 14 9 6 4 2 1 0 0 0 0 0 0 0 0 0 0 0 0 0 0 0 0 0
0 0 0 0 0 0 0 1 5 12 19 26 38 48 50 52 56 54 46 36 27 22 24 25 23 18 12 8 6 4 3 1 0 0 0 0 0 0 0 0 0 0 0 0 0 0 0 0 0
0 0 0 0 0 0 0 1 6 14 24 36 50 58 60 60 60 57 48 37 25 17 16 18 18 15 12 9 8 6 4 2 1 0 0 0 0 0 0 0 0 0 0 0 0 0 0 0 0
0 0 0 0 0 0 0 1 5 11 23 40 54 61 60 58 57 54 47 35 24 16 13 14 14 12 9 9 9 7 4 2 1 0 0 0 0 0 0 0 0 0 0 0 0 0 0 0 0
0 0 0 0 0 0 0 0 3 7 19 39 54 57 55 52 49 48 42 33 21 15 14 14 13 10 7 7 6 5 3 2 1 0 0 0 0 0 0 0 0 0 0 0 0 0 0 0 0
0 0 0 0 0 0 0 1 3 7 20 42 55 56 53 49 44 41 38 33 23 16 16 15 12 9 7 5 4 2 2 2 1 0 0 0 0 0 0 0 0 0 0 0 0 0 0 0 0
0 0 0 0 0 0 0 1 4 10 25 45 56 57 53 50 46 42 40 37 28 20 17 14 10 10 9 6 2 1 1 1 0 0 0 0 0 0 0 0 0 0 0 0 0 0 0 0 0
0 0 0 0 0 0 0 1 4 13 29 47 56 58 56 53 49 46 44 41 32 24 20 16 12 12 12 9 4 1 0 0 1 1 1 0 0 0 0 0 0 0 0 0 0 0 0 0 0
0 0 0 0 0 0 0 1 5 13 29 46 56 61 61 57 51 47 45 41 34 28 25 22 18 16 14 11 7 4 3 2 3 3 2 0 0 0 0 0 0 0 0 0 0 0 0 0 0
0 0 0 0 0 0 0 1 5 14 29 44 55 65 68 61 52 47 44 40 34 30 28 25 21 17 14 12 11 11 8 7 7 5 2 1 0 0 0 0 0 0 0 0 0 0 0 0 0
0 0 0 0 0 0 0 1 4 14 29 43 54 65 69 63 55 50 47 41 34 30 28 26 22 17 12 11 13 15 14 11 10 7 4 2 1 0 0 0 0 0 0 0 0 0 0 0 0
0 0 0 0 0 0 0 1 4 13 28 41 49 56 61 62 58 53 48 41 34 30 28 27 23 17 12 11 14 16 15 12 10 9 6 4 2 0 0 0 0 0 0 0 0 0 0 0 0
0 0 0 0 0 0 0 2 4 11 24 34 38 44 52 58 57 52 46 40 33 29 28 27 22 16 12 11 12 13 12 9 9 9 7 4 1 0 0 0 0 0 0 0 0 0 0 0 0
0 0 0 0 0 0 0 1 1 6 15 22 25 33 44 51 51 45 40 36 32 27 26 24 19 14 11 10 9 8 7 6 6 7 5 3 1 1 1 1 1 0 0 0 0 0 0 0 0
0 0 0 0 0 0 0 0 0 4 10 14 16 24 34 42 42 38 35 33 30 26 22 19 15 12 10 9 7 5 4 3 4 4 2 1 1 3 3 3 2 1 0 0 0 0 0 0 0
0 0 0 0 0 0 0 0 0 3 7 9 12 15 22 30 34 32 30 29 28 25 19 15 12 10 9 7 5 3 1 2 3 2 1 0 1 3 4 3 2 1 0 0 0 0 0 0 0
0 0 0 0 0 0 0 0 0 1 3 5 7 10 14 21 26 26 25 24 23 21 17 13 11 8 6 5 3 1 1 2 2 1 0 0 0 1 2 2 1 0 0 0 0 0 0 0 0
0 0 0 0 0 0 0 0 0 0 2 3 5 6 9 13 18 20 20 19 17 16 14 12 10 7 4 3 3 1 1 2 2 1 0 0 0 0 0 0 0 0 0 0 0 0 0 0 0
0 0 0 0 0 0 0 0 0 2 4 6 6 5 6 9 12 16 16 15 13 13 13 12 9 6 4 3 3 2 1 1 1 0 0 0 0 0 0 0 0 0 0 0 0 0 0 0 0
0 0 0 0 0 0 0 0 1 3 6 7 6 6 7 8 10 12 12 11 11 12 12 9 6 3 2 3 3 2 1 0 0 0 0 0 0 0 0 0 0 0 0 0 0 0 0 0 0
0 0 0 0 0 0 0 0 1 2 4 4 4 6 9 11 11 10 9 8 8 9 8 6 3 1 1 2 3 2 1 0 0 0 0 0 0 0 0 0 0 0 0 0 0 0 0 0 0
0 0 0 0 0 0 0 0 0 1 2 2 3 6 11 14 14 12 9 7 6 5 4 3 2 1 1 2 3 3 1 0 0 0 0 0 0 0 0 0 0 0 0 0 0 0 0 0 0
0 0 0 0 0 0 0 0 0 0 0 2 4 7 12 15 16 15 11 7 5 4 3 2 2 2 2 2 3 3 2 1 0 0 0 0 0 0 0 0 0 0 0 0 0 0 0 0 0

GEFSSGP_con_probscp_108.txt.gz
Probability
0 0 0 0 0 0 0 0 0 0 0 0 0 0 0 0 1 2 3 4 5 5 4 5 7 7 5 3 2 1 0 0 0 0 0 0 0 0 0 0 0 0 0 0 0 0 0 0 0
0 0 0 0 0 0 0 0 0 0 1 1 0 0 0 0 1 3 4 6 8 8 7 8 11 12 8 4 2 0 0 0 0 0 0 0 0 0 0 0 0 0 0 0 0 0 0 0 0
0 0 0 0 0 0 0 0 0 1 2 3 2 1 0 0 1 4 8 12 16 15 12 13 17 18 14 8 3 1 1 0 0 0 0 0 0 0 0 0 0 0 0 0 0 0 0 0 0
0 0 0 0 0 0 0 0 1 2 3 5 7 6 3 1 3 10 19 24 25 21 16 17 22 24 21 13 6 2 1 0 0 0 0 0 0 0 0 0 0 0 0 0 0 0 0 0 0
0 0 0 0 0 0 0 0 1 3 6 9 13 13 9 8 14 25 33 35 32 27 20 21 26 29 25 16 8 3 1 0 0 0 0 0 0 0 0 0 0 0 0 0 0 0 0 0 0
0 0 0 0 0 0 0 1 3 6 11 16 19 19 16 17 27 38 42 40 37 34 29 26 29 29 24 17 10 4 1 0 0 0 0 0 0 0 0 0 0 0 0 0 0 0 0 0 0
0 0 0 0 0 0 0 1 4 8 14 20 25 25 22 25 35 45 46 41 39 39 37 32 27 26 23 17 11 5 2 0 0 0 0 0 0 0 0 0 0 0 0 0 0 0 0 0 0
0 0 0 0 0 0 0 1 4 9 15 21 27 30 30 36 46 51 50 44 39 38 39 35 29 26 22 15 9 5 2 1 0 0 0 0 0 0 0 0 0 0 0 0 0 0 0 0 0
0 0 0 0 0 0 0 1 4 10 18 23 29 35 44 55 60 57 52 45 37 33 34 33 29 25 22 15 8 4 2 1 0 0 0 0 0 0 0 0 0 0 0 0 0 0 0 0 0
0 0 0 0 0 0 0 1 3 11 20 27 34 47 61 68 65 56 48 41 34 28 25 23 21 20 20 16 11 7 3 1 0 0 0 0 0 0 0 0 0 0 0 0 0 0 0 0 0
0 0 0 0 0 0 0 1 3 7 15 24 37 55 68 70 62 49 39 34 29 25 20 16 14 14 15 17 15 10 5 1 0 0 0 0 0 0 0 0 0 0 0 0 0 0 0 0 0
0 0 0 0 0 0 0 0 2 4 9 19 34 52 63 64 55 41 30 26 24 22 20 17 13 11 12 14 15 12 6 1 0 0 0 0 0 0 0 0 0 0 0 0 0 0 0 0 0
0 0 0 0 0 0 0 0 1 3 8 18 31 43 52 54 47 33 23 20 20 20 19 18 15 13 11 12 13 12 6 1 0 0 0 0 0 0 0 0 0 0 0 0 0 0 0 0 0
0 0 0 0 0 0 0 0 0 3 10 17 24 31 38 44 42 32 23 20 19 18 18 17 16 13 10 10 11 10 5 1 0 0 0 0 0 0 0 0 0 0 0 0 0 0 0 0 0
0 0 0 0 0 0 0 0 1 4 11 15 16 21 28 35 36 33 28 24 20 18 17 17 16 13 10 8 8 6 3 0 0 0 0 0 0 0 0 0 0 0 0 0 0 0 0 0 0
0 0 0 0 0 0 0 0 1 6 12 14 14 18 23 27 30 31 30 27 22 18 17 17 15 13 10 7 6 3 1 0 0 0 0 0 0 0 0 0 0 0 0 0 0 0 0 0 0
0 0 0 0 0 0 0 0 2 6 12 15 16 19 22 24 26 29 29 26 22 19 19 16 13 11 10 7 4 2 1 0 0 0 0 0 0 0 0 0 0 0 0 0 0 0 0 0 0
0 0 0 0 0 0 0 0 1 6 11 15 17 21 24 25 25 26 24 22 21 19 18 17 13 11 10 7 4 2 1 1 0 0 0 0 0 0 0 0 0 0 0 0 0 0 0 0 0
0 0 0 0 0 0 0 0 1 4 8 12 15 20 24 23 22 21 18 18 18 17 15 15 14 11 9 6 3 2 1 0 0 0 0 1 1 1 1 0 0 0 0 0 0 0 0 0 0
0 0 0 0 0 0 0 0 0 1 4 8 12 17 19 19 17 16 15 15 16 14 12 11 11 9 7 5 3 2 1 1 0 0 1 2 2 2 1 0 0 0 0 0 0 0 0 0 0
0 0 0 0 0 0 0 0 0 0 1 4 8 11 13 13 11 13 14 14 13 13 11 9 8 8 6 4 3 3 3 3 1 1 1 2 2 1 1 0 0 0 0 0 0 0 0 0 0
0 0 0 0 0 0 0 0 0 0 0 1 3 6 7 7 7 10 13 12 12 14 13 10 9 9 7 4 4 4 5 4 3 2 1 1 1 0 0 0 0 0 0 0 0 0 0 0 0
0 0 0 0 0 0 0 0 0 0 0 0 1 4 5 3 4 6 8 9 11 14 15 12 11 10 7 4 4 4 3 4 4 2 0 0 0 0 0 0 0 0 0 0 0 0 0 0 0
0 0 0 0 0 0 0 0 0 0 0 0 0 2 3 2 2 2 3 4 7 11 14 14 13 12 9 5 4 3 1 2 3 2 0 0 0 0 0 0 0 0 0 0 0 0 0 0 0
0 0 0 0 0 0 0 0 0 0 0 0 0 1 1 1 1 1 1 2 3 7 12 14 14 13 10 6 4 1 0 1 1 1 0 0 0 0 0 0 0 0 0 0 0 0 0 0 0
0 0 0 0 0 0 0 0 0 0 0 0 1 1 1 1 1 2 2 2 2 4 7 11 12 10 8 6 3 1 0 0 0 0 0 0 0 0 0 0 0 0 0 0 0 0 0 0 0
0 0 0 0 0 0 0 0 0 0 0 0 1 1 1 0 2 3 3 3 3 3 4 6 7 6 5 5 3 1 0 0 0 0 0 0 0 0 0 0 0 0 0 0 0 0 0 0 0
0 0 0 0 0 0 0 0 0 0 0 0 0 0 0 0 2 3 4 4 4 3 2 3 4 4 2 2 2 1 0 0 0 0 0 0 0 0 0 0 0 0 0 0 0 0 0 0 0
0 0 0 0 0 0 0 0 0 0 0 0 0 0 0 0 2 3 4 4 3 3 1 2 3 3 1 1 1 1 0 0 0 0 0 0 0 0 0 0 0 0 0 0 0 0 0 0 0
0 0 0 0 0 0 0 0 0 0 0 0 0 0 0 0 1 3 4 4 3 2 1 1 3 2 1 0 0 0 0 0 0 0 0 0 0 0 0 0 0 0 0 0 0 0 0 0 0

GEFSSGP_con_probscp_114.txt.gz
Probability
0 0 1 4 5 2 0 0 0 0 0 1 0 0 0 1 0 0 0 0 0 0 0 1 2 2 2 4 6 7 6 4 2 1 0 0 0 0 0 0 0 0 0 0 0 0 0 0 0
0 0 1 2 2 1 0 0 0 0 1 1 1 1 1 1 2 1 1 0 0 0 0 1 3 3 4 5 6 6 5 3 1 0 0 0 0 0 0 0 0 0 0 0 0 0 0 0 0
0 0 0 0 0 0 0 0 0 0 1 2 3 2 1 2 4 4 3 1 1 1 1 3 4 5 6 6 6 5 3 2 1 0 0 0 0 0 0 0 0 0 0 0 0 0 0 0 0
0 0 0 0 0 0 0 0 0 1 2 3 3 3 3 3 4 6 6 4 3 3 4 5 6 6 5 5 5 4 2 1 0 0 0 0 0 0 0 0 0 0 0 0 0 0 0 0 0
0 0 0 0 0 0 0 0 0 1 3 3 3 5 7 8 9 11 10 7 6 5 6 7 7 6 4 4 3 2 1 0 0 0 0 0 0 0 0 0 0 0 0 0 0 0 0 0 0
0 0 0 0 0 0 0 0 0 1 4 4 3 8 17 22 23 22 16 10 8 8 8 8 7 5 3 2 2 1 0 0 0 0 0 0 0 0 0 0 0 0 0 0 0 0 0 0 0
0 0 0 0 0 0 0 0 0 2 4 4 2 10 29 42 42 35 25 16 12 12 12 10 7 5 2 1 1 0 0 0 0 0 0 0 0 0 0 0 0 0 0 0 0 0 0 0 0
0 0 0 0 0 0 0 0 0 1 4 3 2 12 37 59 58 46 36 26 20 17 15 11 8 6 4 1 0 0 0 0 0 0 0 0 0 0 0 0 0 0 0 0 0 0 0 0 0
0 0 0 0 0 0 0 0 0 1 3 4 8 21 46 69 71 58 47 38 30 24 17 11 8 8 6 3 1 0 0 0 0 0 0 0 0 0 0 0 0 0 0 0 0 0 0 0 0
0 0 0 0 0 0 0 0 0 1 3 6 16 34 57 74 77 67 55 46 38 29 19 12 9 9 8 6 4 2 1 0 0 0 0 0 0 0 0 0 0 0 0 0 0 0 0 0 0
0 0 0 0 0 0 0 0 0 1 2 6 20 44 66 77 77 69 57 46 39 30 19 13 10 11 11 11 8 6 4 2 0 0 0 0 0 0 0 0 0 0 0 0 0 0 0 0 0
0 0 0 0 0 0 0 0 0 0 1 4 19 45 65 72 72 65 53 42 34 27 21 16 14 15 15 15 13 10 8 5 2 0 0 0 0 0 0 0 0 0 0 0 0 0 0 0 0
0 0 0 0 0 0 0 0 0 0 1 4 18 38 53 59 60 57 51 41 33 29 24 20 18 17 17 17 15 12 10 7 3 1 0 0 0 0 0 0 0 0 0 0 0 0 0 0 0
0 0 0 0 0 0 0 0 0 0 1 4 14 27 37 42 48 52 51 46 39 33 28 23 18 16 17 17 16 13 11 8 5 3 1 0 0 0 0 0 0 0 0 0 0 0 0 0 0
0 0 0 0 0 0 0 0 0 0 1 3 9 18 26 31 39 47 50 47 42 36 32 25 17 14 16 17 18 16 13 10 8 5 2 0 0 0 0 0 0 0 0 0 0 0 0 0 0
0 0 0 0 0 0 0 0 0 0 1 2 4 11 19 25 31 39 45 46 42 36 33 26 16 13 15 18 20 18 15 12 9 6 2 0 0 0 0 0 0 0 0 0 0 0 0 0 0
0 0 0 0 0 0 0 0 0 0 0 1 3 8 15 20 26 33 39 42 41 36 31 25 17 14 16 19 20 20 17 13 9 7 4 1 0 0 0 0 0 0 0 0 0 0 0 0 0
0 0 0 0 0 0 0 0 0 0 0 0 3 7 12 17 25 31 35 38 36 31 28 24 19 16 18 20 20 19 17 13 9 7 5 2 0 0 1 1 1 0 0 0 0 0 0 0 0
0 0 0 0 0 0 0 0 0 1 0 0 2 6 10 16 24 31 34 35 32 29 29 26 22 21 20 18 17 16 15 12 8 5 4 2 0 0 1 2 1 1 2 1 0 0 0 0 0
0 0 0 0 0 0 0 0 0 0 0 0 1 4 8 14 22 30 33 32 31 30 31 29 25 22 20 15 13 15 15 12 8 6 5 2 1 1 1 1 2 2 3 2 1 1 0 0 0
0 0 0 0 0 0 0 0 0 0 0 0 1 3 7 12 20 27 30 30 30 30 29 28 25 21 17 13 11 13 14 13 10 9 7 4 3 2 1 1 3 5 4 3 2 2 1 1 0
0 0 0 0 0 0 0 0 0 0 0 0 1 3 5 10 16 20 25 28 29 28 26 24 21 18 16 13 10 10 12 11 10 11 9 6 5 2 0 1 3 5 6 5 4 2 2 2 1
0 0 0 0 0 0 0 0 0 0 0 0 0 1 4 8 12 14 16 21 23 24 23 20 18 16 16 14 10 9 9 8 9 11 11 8 6 3 1 1 4 6 7 6 5 3 3 4 2
0 0 0 0 0 0 0 0 0 0 0 0 0 0 2 6 9 11 12 13 16 19 18 17 17 16 16 15 11 10 9 8 7 9 10 10 7 5 4 5 7 9 9 7 6 6 5 4 3
0 0 0 0 0 0 0 0 0 0 0 0 0 0 1 4 8 11 12 11 13 14 15 15 16 16 15 15 13 10 8 7 6 7 8 9 9 8 7 7 8 10 10 8 8 8 6 3 1
0 0 0 0 0 0 0 0 0 0 0 0 0 0 1 4 8 10 12 13 13 12 12 13 15 16 16 16 15 11 8 6 6 6 6 8 10 9 7 7 7 8 7 6 6 8 6 3 1
0 0 0 0 0 0 0 0 0 0 0 0 0 1 3 5 7 9 12 13 13 12 11 12 14 17 19 19 17 13 9 6 5 5 4 5 7 7 6 6 7 6 5 4 4 5 5 3 2
0 0 0 0 0 0 0 0 0 0 0 0 0 1 3 5 7 10 13 13 13 12 11 12 14 16 18 18 17 14 11 6 4 4 2 2 4 4 4 6 6 5 4 3 3 3 3 3 2
0 0 0 0 0 0 0 0 0 0 0 0 0 1 4 7 9 11 13 13 10 9 10 12 13 12 13 14 14 12 9 7 5 3 2 2 1 1 2 4 4 3 2 1 1 1 1 1 1
0 0 0 0 0 0 0 0 0 0 0 0 0 2 6 9 11 11 12 11 8 6 8 11 12 11 11 12 13 11 8 6 5 3 2 2 1 1 1 2 2 1 1 0 0 0 0 0 0

GEFSSGP_con_probscp_120.txt.gz
Probability
10 21 36 47 44 24 5 0 0 0 0 0 0 0 0 0 0 0 3 11 15 8 3 6 7 5 3 2 1 1 0 0 0 0 0 0 0 0 0 0 0 0 0 0 0 0 0 0 0
8 15 26 35 32 15 2 0 0 0 0 0 1 1 0 0 0 1 6 14 16 8 4 6 9 7 4 2 2 1 0 0 0 0 0 0 0 0 0 0 0 0 0 0 0 0 0 0 0
7 10 14 20 16 6 0 0 0 0 0 1 2 2 1 0 1 3 8 15 15 9 5 8 11 9 5 2 2 1 0 0 0 0 0 0 0 0 0 0 0 0 0 0 0 0 0 0 0
7 6 7 8 6 2 0 0 0 0 0 1 4 6 5 3 4 7 10 16 18 13 9 9 12 11 5 1 1 1 0 0 0 0 0 0 0 0 0 0 0 0 0 0 0 0 0 0 0
3 3 2 2 1 0 0 0 0 0 0 1 6 12 11 8 10 10 13 20 24 21 15 13 13 12 7 2 1 0 0 0 0 0 0 0 0 0 0 0 0 0 0 0 0 0 0 0 0
1 0 0 0 0 0 0 0 0 0 0 2 7 14 16 14 14 12 15 21 26 27 23 18 15 12 8 4 1 0 0 0 0 0 0 0 0 0 0 0 0 0 0 0 0 0 0 0 0
1 0 0 0 0 0 0 0 0 0 1 3 7 15 25 27 22 16 18 21 26 30 28 20 15 12 8 4 1 0 0 0 0 0 0 0 0 0 0 0 0 0 0 0 0 0 0 0 0
0 0 0 0 0 0 0 0 0 0 2 5 9 21 40 45 34 25 24 26 30 33 29 20 14 10 8 5 2 1 1 0 0 0 0 0 0 0 0 0 0 0 0 0 0 0 0 0 0
0 0 0 0 0 0 0 0 0 1 4 9 16 33 51 52 41 34 32 33 37 37 30 22 16 10 7 5 3 2 1 0 0 0 0 0 0 0 0 0 0 0 0 0 0 0 0 0 0
0 0 0 0 0 0 0 0 0 2 6 15 28 44 53 49 44 43 42 41 41 39 32 25 20 12 7 7 7 5 2 1 0 0 0 0 0 0 0 0 0 0 0 0 0 0 0 0 0
0 0 0 0 0 0 0 0 0 1 4 15 34 50 52 47 46 49 49 46 45 43 35 30 25 18 14 12 10 6 3 1 1 0 0 0 0 0 0 0 0 0 0 0 0 0 0 0 0
0 0 0 0 0 0 0 0 1 2 4 13 32 49 51 46 46 50 53 53 52 47 39 34 32 31 29 22 14 8 4 1 2 3 2 1 0 0 0 0 0 0 0 0 0 0 0 0 0
0 0 0 0 0 0 0 1 2 3 5 12 30 46 50 48 48 52 57 60 60 55 47 42 42 44 42 32 19 11 8 6 6 7 5 2 1 0 0 0 0 0 0 0 0 0 0 0 0
0 0 0 0 0 0 0 1 3 4 5 12 26 43 52 53 54 58 62 66 67 64 58 52 50 48 43 33 22 16 13 12 13 12 9 4 2 2 1 0 0 0 0 0 0 0 0 0 0
0 0 0 0 0 0 1 2 5 6 6 10 22 40 55 60 61 63 67 69 68 66 63 57 50 43 36 27 20 19 18 17 20 21 16 8 5 4 2 0 0 0 1 0 0 0 0 0 0
0 0 0 0 0 0 0 2 5 7 7 10 22 41 58 65 65 65 69 70 66 63 61 57 48 38 31 24 21 21 21 23 28 30 23 13 9 7 3 1 0 0 0 0 0 0 0 0 0
0 0 0 0 0 0 0 2 5 6 7 13 27 46 61 68 68 68 69 69 67 64 62 58 52 43 34 28 25 25 27 31 34 34 28 20 13 9 5 2 2 2 1 1 1 1 1 1 0
0 0 0 0 0 0 0 2 5 5 7 17 32 51 63 69 70 70 68 67 67 67 66 62 56 49 41 34 29 28 31 37 37 35 32 24 16 12 8 4 4 4 3 3 3 3 3 2 1
0 0 0 0 0 0 0 2 5 6 8 17 33 49 60 67 71 70 67 65 65 66 65 62 56 50 43 36 30 28 32 36 37 36 34 27 19 14 10 7 7 7 6 5 4 4 3 2 1
0 0 0 0 0 0 0 1 5 8 9 14 28 41 52 64 71 70 66 65 64 63 61 57 52 47 42 35 29 26 29 31 31 34 33 26 19 15 11 9 9 10 9 8 8 7 5 3 3
0 0 0 0 0 0 0 2 7 11 10 10 20 32 43 57 68 67 64 65 63 60 56 50 46 43 39 34 28 25 24 23 25 31 33 28 22 19 17 14 13 13 12 11 11 10 7 6 6
0 0 0 0 0 0 0 2 7 11 10 10 15 25 36 49 59 61 59 59 58 56 51 45 41 39 35 31 27 24 21 19 19 27 32 29 24 21 21 21 19 16 14 13 12 10 8 8 8
0 0 0 0 0 0 0 1 4 7 9 11 16 24 34 44 51 53 52 52 50 48 45 40 38 36 33 29 27 24 22 19 19 24 29 26 20 18 20 23 23 20 17 15 13 11 9 9 9
0 0 0 0 0 0 0 1 3 5 7 11 19 27 34 42 48 49 47 45 41 38 37 37 36 34 30 27 25 24 24 22 20 21 22 19 15 15 17 22 26 24 19 16 15 13 10 9 8
0 0 0 0 0 0 0 1 3 4 5 10 18 25 31 38 46 48 44 37 31 29 31 33 33 32 28 25 25 26 27 25 20 18 16 15 14 15 19 23 27 27 22 18 16 14 11 9 7
0 0 0 0 0 0 0 1 2 3 4 7 14 23 28 33 41 45 40 32 27 26 28 29 31 31 28 26 27 30 30 26 21 17 14 14 14 16 20 25 27 27 23 18 16 14 12 10 9
0 0 0 0 0 0 0 1 4 5 4 5 11 21 28 34 38 40 38 31 27 27 28 29 30 29 28 27 28 29 30 27 23 19 15 13 12 13 17 24 27 25 21 20 17 14 12 12 11
0 0 0 0 0 0 0 1 5 7 6 5 8 17 28 35 38 39 37 33 27 27 29 29 28 27 26 27 26 26 27 27 25 21 18 15 14 13 14 20 23 21 19 20 18 15 12 11 11
0 0 0 0 0 0 0 0 3 6 6 5 7 16 26 33 39 44 42 35 29 25 25 25 25 24 24 25 25 25 26 27 25 23 21 20 17 15 16 18 18 17 15 15 15 13 10 9 10
0 0 0 0 0 0 0 0 1 3 5 5 8 16 25 30 39 48 47 39 31 24 20 22 23 22 23 24 24 24 26 26 25 23 23 21 18 16 16 17 17 14 11 12 12 9 7 8 9

GEFSSGP_con_probscp_126.txt.gz
Probability
6 4 3 3 1 0 0 0 0 0 1 1 2 2 1 1 1 1 1 3 7 7 6 4 4 3 3 3 3 2 1 0 0 0 0 0 0 0 0 0 0 0 0 0 0 0 0 0 0
2 2 2 2 1 0 0 0 1 2 1 2 4 4 3 3 3 2 2 6 12 13 9 6 5 4 4 4 3 2 1 0 0 0 0 0 0 0 0 0 0 0 0 0 0 0 0 0 0
0 0 1 2 1 0 0 1 5 6 3 3 5 6 4 5 6 5 6 12 17 17 13 11 8 6 5 5 4 3 1 0 0 0 0 0 0 0 0 0 0 0 0 0 0 0 0 0 0
0 0 1 1 0 0 0 2 7 8 5 4 6 6 6 9 14 15 17 21 21 18 15 15 14 11 8 6 4 3 2 1 0 0 0 0 0 0 0 0 0 0 0 0 0 0 0 0 0
0 0 0 0 0 0 0 3 7 9 8 7 8 8 11 20 29 30 27 27 26 22 18 18 20 17 11 7 4 3 2 1 0 0 0 0 0 0 0 0 0 0 0 0 0 0 0 0 0
0 0 0 0 0 0 0 3 8 11 12 12 12 11 17 33 43 37 28 26 27 25 21 20 20 18 14 8 4 3 1 0 0 0 0 0 0 0 0 0 0 0 0 0 0 0 0 0 0
0 0 0 0 0 0 1 3 8 12 14 17 17 15 23 40 46 37 28 26 26 26 24 21 20 18 15 10 6 3 1 0 0 0 0 0 0 0 0 0 0 0 0 0 0 0 0 0 0
0 0 0 0 0 0 1 3 6 10 14 18 19 18 27 42 47 41 35 31 28 25 23 22 21 18 16 13 7 3 2 0 0 0 0 0 0 0 0 0 0 0 0 0 0 0 0 0 0
0 0 0 0 0 0 0 2 4 9 14 19 23 25 33 46 54 53 47 41 33 25 21 20 20 17 16 13 8 3 1 0 0 0 0 0 0 0 0 0 0 0 0 0 0 0 0 0 0
0 0 0 0 0 0 1 3 6 9 15 23 31 36 40 50 60 62 58 51 41 30 20 17 16 14 12 10 7 3 1 0 0 0 0 0 0 0 0 0 0 0 0 0 0 0 0 0 0
0 0 0 0 0 0 2 5 7 10 14 25 38 43 44 50 57 63 65 59 50 36 25 18 14 10 8 8 7 4 1 0 0 0 0 0 0 0 0 0 0 0 0 0 0 0 0 0 0
0 0 0 0 0 0 2 6 9 10 15 28 41 45 45 48 53 59 64 63 54 41 28 20 16 11 7 6 6 4 1 0 0 0 0 0 0 0 0 0 0 0 0 0 0 0 0 0 0
0 0 0 0 0 1 4 7 10 13 21 36 45 46 45 47 49 53 58 62 57 44 30 22 17 12 7 5 4 3 1 0 0 0 0 0 0 0 0 0 0 0 0 0 0 0 0 0 0
0 0 0 0 0 2 6 9 12 18 31 44 49 47 45 45 48 49 52 57 55 46 36 26 17 10 7 5 3 3 1 0 0 0 0 0 0 0 0 0 0 0 0 0 0 0 0 0 0
0 0 0 0 0 1 4 8 13 23 38 48 51 50 47 45 44 45 48 52 51 45 40 33 22 12 8 6 4 3 2 1 0 0 0 0 0 0 0 0 0 0 0 0 0 0 0 0 0
0 0 0 0 0 0 2 6 13 28 44 52 55 56 53 46 41 41 46 50 50 45 41 37 29 20 13 9 5 5 3 1 0 1 1 0 0 0 0 0 0 0 0 0 0 0 0 0 0
0 0 0 0 0 0 1 4 12 29 45 54 60 64 61 53 44 42 45 49 49 45 41 38 35 29 22 14 8 6 5 2 1 2 2 1 0 0 0 0 0 0 0 0 0 0 0 0 0
0 0 0 0 0 0 1 3 10 25 42 53 61 68 66 58 49 45 45 46 46 44 42 40 37 32 25 17 12 9 6 4 3 3 3 1 0 0 0 0 0 0 0 0 0 0 0 0 0
0 0 0 0 0 0 1 3 8 20 35 49 60 66 66 58 51 47 45 44 44 43 42 41 36 30 24 19 15 11 6 6 6 5 4 2 1 0 0 0 0 0 0 0 0 0 0 0 0
0 0 0 0 0 0 1 2 8 16 28 41 53 60 62 57 51 49 46 43 42 41 42 41 35 28 24 20 14 9 6 6 7 6 4 3 1 1 0 0 0 0 0 0 0 0 0 0 0
0 0 0 0 0 0 1 2 7 13 21 31 40 49 55 55 52 49 46 43 40 38 37 37 33 26 22 18 12 7 5 4 5 5 4 3 2 1 0 0 0 0 0 0 0 0 0 0 0
0 0 0 0 0 0 0 1 5 11 17 25 33 41 48 51 50 46 41 37 35 31 28 28 26 22 18 16 12 7 4 4 5 6 5 3 1 1 0 0 0 0 0 0 0 0 0 0 0
0 0 0 0 0 0 0 0 3 8 14 22 32 39 43 47 46 39 32 28 27 23 19 17 16 15 14 14 13 9 5 4 5 5 4 2 0 0 0 1 0 0 0 0 0 0 0 0 0
0 0 0 0 0 0 0 0 1 3 9 19 30 38 43 44 39 31 24 21 20 19 16 12 9 8 10 11 12 9 5 3 4 3 3 2 1 1 0 0 0 0 0 0 0 0 0 0 0
0 0 0 0 0 0 0 0 0 0 5 16 28 38 44 42 34 25 19 17 16 16 14 10 6 5 6 7 9 8 5 3 3 3 3 3 3 2 1 1 1 0 0 0 0 0 0 0 0
0 0 0 0 0 0 0 0 0 1 7 16 28 38 42 37 28 20 16 13 12 12 11 8 5 4 4 5 6 6 5 4 3 3 3 3 3 3 2 2 1 0 0 0 0 0 0 0 0
0 0 0 0 0 0 0 0 0 3 11 22 29 35 35 29 21 16 12 10 10 10 10 8 5 4 5 5 5 5 4 3 3 3 3 3 3 3 3 2 1 0 0 0 0 0 0 0 0
0 0 0 0 0 0 0 0 0 4 14 23 28 30 30 28 23 16 10 9 11 11 10 9 7 4 3 4 4 5 4 4 3 2 2 2 1 1 2 2 1 1 1 0 0 0 0 0 0
0 0 0 0 0 0 0 0 1 4 10 18 24 26 28 31 28 17 11 11 13 12 9 7 5 3 2 3 4 5 6 4 2 1 1 1 0 1 2 2 1 1 1 0 0 0 0 0 0
0 0 0 0 0 0 0 0 1 3 7 16 22 23 26 33 30 19 12 12 12 11 8 5 4 3 3 4 5 6 7 4 1 0 0 0 0 0 1 1 1 1 1 0 0 0 0 0 0

GEFSSGP_con_probscp_132.txt.gz
Probability
6 4 1 0 0 0 0 0 0 0 1 1 1 1 1 1 0 0 0 0 0 1 1 2 2 1 1 1 1 0 0 0 0 0 0 0 0 0 0 0 0 0 0 0 0 0 0 0 0
2 1 0 0 0 0 0 0 0 1 2 2 2 3 3 2 0 0 0 0 1 3 4 3 3 2 1 1 1 0 0 0 0 0 0 0 0 0 0 0 0 0 0 0 0 0 0 0 0
0 0 0 0 0 0 0 0 1 2 3 3 3 4 4 2 0 1 2 3 4 6 7 5 4 3 1 1 1 0 0 0 0 0 0 0 0 0 0 0 0 0 0 0 0 0 0 0 0
0 0 0 0 0 0 0 0 1 3 3 3 4 4 3 1 1 4 8 10 9 8 7 6 6 5 3 2 1 1 1 0 0 0 0 0 0 0 0 0 0 0 0 0 0 0 0 0 0
0 0 0 0 0 0 0 1 2 3 4 5 6 5 2 2 5 11 15 16 13 10 7 7 9 9 7 6 5 4 2 1 0 0 0 0 0 0 0 0 0 0 0 0 0 0 0 0 0
0 0 0 0 0 0 0 1 3 5 6 8 10 9 4 4 11 18 20 19 17 15 11 9 10 10 9 8 8 6 3 1 0 0 0 0 0 0 0 0 0 0 0 0 0 0 0 0 0
0 0 0 0 0 0 0 2 5 7 8 9 13 12 7 7 15 22 23 20 20 20 17 13 11 10 9 8 7 5 2 0 0 0 0 0 0 0 0 0 0 0 0 0 0 0 0 0 0
0 0 0 0 0 0 1 2 4 6 7 8 11 11 10 16 24 28 26 22 20 20 19 15 13 11 9 8 7 4 1 0 0 0 0 0 0 0 0 0 0 0 0 0 0 0 0 0 0
0 0 0 0 0 1 2 2 2 4 7 9 9 12 21 32 36 36 33 28 23 19 16 14 13 12 10 8 6 3 1 0 0 0 0 0 0 0 0 0 0 0 0 0 0 0 0 0 0
0 0 0 0 0 1 3 2 1 4 8 11 14 24 37 43 42 37 34 31 26 21 15 12 11 11 10 7 5 3 1 0 0 0 0 0 0 0 0 0 0 0 0 0 0 0 0 0 0
0 0 0 0 1 2 3 2 1 3 6 11 23 39 47 44 37 33 30 27 24 22 17 14 12 10 8 6 5 3 1 0 0 0 0 0 0 0 0 0 0 0 0 0 0 0 0 0 0
0 0 0 0 1 3 4 2 1 1 4 14 34 48 48 38 30 27 25 22 21 21 19 18 15 10 7 6 6 5 2 0 0 0 0 0 0 0 0 0 0 0 0 0 0 0 0 0 0
0 0 0 0 1 3 4 2 0 1 7 23 41 51 47 36 29 25 23 23 21 20 19 19 16 11 6 5 6 6 4 1 0 0 0 0 0 0 0 0 0 0 0 0 0 0 0 0 0
0 0 0 0 0 2 2 2 1 3 13 29 41 46 44 38 33 29 25 23 21 18 17 17 14 10 6 5 6 6 4 2 1 0 0 0 0 0 0 0 0 0 0 0 0 0 0 0 0
0 0 0 0 0 0 1 1 1 6 17 29 34 38 40 39 37 34 27 21 17 15 15 14 12 7 4 4 5 5 3 2 1 0 0 0 0 0 0 0 0 0 0 0 0 0 0 0 0
0 0 0 0 0 0 0 0 1 7 19 27 29 32 34 35 33 31 26 20 16 15 14 13 10 6 3 2 3 3 2 2 1 0 0 0 0 0 0 0 0 0 0 0 0 0 0 0 0
0 0 0 0 0 0 0 1 3 9 19 27 29 29 30 31 28 26 23 20 18 17 16 14 11 7 3 1 1 2 2 1 0 0 0 0 0 0 0 0 0 0 0 0 0 0 0 0 0
0 0 0 0 0 0 1 2 4 9 17 25 28 28 29 28 26 26 26 24 21 20 20 17 12 8 4 2 1 2 2 1 0 0 0 0 0 0 0 0 0 0 0 0 0 0 0 0 0
0 0 0 0 0 0 1 2 3 7 13 18 22 26 29 28 27 28 31 29 25 23 22 19 14 9 5 3 2 2 1 0 0 0 0 0 0 0 0 0 0 0 0 0 0 0 0 0 0
0 0 0 0 0 0 0 1 1 3 5 10 16 22 27 29 29 31 33 32 29 27 23 20 16 11 7 6 3 1 0 0 0 0 0 0 0 0 0 0 0 0 0 0 0 0 0 0 0
0 0 0 0 0 0 0 0 0 0 1 5 11 19 26 30 32 33 33 31 29 27 23 18 15 12 11 9 5 2 2 2 1 1 1 1 1 1 1 1 0 0 0 0 0 0 0 0 0
0 0 0 0 0 0 0 0 0 0 0 2 8 16 22 27 31 32 31 29 27 24 19 15 13 12 11 11 7 5 4 4 3 2 2 2 2 3 2 1 0 0 0 0 0 0 0 0 0
0 0 0 0 0 0 0 0 0 0 0 1 6 14 19 22 25 25 24 24 23 19 16 13 11 9 9 9 9 7 5 4 3 3 3 3 3 3 3 1 0 0 0 0 0 0 0 0 0
0 0 0 0 0 0 0 0 0 0 0 1 5 12 17 18 19 19 18 20 19 15 14 12 9 6 5 6 7 7 5 3 3 3 3 3 3 3 3 2 1 0 0 0 0 0 0 0 0
0 0 0 0 0 0 0 0 0 0 0 1 5 11 16 16 16 16 16 17 16 14 12 10 7 3 3 4 5 6 4 3 3 3 3 3 3 3 3 3 2 1 0 0 0 0 0 0 0
0 0 0 0 0 0 0 0 0 0 0 0 4 11 16 16 14 14 15 16 14 12 10 8 5 3 2 2 3 4 4 3 2 3 3 3 3 3 3 3 2 1 0 0 0 0 0 0 0
0 0 0 0 0 0 0 0 0 0 0 2 6 12 15 13 11 11 13 14 11 8 8 7 5 3 1 1 1 2 2 1 1 1 2 2 2 2 2 2 2 1 0 0 0 0 0 0 0
0 0 0 0 0 0 0 0 0 0 1 4 8 11 12 10 9 9 10 10 8 6 7 7 5 3 1 0 1 1 1 0 0 0 1 1 1 1 1 1 1 0 0 0 0 0 0 0 0
0 0 0 0 0 0 0 0 0 0 1 3 6 8 8 8 9 8 8 8 8 6 6 6 5 3 2 1 2 2 1 0 0 0 0 0 0 0 0 0 0 0 0 0 0 0 0 0 0
0 0 0 0 0 0 0 0 0 0 0 2 4 6 7 8 9 8 7 9 9 7 5 4 4 4 3 2 1 1 0 0 0 0 0 0 0 0 0 0 0 0 0 0 0 0 0 0 0

GEFSSGP_con_probscp_138.txt.gz
Probability
6 7 13 18 12 3 0 0 0 0 0 1 0 0 0 0 0 0 0 0 0 0 0 0 0 0 0 0 0 0 0 0 0 0 0 0 0 0 0 0 0 0 0 0 0 0 0 0 0
4 5 9 11 6 1 0 0 0 1 1 2 1 0 0 0 0 0 0 0 0 0 0 0 0 0 0 0 0 0 0 0 0 0 0 0 0 0 0 0 0 0 0 0 0 0 0 0 0
1 2 3 3 1 0 0 0 0 1 2 3 2 1 0 0 0 0 0 0 0 0 0 1 1 1 0 0 0 0 0 0 0 0 0 0 0 0 0 0 0 0 0 0 0 0 0 0 0
1 0 0 0 0 0 0 0 1 2 3 3 3 1 1 1 1 1 2 1 1 1 0 1 1 1 0 1 1 0 0 0 0 0 0 0 0 0 0 0 0 0 0 0 0 0 0 0 0
1 0 0 0 0 0 0 1 2 3 3 3 3 2 3 4 3 4 4 2 1 0 0 1 1 1 1 2 2 1 0 0 0 0 0 0 0 0 0 0 0 0 0 0 0 0 0 0 0
1 0 0 0 0 0 0 1 3 3 4 4 2 4 8 9 8 8 6 2 0 0 1 2 2 3 4 3 3 2 0 0 0 0 0 0 0 0 0 0 0 0 0 0 0 0 0 0 0
0 0 0 0 0 0 1 2 3 3 3 3 2 5 13 18 16 12 8 4 3 3 3 4 3 4 5 4 2 1 0 0 0 0 0 0 0 0 0 0 0 0 0 0 0 0 0 0 0
0 0 0 0 0 0 1 2 2 2 2 2 1 5 18 28 25 18 13 9 7 7 6 5 5 5 5 4 1 0 0 0 0 0 0 0 0 0 0 0 0 0 0 0 0 0 0 0 0
0 0 0 0 0 0 1 2 1 1 2 3 3 9 26 40 36 26 20 14 11 10 9 7 6 6 5 2 0 0 0 0 0 0 0 0 0 0 0 0 0 0 0 0 0 0 0 0 0
0 0 0 0 0 0 1 2 1 1 2 6 13 24 41 49 43 34 26 18 13 11 10 10 8 7 4 1 0 0 0 0 0 0 0 0 0 0 0 0 0 0 0 0 0 0 0 0 0
0 0 0 0 0 0 1 1 0 1 1 6 21 41 54 51 41 33 27 19 15 13 13 12 11 7 4 1 0 0 0 0 0 0 0 0 0 0 0 0 0 0 0 0 0 0 0 0 0
0 0 0 0 0 0 0 0 0 1 2 6 22 45 54 46 34 28 24 21 19 17 16 15 13 9 5 3 1 0 0 0 0 0 0 0 0 0 0 0 0 0 0 0 0 0 0 0 0
0 0 0 0 0 0 0 0 0 2 3 7 22 40 47 40 29 24 24 24 23 20 19 19 15 11 8 6 4 3 1 1 0 0 0 0 0 0 0 0 0 0 0 0 0 0 0 0 0
0 0 0 0 0 0 0 0 2 3 4 9 22 34 39 35 28 25 25 26 24 21 20 20 17 13 9 7 6 6 4 2 1 0 0 0 0 0 0 0 0 0 0 0 0 0 0 0 0
0 0 0 0 0 0 0 1 3 4 5 9 20 29 32 30 27 27 27 26 24 20 19 19 17 14 11 7 7 8 7 4 2 1 0 0 0 0 0 0 0 0 0 0 0 0 0 0 0
0 0 0 0 0 0 0 1 2 3 5 11 19 24 26 26 25 25 26 25 24 21 20 20 18 15 12 9 8 9 8 6 3 2 1 0 0 0 0 0 0 0 0 0 0 0 0 0 0
0 0 0 0 0 0 0 0 1 1 4 11 16 19 22 25 26 26 26 26 27 26 25 24 20 16 13 10 9 8 7 5 3 2 2 1 0 0 0 0 0 0 0 0 0 0 0 0 0
0 0 0 0 0 0 0 0 0 1 3 8 14 17 21 25 27 29 30 30 32 32 31 29 24 18 14 12 10 8 5 4 3 2 2 1 1 1 1 1 0 0 0 0 0 0 0 0 0
0 0 0 0 0 0 0 0 0 1 3 7 11 15 18 21 25 29 32 33 35 36 36 35 31 25 20 16 12 8 6 5 4 3 2 2 2 1 1 2 1 0 0 0 0 0 0 0 0
0 0 0 0 0 0 0 0 0 1 2 5 7 10 14 18 23 29 32 34 35 37 38 38 36 32 27 20 12 8 6 5 5 5 4 3 3 3 2 2 1 1 1 0 0 0 1 0 0
0 0 0 0 0 0 0 0 0 0 1 2 3 5 10 16 23 28 31 33 35 36 35 35 35 33 30 22 13 8 6 5 6 6 6 6 5 5 4 2 2 2 2 1 0 1 1 1 0
0 0 0 0 0 0 0 0 0 0 1 1 1 3 7 14 20 24 28 32 33 34 32 31 33 34 29 22 15 9 5 5 5 6 7 7 6 5 4 3 3 4 3 2 1 1 3 2 1
0 0 0 0 0 0 0 0 0 0 0 1 2 2 6 12 17 23 28 31 32 32 30 29 32 34 29 22 16 10 7 6 6 6 8 8 7 5 4 3 4 4 4 3 3 3 4 5 5
0 0 0 0 0 0 0 0 0 0 0 1 2 2 4 9 17 24 29 32 34 31 27 28 31 32 29 22 15 10 9 9 8 8 8 7 7 7 6 5 6 6 5 5 6 5 6 8 10
0 0 0 0 0 0 0 0 0 0 0 1 2 3 4 9 17 24 28 32 33 31 28 28 29 28 25 19 14 9 9 10 10 9 7 6 7 8 8 6 7 8 7 7 8 8 9 10 11
0 0 0 0 0 0 0 0 0 0 0 0 1 4 7 12 19 23 25 27 28 27 27 27 26 23 19 14 10 7 6 7 8 7 6 5 6 8 8 7 7 8 7 7 8 9 10 11 11
0 0 0 0 0 0 0 0 0 0 0 0 1 4 9 14 18 21 21 20 19 20 22 23 22 19 14 9 6 3 3 3 4 5 5 5 6 7 7 7 6 7 7 7 8 9 11 14 14
0 0 0 0 0 0 0 0 0 0 0 0 0 3 9 13 16 18 18 16 13 14 17 17 15 13 10 7 3 1 1 2 4 5 6 5 5 6 6 6 6 6 5 6 7 9 10 13 14
0 0 0 0 0 0 0 0 0 0 0 0 1 3 8 13 15 16 17 17 15 15 16 15 11 8 8 7 5 3 3 4 5 5 5 4 4 5 5 5 5 4 3 3 5 7 7 9 11
0 0 0 0 0 0 0 0 0 0 0 0 1 4 8 12 16 17 17 19 19 17 17 15 10 7 8 8 7 5 4 5 6 5 4 4 4 4 4 4 4 2 1 2 5 6 6 7 9

GEFSSGP_con_probscp_144.txt.gz
Probability
9 20 39 50 38 13 1 0 0 0 0 0 0 0 0 0 0 0 1 2 2 1 0 1 0 0 0 0 0 0 0 0 0 1 2 2 2 1 0 0 0 0 0 0 0 0 0 0 0
12 19 32 38 25 7 0 0 0 0 0 0 0 0 0 0 0 0 1 1 1 0 0 1 0 0 0 0 0 0 0 0 0 0 1 1 1 0 0 0 0 0 0 0 0 0 0 0 0
15 19 23 20 9 2 0 0 0 0 0 0 0 0 0 0 0 1 2 2 1 1 1 1 0 0 0 0 0 0 0 0 0 0 0 0 0 0 0 0 0 0 0 0 0 0 0 0 0
14 16 15 8 2 0 0 0 0 0 0 0 0 0 1 1 1 2 3 3 3 4 4 2 1 1 1 0 0 0 0 0 0 0 0 0 0 0 0 0 0 0 0 0 0 0 0 0 0
8 8 7 3 0 0 0 0 1 1 1 1 2 2 2 3 3 3 3 4 6 8 8 5 4 3 2 1 0 1 0 0 0 0 0 0 0 0 0 0 0 0 0 0 0 0 0 0 0
4 3 1 0 0 0 0 1 2 2 2 1 3 5 6 6 6 5 5 7 9 11 11 9 7 5 4 1 0 0 0 0 0 0 0 0 0 0 0 0 0 0 0 0 0 0 0 0 0
3 1 0 0 0 0 1 1 1 2 2 1 3 9 12 12 10 8 9 12 14 15 14 11 9 7 6 3 1 1 0 0 0 0 0 0 0 0 0 0 0 0 0 0 0 0 0 0 0
1 0 0 0 0 0 1 1 1 2 2 2 4 11 19 19 14 12 13 16 18 19 16 12 10 9 8 6 3 1 0 0 0 0 0 0 0 0 0 0 0 0 0 0 0 0 0 0 0
0 0 0 0 0 0 1 1 2 3 4 6 9 18 25 25 19 16 18 18 19 19 17 14 11 10 8 6 3 2 0 0 0 0 0 0 0 0 0 0 0 0 0 0 0 0 0 0 0
0 0 0 0 0 0 0 1 4 5 6 12 22 31 34 30 24 21 21 20 18 17 16 15 13 11 8 5 4 3 1 0 0 0 0 0 0 0 0 0 0 0 0 0 0 0 0 0 0
0 0 0 0 0 0 0 1 3 4 6 18 34 42 40 35 29 24 24 24 21 17 15 15 15 12 8 6 6 5 2 0 0 0 0 0 0 0 0 0 0 0 0 0 0 0 0 0 0
0 0 0 0 0 0 0 0 2 4 8 22 38 43 41 39 33 27 27 27 25 22 19 18 19 17 11 8 7 4 1 0 1 2 1 0 0 0 0 0 0 0 0 0 0 0 0 0 0
0 0 0 0 0 0 0 0 2 7 14 25 35 38 39 38 35 31 31 32 32 31 29 28 30 26 16 10 7 3 1 0 2 3 2 1 1 1 0 0 0 0 0 0 0 0 0 0 0
0 0 0 0 0 0 0 0 3 11 19 26 30 32 33 36 36 34 35 38 40 42 40 40 40 33 21 12 8 4 3 1 2 3 3 2 2 3 1 0 0 0 0 0 0 0 0 0 0
0 0 0 0 0 0 0 1 5 12 21 25 27 29 34 38 39 38 40 44 47 49 47 44 40 33 24 14 8 5 5 4 3 5 6 4 4 5 3 0 0 0 0 0 0 0 0 0 0
0 0 0 0 0 0 1 3 6 11 19 27 29 33 41 47 45 44 47 50 54 56 53 44 38 36 30 19 11 6 6 8 9 11 11 7 5 7 5 1 0 0 0 0 0 0 0 0 0
0 0 0 0 0 0 1 4 6 7 17 29 34 38 49 53 50 51 55 57 61 63 58 47 42 42 36 26 17 9 7 10 13 17 17 11 8 9 5 2 2 1 0 0 0 0 0 0 0
0 0 0 0 0 0 1 4 5 6 15 29 38 43 51 53 51 55 60 62 66 68 62 52 48 47 40 31 22 15 11 10 13 19 22 17 12 11 6 4 5 4 1 1 0 0 0 0 0
0 0 0 0 0 0 1 4 7 7 14 28 40 47 51 52 54 59 64 66 69 70 66 58 53 52 46 36 26 20 15 11 12 20 25 22 17 14 8 7 9 8 4 2 1 1 1 0 0
0 0 0 0 0 0 1 4 9 9 11 21 34 43 49 53 59 66 69 69 71 73 70 64 60 57 51 40 29 23 18 14 15 23 28 25 21 18 12 10 13 12 9 6 4 3 2 1 0
0 0 0 0 0 0 1 5 10 9 9 15 23 31 40 49 61 70 70 70 72 72 71 69 67 62 53 42 32 25 21 17 18 25 28 26 23 21 17 16 17 17 14 11 8 6 4 2 1
0 0 0 0 0 0 0 4 9 10 9 13 18 22 30 41 56 67 69 70 70 70 71 72 71 64 54 44 36 30 24 20 19 22 25 25 23 21 19 19 20 21 19 14 11 10 8 5 2
0 0 0 0 0 0 0 2 7 8 8 12 16 19 24 33 47 59 65 68 68 68 71 74 71 64 56 46 38 31 25 20 17 18 21 22 20 18 17 19 22 23 20 17 14 14 12 8 7
0 0 0 0 0 0 0 1 3 4 6 10 14 18 22 29 41 52 59 64 66 67 70 73 70 64 56 48 39 32 27 21 17 15 17 17 14 14 13 17 23 24 22 20 19 18 15 13 13
0 0 0 0 0 0 0 0 1 2 3 6 12 17 21 28 38 47 55 63 67 67 69 71 69 63 55 49 43 35 28 22 17 15 16 13 11 11 13 18 24 25 23 22 22 21 17 16 16
0 0 0 0 0 0 0 0 1 2 2 5 10 14 17 24 35 43 52 62 68 67 68 70 69 61 53 48 42 33 24 18 15 15 15 12 10 12 16 21 24 25 24 22 21 19 18 16 15
0 0 0 0 0 0 0 0 1 2 3 4 8 11 14 22 32 40 49 58 64 67 69 69 66 60 51 44 36 26 18 13 11 11 12 11 9 12 18 21 22 22 21 21 20 18 16 14 11
0 0 0 0 0 0 0 0 1 2 3 4 8 10 14 21 32 42 50 55 59 64 68 66 63 58 50 41 32 21 15 12 8 7 8 8 8 11 16 19 19 20 20 20 20 19 16 12 9
0 0 0 0 0 0 0 0 1 2 3 5 9 13 16 23 36 48 55 56 56 59 63 64 60 54 47 39 30 21 16 13 10 8 7 7 7 9 13 17 18 20 22 21 19 17 15 12 9
0 0 0 0 0 0 0 0 0 1 3 6 11 16 19 26 39 52 60 59 54 54 59 61 58 51 43 37 29 22 18 15 12 10 9 7 6 8 12 16 18 20 23 22 18 14 14 13 11

GEFSSGP_con_probscp_150.txt.gz
Probability
5 4 3 2 0 0 0 0 0 0 0 0 0 0 0 0 0 1 1 1 1 0 0 0 1 0 0 0 0 0 0 0 0 0 0 0 0 0 0 0 0 0 0 0 0 0 0 0 0
3 4 4 2 0 0 0 0 0 0 0 0 0 0 0 1 2 2 2 2 2 1 1 1 2 1 1 0 0 0 0 0 0 0 0 0 0 0 0 0 0 0 0 0 0 0 0 0 0
1 3 3 2 0 0 0 0 1 1 1 1 1 0 1 2 4 5 4 4 3 3 3 3 4 3 2 1 0 0 0 0 0 0 0 0 0 0 0 0 0 0 0 0 0 0 0 0 0
1 2 1 0 0 0 1 1 1 1 2 3 2 1 1 3 6 7 7 6 6 5 5 6 6 6 4 2 0 0 0 0 0 0 0 0 0 0 0 0 0 0 0 0 0 0 0 0 0
0 0 0 0 0 1 2 3 2 2 3 4 3 2 2 4 7 9 9 9 9 8 7 8 9 9 7 4 1 0 0 0 0 0 0 0 0 0 0 0 0 0 0 0 0 0 0 0 0
0 0 0 0 0 1 2 3 4 5 6 6 4 2 3 7 11 11 11 12 11 9 8 9 9 10 10 7 3 1 0 0 0 0 0 0 0 0 0 0 0 0 0 0 0 0 0 0 0
0 0 0 0 0 0 1 3 5 6 8 9 6 2 4 11 15 15 15 14 12 10 9 8 8 9 10 9 5 1 0 0 0 0 0 0 0 0 0 0 0 0 0 0 0 0 0 0 0
0 0 0 0 0 0 0 1 2 5 8 9 7 4 6 14 21 22 20 18 14 12 11 8 6 6 7 7 5 1 0 0 0 0 0 0 0 0 0 0 0 0 0 0 0 0 0 0 0
0 0 0 0 0 0 0 0 0 2 6 9 9 8 12 22 28 30 27 24 19 15 12 9 6 4 4 4 2 1 0 0 0 0 0 0 0 0 0 0 0 0 0 0 0 0 0 0 0
0 0 0 0 0 0 0 0 0 1 6 11 14 16 22 31 36 36 33 29 24 18 13 10 6 4 2 2 1 0 0 0 0 0 0 0 0 0 0 0 0 0 0 0 0 0 0 0 0
0 0 0 0 0 0 0 0 0 1 6 14 20 25 29 35 39 38 35 31 27 22 15 10 7 4 3 2 1 0 0 0 0 0 0 0 0 0 0 0 0 0 0 0 0 0 0 0 0
0 0 1 1 1 1 0 0 1 2 8 18 27 30 31 32 33 35 37 34 29 24 17 12 8 6 3 1 0 0 0 0 0 0 0 0 0 0 0 0 0 0 0 0 0 0 0 0 0
0 1 2 2 2 2 1 2 3 7 16 26 31 32 31 28 28 32 38 38 33 27 21 16 12 8 3 0 0 0 0 0 0 0 0 0 0 0 0 0 0 0 0 0 0 0 0 0 0
0 1 2 2 2 3 4 6 9 16 25 32 33 33 32 29 28 35 42 43 38 32 27 22 16 10 5 2 0 0 0 0 0 0 0 0 0 0 0 0 0 0 0 0 0 0 0 0 0
0 0 1 1 2 3 5 9 17 25 32 34 32 32 32 31 33 39 44 45 41 38 35 29 21 14 9 4 1 0 0 0 0 0 0 0 0 0 0 0 0 0 0 0 0 0 0 0 0
0 0 0 0 1 2 4 9 19 30 36 36 33 32 32 32 36 40 44 45 44 44 41 34 27 20 13 6 1 0 0 0 0 0 0 0 0 1 1 0 0 0 0 0 0 0 0 0 0
0 0 0 0 0 1 2 8 17 29 37 40 40 38 35 32 35 42 45 45 46 47 43 36 30 23 15 7 2 1 0 0 0 0 0 0 1 2 2 1 0 0 0 0 0 0 0 0 0
0 0 0 0 0 1 3 8 16 25 35 42 46 46 40 35 37 43 47 47 47 46 42 36 31 25 17 9 5 2 1 0 0 0 0 0 1 2 2 1 0 0 0 0 0 0 0 0 0
0 0 0 0 0 1 3 8 14 21 31 40 47 49 45 38 40 46 50 52 51 47 42 38 33 27 21 13 7 3 1 1 0 0 1 1 1 3 2 1 0 0 0 0 0 0 0 0 0
0 0 0 0 0 1 2 5 11 16 25 34 43 49 48 45 46 50 53 56 56 50 43 39 36 30 23 16 9 4 2 1 0 0 1 1 2 3 2 1 1 0 1 1 0 0 0 0 0
0 0 0 0 0 1 2 3 7 12 17 26 39 49 53 54 53 53 53 55 57 54 47 43 38 32 25 18 13 9 6 3 1 0 0 1 3 3 1 1 1 1 1 1 1 1 1 1 0
0 0 0 0 0 0 1 1 3 8 14 23 37 49 53 53 54 52 50 51 54 54 51 46 41 34 26 20 17 14 11 6 3 1 1 1 2 2 2 1 1 1 1 1 2 2 2 2 1
0 0 0 0 0 0 0 0 1 5 12 21 33 43 46 47 49 50 48 49 51 51 49 45 42 35 27 22 19 16 12 8 4 3 2 1 1 2 2 2 1 0 0 1 2 3 3 3 3
0 0 0 0 0 0 0 0 1 3 9 18 27 35 40 42 43 45 47 50 52 51 47 43 40 35 27 23 20 15 11 6 4 3 3 3 3 3 3 1 1 0 0 1 2 3 3 3 3
0 0 0 0 0 0 0 0 0 1 5 14 25 34 39 39 40 42 46 51 55 54 48 44 41 34 28 25 21 15 10 6 4 3 3 3 3 3 2 1 1 2 2 2 3 3 3 3 3
0 0 0 0 0 0 0 0 0 1 5 12 24 37 41 40 40 43 46 51 55 53 49 46 41 33 27 24 21 15 9 5 3 3 3 3 2 1 1 3 4 5 5 4 4 3 3 2 1
0 0 0 0 0 0 0 0 0 2 8 15 25 37 43 44 43 43 44 48 50 46 43 43 38 30 24 22 19 13 6 2 1 1 2 1 1 0 1 3 6 6 6 5 4 2 1 1 0
0 0 0 0 0 0 0 0 0 3 11 20 27 35 42 45 44 40 38 42 43 39 38 38 33 26 21 18 15 10 4 0 0 0 1 1 0 1 2 4 5 6 5 4 3 2 1 0 0
0 0 0 0 0 0 0 0 0 3 12 22 28 34 40 45 44 38 33 35 38 39 40 38 31 25 20 16 12 7 3 1 0 1 2 3 3 3 4 4 4 5 4 3 3 3 2 1 1
0 0 0 0 0 0 0 0 1 4 12 21 28 35 40 44 44 38 31 31 36 42 45 42 32 24 19 16 11 7 3 1 0 1 3 6 5 5 5 5 4 4 4 4 4 4 3 2 2

GEFSSGP_con_probscp_156.txt.gz
Probability
5 2 0 1 0 0 0 0 0 0 0 0 0 0 0 0 0 0 0 1 2 2 2 3 3 1 0 0 0 1 1 1 0 0 0 0 0 0 0 0 0 0 0 0 0 0 0 0 0
3 1 0 1 0 0 0 0 0 0 0 0 0 0 0 1 1 0 1 2 3 3 3 4 4 3 1 0 0 0 0 0 0 0 0 0 0 0 0 0 0 0 0 0 0 0 0 0 0
1 0 0 0 0 0 0 0 0 0 0 1 1 0 1 2 1 1 1 3 4 3 4 5 5 5 3 1 0 0 0 0 0 0 0 0 0 0 0 0 0 0 0 0 0 0 0 0 0
0 0 0 0 0 0 0 0 0 0 1 2 2 1 1 2 2 2 3 5 5 4 3 4 5 6 4 1 1 1 0 0 0 0 0 0 0 0 0 0 0 0 0 0 0 0 0 0 0
0 0 0 0 0 0 0 0 0 1 2 3 3 1 1 2 3 4 6 6 5 4 3 4 5 5 5 3 1 0 0 0 0 0 0 0 0 0 0 0 0 0 0 0 0 0 0 0 0
0 0 0 0 0 0 0 0 1 2 4 5 3 1 1 3 5 8 8 7 5 4 3 4 4 5 5 4 1 0 0 0 0 0 0 0 0 0 0 0 0 0 0 0 0 0 0 0 0
0 0 0 0 0 0 0 1 2 4 5 5 4 2 3 4 7 9 9 8 7 5 4 4 4 4 5 4 1 0 0 0 0 0 0 0 0 0 0 0 0 0 0 0 0 0 0 0 0
0 0 0 0 0 0 1 2 3 5 5 4 3 3 5 7 8 9 10 10 8 6 4 3 3 3 3 3 1 0 0 0 0 0 0 0 0 0 0 0 0 0 0 0 0 0 0 0 0
0 0 0 0 0 0 1 2 3 4 6 5 4 4 8 12 11 9 10 10 8 6 3 2 2 2 2 2 1 0 0 0 0 0 0 0 0 0 0 0 0 0 0 0 0 0 0 0 0
0 0 0 0 0 0 0 1 1 3 6 7 7 11 17 20 14 8 8 8 8 6 4 3 3 1 1 1 1 1 0 0 0 0 0 0 0 0 0 0 0 0 0 0 0 0 0 0 0
0 0 0 0 0 0 0 0 1 2 4 6 12 22 29 25 15 8 6 6 8 8 7 5 4 3 1 2 2 2 1 0 0 0 0 0 0 0 0 0 0 0 0 0 0 0 0 0 0
0 0 0 0 0 0 0 1 1 2 2 7 18 30 33 28 18 9 5 5 7 10 9 6 4 3 2 2 2 3 2 1 0 0 0 0 0 0 0 0 0 0 0 0 0 0 0 0 0
0 0 0 0 0 0 1 2 2 2 4 12 22 30 31 26 18 11 7 7 8 9 9 6 4 3 2 1 1 2 2 1 0 0 0 0 0 0 0 0 0 0 0 0 0 0 0 0 0
0 0 0 0 0 0 1 2 3 5 10 16 22 26 25 21 16 13 12 10 9 9 8 6 4 3 1 0 0 1 1 0 0 0 0 0 0 0 0 0 0 0 0 0 0 0 0 0 0
0 0 0 0 0 0 0 1 3 7 12 16 19 23 24 19 15 14 15 13 11 9 8 5 4 3 1 0 0 0 0 0 0 0 0 0 0 0 0 0 0 0 0 0 0 0 0 0 0
0 0 0 0 0 0 0 1 3 7 11 13 16 20 23 19 16 16 17 17 15 12 9 6 4 4 3 1 0 0 0 1 0 0 0 0 0 0 0 0 0 0 0 0 0 0 0 0 0
0 0 0 0 0 0 0 1 3 6 9 10 12 16 18 16 15 18 21 22 20 16 12 8 7 6 4 2 0 0 0 0 0 0 0 0 0 0 0 0 0 0 0 0 0 0 0 0 0
0 0 0 0 0 0 0 1 3 6 8 8 10 11 12 12 13 17 22 23 21 17 14 12 11 8 6 3 1 0 0 0 0 0 0 0 0 0 0 0 0 0 0 0 0 0 0 0 0
0 0 0 0 0 0 0 0 2 5 7 7 8 8 9 11 12 15 19 22 20 17 16 16 13 9 6 4 2 0 0 0 0 0 0 0 0 0 0 0 0 0 0 0 0 0 0 0 0
0 0 0 0 0 0 0 0 1 3 5 6 7 7 10 13 15 16 18 22 22 21 21 19 15 10 7 5 3 1 0 0 0 0 0 0 0 0 1 1 1 0 0 0 0 0 0 0 0
0 0 0 0 0 0 0 0 1 2 3 5 7 9 13 16 18 19 20 24 25 25 24 23 18 14 11 8 7 4 2 2 1 1 0 0 0 0 1 2 2 1 0 0 0 0 0 0 0
0 0 0 0 0 0 0 0 0 1 2 4 7 11 16 18 19 19 21 24 26 27 27 25 24 22 19 15 12 10 7 5 3 2 0 0 0 0 1 2 3 2 1 0 0 0 0 0 0
0 0 0 0 0 0 0 0 0 1 2 4 6 11 15 18 17 18 19 21 24 27 28 27 28 27 24 20 17 14 11 7 4 2 1 1 1 1 2 3 3 2 1 0 0 0 0 0 0
0 0 0 0 0 0 0 0 0 0 1 3 5 9 13 17 17 16 17 18 22 27 28 28 28 27 24 22 20 17 13 9 6 3 2 2 2 3 3 3 3 1 1 0 0 0 0 0 0
0 0 0 0 0 0 0 0 0 0 0 1 3 7 12 15 15 14 15 17 21 28 31 29 27 25 24 23 22 19 15 11 8 4 3 2 2 3 3 3 2 1 1 1 1 1 1 1 0
0 0 0 0 0 0 0 0 0 0 0 0 2 7 11 12 12 13 14 17 22 27 31 31 28 24 23 24 22 18 14 12 9 4 1 1 1 1 2 3 3 2 3 3 2 2 2 1 1
0 0 0 0 0 0 0 0 0 0 0 1 3 6 10 10 11 13 15 17 21 24 27 30 29 25 23 23 21 16 12 11 8 4 1 0 0 0 1 2 3 4 4 3 2 2 1 1 0
0 0 0 0 0 0 0 0 0 0 0 1 2 5 8 10 12 15 16 18 20 20 21 23 25 24 22 20 18 15 11 9 7 4 1 1 1 0 1 2 4 3 2 1 1 1 0 0 0
0 0 0 0 0 0 0 0 0 0 0 0 2 5 8 10 12 14 16 19 20 18 15 16 18 18 17 16 15 13 11 8 6 4 3 2 2 1 1 3 4 3 1 0 0 0 0 0 0
0 0 0 0 0 0 0 0 0 0 0 1 3 6 9 9 10 11 15 20 21 17 12 11 13 14 14 14 14 12 10 8 7 5 4 3 2 1 1 4 4 3 1 0 0 0 0 0 0

GEFSSGP_con_probscp_162.txt.gz
Probability
12 13 16 15 8 2 0 0 0 0 0 0 0 0 0 0 0 0 0 0 1 2 3 2 1 1 0 0 0 0 0 0 0 0 0 0 0 0 0 0 0 0 0 0 0 0 0 0 0
8 9 11 9 4 1 0 0 0 0 0 0 0 0 0 0 0 0 0 0 1 2 3 3 2 2 1 0 0 0 0 0 0 0 0 0 0 0 0 0 0 0 0 0 0 0 0 0 0
7 7 6 3 1 0 0 0 0 0 0 0 0 0 1 1 1 0 0 0 1 3 3 3 3 3 2 0 0 0 0 0 0 0 0 0 0 0 0 0 0 0 0 0 0 0 0 0 0
7 6 4 1 0 0 0 0 0 0 0 0 0 1 2 2 1 0 0 0 1 2 3 3 3 2 1 0 0 0 0 0 0 0 0 0 0 0 0 0 0 0 0 0 0 0 0 0 0
4 4 2 0 0 0 0 0 0 0 0 0 0 1 2 2 1 0 0 0 1 1 2 2 2 2 1 0 0 0 0 0 0 0 0 0 0 0 0 0 0 0 0 0 0 0 0 0 0
1 1 0 0 0 0 0 0 0 0 0 0 0 0 1 1 1 0 0 0 0 1 2 3 3 2 1 0 0 0 0 0 0 0 0 0 0 0 0 0 0 0 0 0 0 0 0 0 0
0 0 0 0 0 0 0 0 0 0 1 1 0 1 3 4 3 1 0 0 1 1 3 5 5 2 0 0 0 0 0 0 0 0 0 0 0 0 0 0 0 0 0 0 0 0 0 0 0
0 0 0 0 0 0 0 0 0 1 2 2 1 3 6 8 6 2 0 1 2 3 4 5 5 3 1 0 0 0 0 0 0 0 0 0 0 0 0 0 0 0 0 0 0 0 0 0 0
0 0 0 0 0 0 0 0 0 1 3 4 4 6 11 14 10 5 2 2 3 5 5 5 4 3 1 0 0 0 0 0 0 0 0 0 0 0 0 0 0 0 0 0 0 0 0 0 0
0 0 0 0 0 0 0 0 0 1 4 6 7 11 17 19 12 7 5 3 5 6 6 4 3 2 0 0 0 0 0 0 0 0 0 0 0 0 0 0 0 0 0 0 0 0 0 0 0
0 0 0 0 0 0 0 0 1 2 4 6 10 18 25 23 13 6 4 4 6 7 5 4 4 3 1 0 0 0 0 0 0 0 0 0 0 0 0 0 0 0 0 0 0 0 0 0 0
0 0 0 0 0 0 0 1 2 4 5 7 13 23 28 23 12 5 3 4 6 7 6 5 5 4 1 0 0 0 0 0 0 0 0 0 0 0 0 0 0 0 0 0 0 0 0 0 0
0 0 0 0 0 1 0 1 4 6 7 10 16 23 25 21 12 6 4 5 8 9 8 7 7 5 2 1 1 1 1 1 0 0 0 0 0 0 0 0 0 0 0 0 0 0 0 0 0
0 0 0 0 0 0 0 2 4 5 7 11 16 20 21 19 14 8 6 7 9 11 10 9 8 5 2 1 2 2 2 2 1 0 0 0 0 0 0 0 0 0 0 0 0 0 0 0 0
0 0 0 0 0 0 1 3 5 5 6 10 12 14 18 18 15 10 8 9 11 11 11 10 9 6 3 1 1 2 2 2 2 1 0 0 0 0 0 0 0 0 0 0 0 0 0 0 0
0 0 0 0 0 0 1 4 7 7 7 9 9 10 14 17 15 11 10 12 13 13 13 12 10 8 5 2 1 1 1 1 1 1 1 0 0 0 0 0 0 0 0 0 0 0 0 0 0
0 0 0 0 0 0 1 3 6 7 8 8 7 7 11 15 14 11 11 13 16 18 18 17 15 13 9 5 3 2 1 0 0 1 1 0 0 0 0 0 0 0 0 0 0 0 0 0 0
0 0 0 0 0 0 0 1 4 5 6 7 6 6 9 12 13 11 10 12 18 23 24 22 22 20 15 9 6 5 2 1 0 1 1 2 2 2 1 1 0 1 1 0 0 0 0 0 0
0 0 0 0 0 0 0 0 1 3 4 5 6 6 8 12 14 15 13 14 18 24 27 27 27 26 21 15 12 9 4 1 1 2 3 4 4 4 3 2 2 2 2 1 1 1 1 1 1
0 0 0 0 0 0 0 0 0 1 3 4 6 7 8 13 19 22 21 17 17 20 25 28 29 29 25 20 17 13 8 5 3 3 4 5 5 4 4 3 3 3 3 3 5 5 5 5 4
0 0 0 0 0 0 0 0 0 0 1 3 5 7 8 12 20 26 27 22 17 17 20 25 30 31 29 26 21 17 15 12 9 6 5 5 4 4 3 3 4 4 3 5 7 9 9 9 9
0 0 0 0 0 0 0 0 0 0 0 3 6 8 9 10 15 22 25 23 18 16 19 25 31 34 34 32 28 24 22 20 14 9 7 7 5 4 4 5 6 6 6 6 9 11 12 13 14
0 0 0 0 0 0 0 0 0 0 0 2 6 9 10 8 10 15 17 18 16 15 20 27 34 37 37 35 32 30 28 24 17 11 10 10 8 6 6 7 9 9 9 10 12 14 13 15 17
0 0 0 0 0 0 0 0 0 0 0 1 4 7 7 6 8 11 13 14 14 15 21 30 39 43 41 38 35 31 27 24 18 14 12 13 11 9 8 8 8 9 10 13 15 15 13 15 17
0 0 0 0 0 0 0 0 0 0 0 0 2 5 6 6 8 12 14 16 16 17 22 31 40 46 44 40 35 29 24 21 19 15 14 14 13 11 9 7 5 6 8 11 13 13 11 12 14
0 0 0 0 0 0 0 0 0 0 0 0 2 6 8 8 9 12 16 18 18 20 25 30 37 42 41 38 35 30 24 19 16 15 13 13 12 10 7 6 4 5 7 9 10 11 10 10 11
0 0 0 0 0 0 0 0 0 0 0 0 2 7 11 12 11 13 17 17 18 21 26 29 34 37 37 36 35 33 25 17 13 13 13 12 11 8 6 5 5 6 7 9 10 11 11 10 10
0 0 0 0 0 0 0 0 0 0 0 0 3 9 15 17 18 20 22 20 19 22 25 29 34 37 37 36 35 32 26 17 13 12 13 13 12 10 7 6 6 7 8 10 11 11 11 9 8
0 0 0 0 0 0 0 0 0 0 0 0 3 10 17 20 23 27 29 27 25 24 25 29 35 38 36 34 34 31 25 19 15 14 15 15 13 12 10 9 8 8 8 10 12 11 8 6 5
0 0 0 0 0 0 0 0 0 0 0 0 3 10 17 21 24 27 32 34 31 29 27 30 35 35 32 33 34 30 24 19 16 16 17 16 14 12 12 11 10 9 7 10 12 11 7 4 2

GEFSSGP_con_probscp_168.txt.gz
Probability
11 23 40 47 34 11 1 0 0 0 0 0 0 0 0 0 0 0 0 0 0 0 0 0 1 1 1 0 0 0 0 0 0 0 0 0 0 0 0 0 0 0 0 0 0 0 0 0 0
14 27 40 36 20 6 0 0 0 0 0 0 1 1 0 0 0 0 0 0 1 1 1 1 1 2 1 0 0 0 0 0 0 0 0 0 0 0 0 0 0 0 0 0 0 0 0 0 0
21 32 34 20 6 1 0 0 0 0 0 1 2 2 1 0 0 0 0 1 2 3 3 2 1 1 1 0 0 0 0 0 0 0 0 0 0 0 0 0 0 0 0 0 0 0 0 0 0
24 28 21 8 1 0 0 0 0 0 0 1 3 3 1 0 0 0 0 2 4 5 5 3 2 1 0 0 0 0 0 0 0 0 0 0 0 0 0 0 0 0 0 0 0 0 0 0 0
18 16 9 3 0 0 0 0 0 0 0 1 3 3 2 0 0 0 0 2 4 6 6 4 2 1 0 0 0 0 0 0 0 0 0 0 0 0 0 0 0 0 0 0 0 0 0 0 0
8 5 2 1 0 0 0 0 0 0 0 1 2 3 2 1 0 0 0 1 4 7 6 4 2 1 0 0 0 0 0 0 0 0 0 0 0 0 0 0 0 0 0 0 0 0 0 0 0
3 2 1 0 0 0 0 0 0 0 0 1 2 3 3 2 1 0 0 1 4 7 6 4 3 1 0 0 0 0 0 0 0 0 0 0 0 0 0 0 0 0 0 0 0 0 0 0 0
1 0 0 0 0 0 0 0 0 1 2 2 3 5 6 5 2 0 1 2 5 6 5 4 3 2 1 0 0 0 0 0 0 0 0 0 0 0 0 0 0 0 0 0 0 0 0 0 0
0 0 0 0 0 0 0 0 0 2 4 6 7 9 9 5 2 2 2 3 6 6 5 4 3 3 2 1 0 0 0 0 0 0 0 0 0 0 0 0 0 0 0 0 0 0 0 0 0
0 0 0 0 0 0 0 0 0 2 6 10 13 14 11 6 4 4 5 6 7 7 6 4 4 3 1 1 2 1 0 0 0 0 0 0 0 0 0 0 0 0 0 0 0 0 0 0 1
0 0 0 0 0 0 0 0 1 2 6 11 15 16 13 8 7 6 7 9 9 7 7 6 6 4 3 3 4 2 0 0 0 0 0 0 0 0 0 0 0 0 0 0 0 0 0 0 1
0 0 0 0 0 0 0 1 2 3 5 9 12 13 13 12 9 7 9 12 11 9 8 8 9 9 7 6 5 3 1 1 0 0 0 0 0 0 0 1 0 0 0 0 0 0 0 0 1
0 0 0 0 0 0 0 1 3 4 5 7 9 10 12 14 11 8 12 16 17 14 14 14 14 14 11 9 7 5 3 2 1 1 0 0 0 0 0 1 1 0 0 0 0 0 0 0 0
0 0 0 0 0 1 1 2 3 5 6 8 9 10 11 13 12 12 18 24 26 25 25 23 19 16 14 11 8 6 5 4 3 2 1 0 0 0 0 0 1 0 0 1 1 1 1 0 0
0 0 0 0 0 1 2 3 5 6 7 10 11 12 14 15 14 17 24 31 36 38 36 30 23 19 17 13 8 5 4 4 3 4 3 1 1 1 1 1 0 0 1 2 4 4 3 1 0
0 0 0 0 0 0 1 3 6 6 7 11 13 17 20 19 18 21 28 36 43 47 44 35 28 26 25 18 10 4 3 3 4 5 5 4 3 4 4 2 1 2 2 3 3 4 3 2 1
0 0 0 0 0 0 0 2 4 6 8 12 16 21 24 24 23 28 35 42 49 52 49 41 35 34 31 25 15 7 3 3 3 6 8 8 7 8 8 6 4 4 3 2 2 2 2 3 3
0 0 0 0 0 0 0 0 2 5 8 13 18 25 30 30 30 36 42 48 54 56 53 45 41 39 36 30 23 15 8 5 5 7 11 13 12 12 13 11 9 7 5 3 3 3 3 3 4
0 0 0 0 0 0 0 1 2 4 8 13 21 29 36 38 39 44 50 52 57 61 57 49 46 45 41 35 29 23 16 11 9 10 13 16 16 16 16 15 14 10 7 6 5 4 4 4 4
0 0 0 0 0 0 1 2 3 5 6 12 21 29 35 40 45 52 56 57 61 65 61 55 52 51 47 40 34 30 25 20 15 15 18 20 19 18 18 18 15 10 7 6 7 6 5 5 4
0 0 0 0 0 0 1 2 3 5 6 9 17 23 29 38 49 56 59 61 64 66 65 61 60 58 54 47 39 35 35 30 22 21 25 24 22 19 19 18 13 8 5 6 9 9 8 8 7
0 0 0 0 0 0 1 2 3 5 6 7 11 16 23 35 50 57 57 59 62 65 67 68 67 65 60 54 44 39 39 37 30 28 29 27 23 20 20 18 14 9 6 6 8 10 12 13 10
0 0 0 0 0 0 0 1 3 4 4 6 7 10 18 31 44 51 52 53 56 62 68 71 72 71 66 59 50 43 39 38 35 33 31 27 23 20 20 19 17 13 8 6 7 10 14 16 14
0 0 0 0 0 0 0 1 2 2 2 4 6 9 15 24 34 43 47 49 51 56 65 73 77 76 69 62 56 50 44 41 39 36 32 26 22 21 21 21 21 19 13 10 10 12 14 16 17
0 0 0 0 0 0 0 0 0 0 0 2 6 11 16 20 26 37 45 49 51 52 60 73 80 79 72 66 61 57 50 45 43 40 33 26 22 22 23 24 25 24 19 15 14 14 14 15 17
0 0 0 0 0 0 0 0 0 1 1 3 8 12 16 18 23 32 44 50 51 51 59 73 80 79 75 70 65 59 52 46 43 41 35 27 22 21 25 29 31 28 23 21 20 18 15 16 19
0 0 0 0 0 0 0 0 1 2 2 4 8 12 15 18 24 33 43 50 52 54 63 73 77 76 75 72 66 58 51 47 42 38 34 28 22 21 26 32 34 30 26 25 26 25 21 20 22
0 0 0 0 0 0 0 0 2 4 4 4 6 10 14 19 26 35 44 51 55 59 67 74 75 73 72 70 64 57 53 50 44 37 33 29 25 22 26 31 31 29 27 27 30 31 27 24 23
0 0 0 0 0 0 0 0 2 4 5 5 6 9 16 22 28 36 46 54 59 63 69 75 76 74 73 70 64 59 56 53 49 43 38 35 30 26 26 27 29 28 27 28 32 32 29 24 20
0 0 0 0 0 0 0 0 1 3 6 8 9 12 18 25 31 37 45 54 61 65 70 75 77 76 74 70 66 61 57 55 52 48 44 41 36 31 27 26 28 30 29 29 32 31 27 23 17

GEFSSGP_con_probscp_174.txt.gz
Probability
18 10 3 3 3 1 0 0 0 0 0 0 0 0 0 0 0 0 0 0 0 0 0 0 0 0 0 0 0 1 2 2 1 0 0 0 0 0 0 0 0 0 0 0 0 0 0 0 0
12 9 6 6 3 1 0 0 0 1 1 0 0 0 0 0 0 0 0 0 0 0 0 0 0 0 0 0 0 1 2 1 0 0 0 0 0 0 0 0 0 0 0 0 0 0 0 0 0
9 9 9 5 2 0 1 1 1 2 2 1 0 0 0 0 0 1 1 1 0 0 0 0 0 0 0 0 0 1 1 1 0 0 0 0 0 0 0 0 0 0 0 0 0 0 0 0 0
8 8 7 3 0 0 1 2 2 3 3 1 0 0 0 0 2 3 3 2 1 0 0 0 0 0 0 0 0 0 0 0 0 0 0 0 0 0 0 0 0 0 0 0 0 0 0 0 0
5 6 4 1 0 0 1 2 4 5 4 1 0 0 0 2 6 7 5 3 1 0 0 1 1 1 0 0 0 0 0 0 0 0 0 0 0 1 0 0 0 0 0 0 0 0 0 0 0
4 4 2 0 0 1 1 3 5 6 5 2 0 0 2 6 10 11 8 5 3 1 0 1 1 1 0 0 0 0 0 0 0 0 0 0 0 0 0 0 0 0 0 0 0 0 0 0 0
3 2 1 0 0 2 3 5 5 5 4 2 1 1 4 10 15 15 12 8 5 2 1 0 0 0 0 0 0 0 0 0 0 0 0 0 0 0 0 0 0 0 0 0 0 0 0 0 0
2 1 1 0 0 2 5 6 5 4 4 3 2 2 5 12 19 20 18 12 7 4 1 0 0 0 0 0 0 0 0 0 0 0 0 0 0 0 0 0 0 0 0 0 0 0 0 0 0
1 0 0 0 1 3 6 6 5 5 5 4 3 4 7 14 23 27 23 16 11 6 3 1 0 0 0 0 0 0 0 0 0 0 0 0 0 0 0 0 0 0 0 0 0 0 0 0 0
0 0 0 0 2 4 5 4 5 7 8 7 7 8 11 17 24 28 25 20 14 10 6 3 1 1 1 0 0 0 0 0 0 0 0 0 0 0 0 0 0 0 0 0 0 0 0 0 0
0 0 0 1 3 5 4 3 5 8 9 10 11 12 15 19 23 24 23 20 17 13 9 7 5 5 3 1 1 0 0 0 0 0 0 0 0 0 0 0 0 0 0 0 0 0 0 0 0
0 0 0 1 2 4 4 3 5 7 9 10 11 14 16 18 19 19 18 19 17 15 13 12 12 9 6 4 2 1 0 0 0 0 0 0 0 0 0 0 0 0 0 0 0 0 0 0 0
0 0 0 0 1 2 3 4 6 8 10 11 12 12 14 16 16 15 17 20 22 22 19 18 17 13 8 5 3 1 0 0 0 0 0 0 0 0 0 0 0 0 0 0 0 0 0 0 0
0 0 0 0 0 1 3 5 6 10 13 15 13 11 11 14 15 17 20 24 30 31 26 22 20 15 9 5 2 0 0 0 0 0 0 0 0 0 0 0 0 0 0 0 0 0 0 0 0
0 0 0 0 0 2 3 4 6 11 15 16 14 11 10 13 17 21 25 29 33 35 32 27 22 15 9 5 2 1 0 0 0 0 0 0 0 0 0 1 1 1 1 0 0 1 1 0 0
0 0 0 0 0 1 3 3 5 9 12 14 15 13 13 15 19 24 28 31 33 34 33 30 23 14 7 3 2 2 1 0 0 0 0 0 0 0 1 2 2 2 2 1 1 1 1 0 0
0 0 0 0 0 1 2 3 4 8 11 14 16 17 17 18 20 25 30 33 34 32 31 29 24 14 6 3 2 1 1 0 0 0 0 0 0 0 1 2 3 3 3 2 1 1 1 0 0
0 0 0 0 0 1 2 3 5 9 12 15 17 19 21 21 21 27 34 36 34 31 30 29 25 17 10 6 4 2 1 0 0 0 0 0 0 0 1 2 3 3 3 3 1 0 0 0 0
0 0 0 0 0 1 3 5 6 9 12 15 19 21 23 22 22 29 38 41 38 34 32 30 27 21 14 10 7 5 2 1 0 1 1 1 0 0 1 2 3 3 3 3 2 0 0 0 1
0 0 0 0 0 1 3 5 6 8 11 16 21 23 23 23 24 30 40 46 44 39 34 30 27 23 17 12 9 6 3 1 0 1 2 3 2 1 1 2 3 3 3 2 1 0 1 1 2
0 0 0 0 0 1 2 3 5 8 12 17 21 23 24 24 25 30 37 44 46 43 36 32 29 26 20 14 11 8 5 2 1 1 2 4 4 4 3 3 3 3 2 1 0 1 2 3 4
0 0 0 0 0 0 1 1 3 8 13 16 18 22 24 24 25 27 31 37 42 44 41 37 34 31 25 19 15 11 7 4 2 1 1 3 5 5 5 4 4 3 1 0 1 2 3 5 5
0 0 0 0 0 0 0 0 2 6 11 14 15 18 22 24 25 26 27 29 34 40 42 40 39 36 32 26 20 14 8 4 2 2 3 3 3 4 5 4 3 2 1 1 1 3 4 5 5
0 0 0 0 0 0 0 0 1 3 7 10 13 15 18 22 24 25 25 25 28 33 39 41 41 40 37 31 24 16 9 4 4 5 6 5 4 5 4 3 2 1 2 2 3 3 4 5 5
0 0 0 0 0 0 0 0 1 2 4 7 11 15 19 22 24 24 24 24 26 30 36 42 45 45 42 36 29 20 12 8 8 8 8 8 8 7 6 4 2 2 2 3 3 4 5 5 5
0 0 0 0 0 0 0 0 0 2 5 8 11 17 24 26 26 25 25 24 27 32 37 43 47 48 46 40 31 23 16 12 10 8 8 8 9 9 9 7 5 4 3 2 3 4 4 4 4
0 0 0 0 0 0 0 0 0 2 7 10 14 22 28 29 27 26 25 26 28 31 37 42 46 46 44 39 31 24 18 13 10 7 5 5 6 7 9 9 8 7 5 4 3 3 4 4 4
0 0 0 0 0 0 0 0 0 3 8 14 19 26 30 29 25 23 25 28 29 32 38 43 45 45 42 37 32 26 19 13 9 6 4 4 5 6 7 8 8 8 8 7 5 4 4 4 4
0 0 0 0 0 0 0 0 0 2 9 18 23 26 28 26 22 23 27 30 33 37 43 47 48 48 44 41 37 30 21 14 10 6 4 4 5 5 5 5 6 8 9 10 8 6 5 5 5
0 0 0 0 0 0 0 0 0 2 10 19 24 26 25 22 22 27 30 32 35 41 47 51 53 52 49 47 43 34 24 16 11 6 4 4 4 4 4 5 6 8 10 10 8 6 6 6 6

GEFSSGP_con_probscp_180.txt.gz
Probability
8 4 1 1 1 1 0 0 0 0 0 0 0 0 0 0 0 0 0 0 0 0 0 0 0 0 0 0 0 0 0 0 0 0 0 0 0 0 0 0 0 0 0 0 0 0 0 0 0
4 3 1 2 3 1 0 0 0 0 0 0 0 0 0 0 0 0 0 0 0 0 0 0 0 0 0 0 0 0 0 0 0 0 0 0 0 0 0 0 0 0 0 0 0 0 0 0 0
3 3 4 5 4 2 0 0 1 1 1 0 0 0 0 0 0 0 0 0 0 0 0 0 0 0 0 0 0 0 0 0 0 0 0 0 0 0 0 0 0 0 0 0 0 0 0 0 0
4 5 6 5 4 1 0 1 2 2 1 0 0 0 0 0 0 1 1 1 0 0 0 0 0 0 0 0 0 0 0 0 0 0 0 0 0 0 0 0 0 0 0 0 0 0 0 0 0
4 5 4 2 1 0 0 1 2 2 1 0 0 0 0 0 0 1 2 1 0 0 0 0 0 0 0 0 0 0 0 0 0 0 0 0 0 0 0 0 0 0 0 0 0 0 0 0 0
4 3 2 0 0 0 0 1 2 1 0 0 0 0 0 0 0 1 1 1 0 1 1 0 0 0 0 0 0 0 0 0 0 0 0 0 0 0 0 0 0 0 0 0 0 0 0 0 0
3 2 1 0 0 0 0 1 2 2 0 0 0 0 0 0 0 0 0 0 1 2 2 1 0 0 0 0 0 0 0 0 0 0 0 0 0 0 0 0 0 0 0 0 0 0 0 0 0
2 2 1 0 0 0 1 2 4 3 1 0 0 0 0 0 0 0 0 1 2 3 3 2 0 0 0 0 0 0 0 0 0 0 0 0 0 0 0 0 0 0 0 0 0 1 0 0 0
1 1 0 0 0 1 2 4 4 3 1 0 0 1 2 3 4 3 1 1 2 3 2 1 0 0 0 0 0 0 0 0 0 0 0 0 0 0 0 0 0 0 0 0 0 0 0 0 0
0 0 0 0 1 2 3 4 5 3 1 2 2 4 8 10 9 6 3 1 2 2 1 0 0 0 0 0 0 0 0 0 0 0 0 0 0 0 0 0 0 0 0 0 0 0 0 0 0
0 0 0 0 1 2 4 5 5 3 2 2 4 9 15 16 12 8 5 3 3 2 1 0 0 0 0 0 1 1 1 0 0 0 0 0 0 0 0 0 0 0 0 0 0 0 0 0 0
0 0 0 0 1 3 4 4 4 3 2 2 6 13 17 15 11 8 7 6 6 4 2 1 1 1 1 1 1 2 2 1 0 0 0 0 0 0 0 0 0 0 0 0 0 0 0 0 0
0 0 0 1 2 3 3 2 3 3 2 3 7 12 14 11 7 6 7 8 7 6 5 4 4 3 2 1 1 2 2 1 0 0 0 0 0 0 0 0 0 0 0 0 0 0 0 0 0
0 0 0 2 3 3 2 2 2 3 3 4 6 8 9 7 5 5 7 9 9 8 7 7 6 4 3 2 1 1 1 0 0 0 0 0 0 0 0 0 0 0 0 0 0 0 0 0 0
0 0 0 1 2 3 2 1 2 3 3 4 3 4 5 5 4 5 6 9 9 8 8 8 7 5 3 2 1 0 0 0 0 0 0 0 0 0 0 0 0 0 0 0 0 0 0 0 0
0 0 0 0 1 2 1 1 1 1 3 3 2 2 3 3 2 3 5 7 9 8 7 9 8 5 2 1 1 0 0 0 0 0 0 0 0 0 0 0 0 0 0 0 0 0 0 0 0
0 0 0 0 0 0 0 0 1 1 2 4 3 3 2 1 1 1 2 6 9 8 8 9 8 5 3 1 0 0 0 0 0 0 0 0 0 0 0 0 0 0 0 0 0 0 0 0 0
0 0 0 0 0 0 0 0 0 1 3 5 5 3 2 1 0 0 1 5 9 10 9 8 6 4 3 2 1 0 0 0 0 0 0 0 0 0 0 0 0 0 0 0 0 0 0 0 0
0 0 0 0 0 0 0 0 0 1 4 7 7 4 2 1 2 2 2 5 9 10 9 8 5 2 1 1 1 0 0 0 0 0 0 0 1 1 0 0 0 0 0 0 0 0 0 1 1
0 0 0 0 0 0 0 0 0 2 4 7 8 6 3 3 3 3 3 4 7 10 10 9 6 2 1 1 0 0 0 0 0 0 0 1 2 2 1 0 0 0 1 1 1 1 1 2 2
0 0 0 0 0 0 0 0 0 1 3 6 7 6 4 3 3 4 3 3 5 9 10 9 7 4 2 2 1 1 2 1 0 0 0 1 1 1 1 0 0 1 2 2 2 2 2 3 3
0 0 0 0 0 0 0 0 0 0 2 4 6 6 5 4 4 4 3 4 5 8 10 11 9 7 4 3 3 3 2 1 0 0 0 0 1 1 1 0 0 1 2 3 3 3 3 3 3
0 0 0 0 0 0 0 0 0 0 1 3 4 4 5 4 4 5 5 6 7 8 11 12 11 9 7 5 4 4 2 1 0 0 0 0 0 1 0 0 0 1 1 2 2 2 2 3 3
0 0 0 0 0 0 0 0 0 0 0 2 3 3 4 4 6 7 8 8 9 10 12 13 12 11 10 8 6 5 3 2 1 0 0 0 0 0 0 0 0 0 0 1 1 1 1 1 2
0 0 0 0 0 0 0 0 0 0 0 2 3 3 4 5 7 9 10 9 9 11 13 14 14 13 13 11 8 6 4 3 2 1 0 0 0 0 0 0 0 0 0 0 0 0 0 0 1
0 0 0 0 0 0 0 0 0 0 0 1 2 4 6 7 8 10 12 11 11 12 14 16 15 14 13 11 8 7 5 5 4 1 0 0 0 0 0 0 0 0 0 0 0 0 0 1 2
0 0 0 0 0 0 0 0 0 0 0 0 2 5 8 9 11 13 13 12 12 12 14 16 15 12 10 10 10 9 7 6 5 2 1 0 1 1 1 1 0 0 0 0 0 1 1 2 3
0 0 0 0 0 0 0 0 0 0 0 0 2 5 8 10 12 14 13 11 10 11 13 15 14 10 8 9 11 11 9 7 5 4 2 1 2 2 1 0 0 0 0 0 0 1 2 3 3
0 0 0 0 0 0 0 0 0 0 0 1 3 6 9 11 13 14 14 12 11 12 14 16 15 11 9 9 11 14 12 9 7 6 4 2 2 2 1 1 1 0 0 0 1 2 3 3 3
0 0 0 0 0 0 0 0 0 0 0 1 4 8 11 12 13 15 15 15 15 14 15 17 16 13 10 9 12 16 15 11 8 6 5 3 3 2 2 2 2 1 0 1 2 3 3 3 3

GEFSSGP_con_probscp_186.txt.gz
Probability
11 12 14 13 7 2 0 0 0 0 0 0 0 0 0 0 0 0 0 0 0 0 0 0 0 0 0 0 0 0 0 0 0 1 2 1 1 2 3 2 2 2 1 0 0 0 0 0 0
12 13 15 13 6 1 0 0 0 0 0 0 0 0 0 0 0 0 0 0 0 0 0 0 0 0 0 0 0 0 0 0 0 1 1 1 1 2 3 1 1 1 0 0 0 0 0 0 0
12 13 14 10 4 0 0 0 1 1 1 0 0 0 0 0 0 0 0 0 0 0 0 0 0 0 0 0 0 0 0 0 0 0 0 0 1 2 2 1 0 0 0 0 0 0 0 0 0
10 13 11 6 1 0 0 0 1 2 1 0 0 0 0 0 0 0 0 0 0 0 0 0 0 0 0 0 0 0 0 0 0 0 0 0 0 1 1 0 0 0 0 0 0 0 0 0 0
9 9 8 3 1 1 1 0 1 1 1 0 0 1 2 1 0 0 0 0 0 0 0 0 0 0 0 0 0 0 0 0 0 0 0 0 0 0 0 0 0 0 0 0 0 0 0 0 0
5 4 3 1 1 2 2 1 0 1 1 1 1 2 3 3 1 0 0 0 0 0 0 0 0 0 0 0 0 0 0 0 0 0 0 0 0 0 0 0 0 0 0 0 0 0 0 0 0
1 1 0 0 1 2 3 1 0 1 2 2 1 1 3 4 2 0 0 0 0 0 0 0 0 0 0 0 0 0 0 0 0 0 0 0 0 0 0 0 0 0 0 0 0 0 0 0 0
0 0 0 0 1 2 3 2 1 1 1 1 0 1 4 6 4 1 1 0 1 1 1 0 0 0 0 0 0 0 0 0 0 0 0 0 0 0 0 0 0 0 0 0 0 0 0 0 0
0 0 0 0 1 2 3 2 1 0 1 1 1 2 6 9 7 4 2 2 3 4 3 2 1 1 0 0 0 0 0 0 0 0 0 0 0 0 0 0 1 1 0 0 0 0 1 0 0
0 0 0 0 1 2 3 2 1 0 1 2 4 7 11 13 10 5 3 5 7 8 7 5 3 2 1 0 0 0 0 0 0 0 0 0 0 0 0 0 1 1 0 0 0 0 0 0 0
0 0 0 0 1 3 3 1 0 0 1 2 6 12 15 14 10 6 4 5 7 9 9 7 5 3 2 1 0 0 0 0 0 0 0 0 0 0 0 0 1 1 0 0 0 0 0 0 0
0 0 0 0 2 3 2 1 0 0 0 1 5 12 15 12 9 6 4 4 6 8 9 9 6 4 3 2 0 0 0 0 0 0 0 0 0 0 0 0 0 0 0 0 0 0 1 1 0
0 0 0 0 1 3 2 1 0 0 0 1 3 9 12 9 7 6 4 4 5 7 10 9 8 6 5 3 1 0 0 0 0 0 0 0 0 0 0 1 1 0 0 0 0 1 2 1 1
0 0 0 0 1 2 2 1 0 0 1 2 3 5 6 6 6 5 6 6 6 8 10 11 10 8 6 4 1 0 0 0 0 0 0 0 0 1 1 2 2 1 0 0 0 1 1 1 0
0 0 0 0 0 1 1 0 0 1 2 3 3 4 4 5 5 5 6 7 8 10 12 13 12 10 7 3 1 0 0 0 0 0 0 0 1 2 3 3 3 1 0 0 0 0 0 0 0
0 0 0 0 0 0 0 0 0 1 2 3 3 4 6 6 4 4 4 6 8 12 15 16 13 11 8 4 1 0 0 0 0 1 1 2 2 4 5 4 3 2 1 0 0 0 0 0 0
0 0 0 0 0 0 0 0 0 1 2 3 4 5 7 6 4 3 3 4 7 13 18 19 16 12 9 4 1 1 0 0 0 1 2 3 4 5 6 5 4 3 1 0 0 0 0 0 0
0 0 0 0 0 0 0 0 0 1 2 3 4 5 5 5 4 4 3 3 6 12 19 21 20 16 12 7 3 2 1 1 1 0 1 3 5 6 6 6 6 4 2 1 0 1 1 1 0
0 0 0 0 0 0 0 0 0 1 1 3 4 4 4 4 4 5 5 3 6 14 21 24 23 21 16 11 6 4 3 2 2 1 0 2 5 6 6 7 9 7 4 2 2 2 2 1 1
0 0 0 0 0 0 0 0 0 1 1 2 3 4 4 4 5 8 7 4 7 17 25 26 25 23 20 15 9 6 5 4 3 1 1 2 4 6 7 9 11 10 8 6 5 4 3 3 2
0 0 0 0 0 0 0 0 0 0 0 1 1 2 3 4 6 8 8 7 10 19 25 25 25 24 22 18 12 9 7 6 4 2 2 3 4 5 6 8 10 11 10 9 7 5 4 3 3
0 0 0 0 0 0 0 0 0 0 0 0 0 1 2 3 5 8 9 9 11 17 21 24 26 25 23 21 18 13 9 6 4 3 4 4 4 4 5 7 9 11 11 10 8 6 5 3 1
0 0 0 0 0 0 0 0 0 0 0 1 1 1 2 3 4 7 9 10 11 13 17 23 29 27 25 25 24 17 9 6 4 4 6 7 6 4 4 6 9 11 11 9 7 7 6 4 2
0 0 0 0 0 0 0 0 0 1 1 3 3 2 2 2 4 6 8 11 12 12 15 23 30 30 27 27 26 19 10 5 5 6 7 8 7 6 5 7 11 13 11 9 8 8 8 7 6
0 0 0 0 0 0 0 0 1 2 3 5 6 6 4 2 4 7 11 15 16 15 16 21 27 29 27 26 26 21 12 7 7 9 10 10 10 9 8 9 11 13 12 9 8 8 8 8 8
0 0 0 0 0 0 0 1 2 3 4 5 7 9 8 7 8 11 15 19 20 18 18 21 26 28 26 25 26 23 18 13 11 14 15 15 14 13 12 11 12 11 10 7 6 6 6 6 7
0 0 0 0 0 0 0 1 2 3 4 5 8 11 13 13 15 18 20 21 22 20 20 24 28 29 28 27 26 25 23 20 19 20 21 19 18 16 16 16 14 11 8 5 3 3 4 5 5
0 0 0 0 0 0 0 1 2 3 4 5 7 11 13 14 18 22 25 25 25 24 24 27 31 31 30 30 29 26 25 24 26 27 27 24 21 20 20 19 16 12 8 5 4 4 6 7 6
0 0 0 0 0 0 0 1 2 1 2 4 6 9 13 16 19 24 29 33 33 32 30 29 32 33 32 32 32 30 29 30 33 34 33 31 27 25 23 20 17 13 9 7 7 9 11 11 11
0 0 0 0 0 0 1 1 1 0 1 3 6 9 14 20 23 28 34 38 38 37 33 31 32 34 34 34 34 33 34 36 39 38 37 36 33 29 26 21 17 14 10 9 10 12 14 15 14

GEFSSGP_con_probscp_192.txt.gz
Probability
11 14 25 40 37 16 2 0 0 0 0 0 0 0 0 0 0 0 0 0 0 0 0 0 0 1 2 3 2 1 0 1 2 3 4 2 1 0 0 0 0 0 0 0 0 0 0 0 0
11 17 31 38 27 9 1 0 0 0 0 0 0 0 0 0 0 0 0 0 0 0 0 0 0 1 2 2 1 0 0 0 1 3 3 2 1 0 0 0 0 0 0 0 0 0 0 0 0
18 28 36 28 13 3 0 0 0 0 0 0 0 0 0 0 0 0 0 0 0 0 0 0 0 0 1 1 1 0 0 0 0 1 1 1 0 0 0 0 0 0 0 0 0 0 0 0 0
32 36 31 15 5 1 0 0 0 0 0 0 1 1 1 0 0 0 0 0 0 0 0 0 0 0 0 0 0 0 0 0 0 0 0 0 0 0 0 0 0 0 0 0 0 0 0 0 0
39 33 20 7 2 2 1 0 0 0 0 1 2 3 2 1 0 0 0 0 0 0 0 0 0 0 0 0 0 0 0 0 0 0 0 0 0 1 0 0 0 0 0 0 0 0 0 0 0
33 23 10 3 2 3 2 1 0 0 0 1 3 6 5 2 1 0 0 0 0 0 1 0 0 0 0 0 0 0 0 0 0 0 0 0 0 0 0 0 0 0 0 0 0 0 0 0 0
21 13 5 1 2 3 2 1 0 0 0 0 2 6 6 4 1 0 0 0 0 0 1 1 0 0 0 0 0 0 0 0 0 0 0 0 0 0 0 0 0 0 0 0 0 0 0 0 0
11 7 2 0 1 3 2 1 0 0 0 0 2 5 6 5 2 0 0 1 1 1 1 1 0 0 0 0 0 0 0 0 0 0 0 0 0 0 0 0 0 0 0 0 0 0 0 0 0
4 3 1 0 1 2 2 1 0 0 0 1 3 6 8 6 3 1 1 3 3 2 1 1 0 0 0 0 0 0 0 0 0 0 0 0 0 0 0 0 0 0 0 0 0 0 0 0 0
1 1 0 0 0 1 1 0 0 0 1 2 6 10 10 7 4 3 3 5 5 4 3 2 0 0 0 0 0 0 0 0 0 0 0 0 1 1 1 1 0 0 0 0 0 0 0 0 0
0 0 0 0 0 0 0 0 1 1 1 3 7 11 10 7 5 4 4 5 6 6 6 5 3 2 1 0 0 0 1 1 1 1 1 1 2 2 3 2 1 0 0 0 0 0 0 0 0
0 0 0 0 0 0 0 0 1 2 2 3 6 9 8 7 6 5 4 5 6 7 8 9 9 8 5 2 0 1 2 2 2 2 3 4 3 3 4 3 2 1 0 0 1 1 1 1 0
0 0 0 0 0 0 0 0 2 3 3 3 4 5 5 5 8 7 5 6 8 9 10 13 14 13 9 4 1 1 2 2 2 3 5 6 4 3 3 4 3 2 1 1 2 3 2 1 1
0 0 0 0 0 0 0 1 2 3 3 4 4 3 3 5 8 10 10 11 14 15 16 18 19 16 11 5 1 0 1 1 1 3 5 5 4 3 3 4 5 3 1 1 2 3 2 1 0
0 0 0 0 0 1 1 1 3 4 4 4 4 4 6 8 10 15 17 18 22 25 25 23 21 19 15 9 3 1 0 0 0 2 3 3 4 5 4 4 5 5 2 1 1 1 1 0 0
0 0 0 0 0 0 1 2 5 5 4 4 4 6 11 14 15 19 22 24 28 33 33 26 20 22 22 16 9 4 2 2 2 2 3 3 5 6 6 6 6 6 4 3 1 0 0 0 0
0 0 0 0 0 0 0 2 5 5 4 3 4 8 14 18 19 22 25 28 33 39 41 33 25 23 25 23 17 10 8 8 7 7 7 6 6 7 9 9 8 7 5 4 2 0 0 1 1
0 0 0 0 0 0 0 1 3 4 4 4 6 11 17 20 21 23 27 32 38 43 46 41 33 28 27 27 24 18 16 16 15 14 14 11 9 9 11 12 11 8 6 4 2 1 1 2 3
0 0 0 0 0 0 0 1 2 3 4 5 9 14 19 22 25 28 30 33 40 47 51 48 42 36 31 28 25 22 20 20 20 21 21 19 16 15 14 14 14 12 9 6 4 3 2 3 4
0 0 0 0 0 0 0 1 2 3 3 5 9 15 20 25 31 36 35 34 41 51 55 53 50 44 37 30 24 20 19 19 20 24 28 29 28 25 20 18 18 16 14 11 8 6 4 3 3
0 0 0 0 0 0 0 1 3 4 4 5 8 13 18 23 33 41 39 34 40 50 55 54 53 51 44 34 25 22 23 23 23 27 31 35 37 34 29 24 22 19 17 15 12 9 7 5 3
0 0 0 0 0 0 0 1 3 5 7 7 7 10 15 21 33 42 40 36 38 45 50 53 54 54 50 40 31 28 28 28 28 30 32 36 39 38 34 31 27 23 19 17 14 10 8 7 4
0 0 0 0 0 0 0 1 3 6 8 9 9 12 17 24 33 40 41 39 38 41 48 53 55 56 54 46 37 33 29 25 25 30 35 39 40 38 36 35 33 29 22 19 18 14 10 9 7
0 0 0 0 0 0 0 1 4 8 8 9 12 15 21 28 35 40 43 44 42 42 47 53 57 58 55 47 41 37 32 25 22 27 34 38 37 37 38 38 37 32 24 22 23 20 15 12 9
0 0 0 0 0 0 0 2 7 9 9 10 13 16 21 28 36 43 47 48 48 46 49 55 61 60 53 47 43 40 35 28 24 25 30 33 31 32 38 41 39 31 23 22 25 23 20 17 15
0 0 1 0 0 0 2 6 10 12 12 12 13 16 20 26 35 44 50 52 52 52 53 59 65 63 55 51 48 42 36 31 29 28 30 30 29 30 38 43 38 30 23 20 20 20 19 21 21
0 0 0 0 0 0 4 11 15 17 17 15 15 17 19 23 31 39 46 51 52 54 58 62 68 67 61 56 52 46 40 37 35 33 31 32 32 34 41 44 38 30 25 20 18 16 17 21 24
0 0 0 0 0 0 5 13 21 23 23 20 17 17 18 20 26 35 42 46 49 52 56 62 68 70 65 58 52 47 44 41 38 36 34 35 37 41 46 46 39 33 29 25 20 18 19 22 23
0 0 0 0 1 0 4 13 21 24 23 21 19 18 19 20 24 33 41 46 49 52 54 57 63 67 65 60 53 47 44 41 39 39 40 41 42 45 47 44 40 37 35 32 27 23 22 23 23
0 0 0 1 2 1 3 11 19 21 20 19 18 20 21 22 25 32 43 50 54 55 54 55 58 62 64 61 55 49 46 42 41 43 46 46 46 47 45 42 41 40 40 37 32 26 23 24 24

GEFSSGP_con_probscp_198.txt.gz
Probability
15 9 2 2 2 1 0 0 0 0 1 1 0 0 0 0 0 0 0 0 0 0 0 0 0 0 0 0 0 0 1 2 3 4 4 3 2 1 0 0 0 0 0 0 0 1 1 1 0
12 8 3 1 1 0 0 0 0 1 2 1 0 0 0 0 0 0 0 0 0 0 0 0 0 0 0 1 1 0 0 1 2 4 4 3 2 1 0 0 0 0 0 0 0 0 0 0 0
10 7 4 1 0 0 0 0 0 1 3 3 1 0 0 0 1 1 1 0 0 0 0 0 0 0 0 1 1 0 0 0 1 2 3 3 2 1 0 0 0 0 0 0 0 0 0 0 0
10 8 5 3 1 0 0 0 0 2 4 5 3 1 0 1 2 3 2 1 0 0 0 0 0 0 0 1 1 0 0 0 0 1 2 2 1 0 0 0 0 0 0 0 0 0 0 0 0
9 8 7 5 2 0 0 0 1 3 5 5 4 2 1 3 6 5 4 2 1 0 0 0 0 0 0 0 0 0 1 0 0 0 1 1 0 0 0 0 0 0 0 0 0 0 0 0 0
10 7 5 4 1 0 0 0 1 3 6 5 4 3 2 5 8 7 4 2 1 0 0 0 0 0 0 0 0 0 0 0 0 0 0 0 0 0 0 0 0 0 0 0 0 0 0 0 0
9 6 3 1 0 0 0 0 1 3 5 6 5 3 2 3 6 7 5 3 1 0 0 0 0 0 0 0 0 0 0 0 0 0 0 0 0 0 0 0 0 0 0 0 0 0 0 0 0
7 4 2 1 0 0 0 1 1 3 5 5 4 2 1 2 4 7 6 3 1 1 0 0 0 0 0 0 0 0 0 0 0 0 0 0 0 0 0 0 0 0 0 0 0 0 0 0 0
4 2 1 0 0 0 1 2 3 4 5 4 3 2 2 3 5 7 8 5 3 2 1 0 0 0 0 0 0 0 0 0 0 0 0 0 0 0 0 1 0 0 0 0 0 0 0 0 0
2 1 0 0 0 1 2 2 3 5 5 4 3 3 4 5 7 9 9 7 5 3 1 1 0 0 0 0 0 0 0 0 0 0 0 0 0 0 1 2 1 0 0 0 0 0 0 0 0
1 0 0 0 0 1 2 1 2 4 4 3 3 3 3 5 8 9 9 7 4 2 2 2 1 0 0 0 0 0 0 0 0 0 0 0 0 0 1 2 2 0 0 0 0 0 0 0 0
0 0 0 0 0 1 2 1 1 2 3 4 3 3 2 4 6 7 8 7 4 2 3 3 3 1 1 0 0 0 0 0 1 0 0 0 0 0 0 1 1 0 0 0 0 0 0 0 0
0 0 0 0 0 2 3 2 2 3 4 5 4 2 1 2 4 6 7 8 7 6 5 5 5 3 2 1 0 0 0 0 0 0 0 0 0 0 0 0 0 0 0 1 0 0 0 0 0
0 0 0 0 0 1 3 3 3 5 6 7 4 2 2 3 5 5 7 10 11 11 10 8 6 4 2 1 0 0 0 0 0 0 0 0 0 0 0 0 0 0 0 0 0 0 0 0 0
0 0 0 0 0 1 2 3 5 6 7 6 4 2 2 4 6 7 9 10 13 15 14 11 6 3 1 0 0 0 0 0 0 0 0 0 1 1 0 0 0 0 0 0 0 0 0 0 0
0 0 0 0 0 0 1 2 5 7 7 5 3 2 1 2 6 9 12 12 13 16 14 10 6 3 1 0 0 0 0 0 0 0 0 0 1 2 1 0 0 0 0 0 0 0 0 0 0
0 0 0 0 0 0 0 1 4 7 6 4 3 3 2 3 7 12 14 13 12 13 12 8 5 4 2 1 0 0 0 0 0 0 0 0 1 1 1 0 0 0 0 0 0 0 0 0 0
0 0 0 0 0 0 0 0 3 6 6 4 3 3 4 7 12 15 15 14 11 11 10 7 5 4 3 2 1 0 0 0 0 0 0 1 1 1 1 1 1 0 0 0 0 0 0 0 0
0 0 0 0 0 0 0 1 3 5 6 5 4 4 6 11 15 18 18 17 15 13 11 10 7 5 4 5 4 2 2 1 0 0 0 1 3 3 2 2 2 1 0 0 0 0 0 0 0
0 0 0 0 0 0 0 1 2 5 7 6 5 4 7 13 19 22 23 22 22 19 16 13 10 7 7 8 8 6 4 3 1 0 0 1 3 5 5 4 3 2 0 0 0 0 0 0 0
0 0 0 0 0 0 0 0 1 4 8 8 6 5 8 15 22 25 25 25 25 24 19 15 11 10 10 10 9 8 7 5 2 0 0 1 3 5 5 4 3 1 0 0 0 0 0 0 0
0 0 0 0 0 0 0 0 1 4 7 8 8 8 12 20 25 26 27 27 26 25 21 16 13 12 12 10 9 8 8 6 3 1 0 0 2 3 4 4 3 2 1 1 1 0 0 0 0
0 0 0 0 0 0 0 0 1 4 7 8 9 12 17 25 29 29 30 29 27 27 26 22 17 14 14 11 8 7 7 6 4 1 0 1 2 2 3 5 5 5 4 3 2 1 0 0 0
0 0 0 0 0 0 0 0 2 5 7 8 11 15 21 28 33 33 34 33 31 33 34 30 23 19 16 14 10 9 9 8 6 4 3 3 4 3 4 6 7 8 9 7 3 1 0 0 1
0 0 0 0 0 0 0 2 4 7 9 10 13 17 21 26 31 33 34 35 36 38 40 37 31 25 21 17 14 13 12 11 9 7 7 7 6 5 5 7 9 11 12 10 5 2 2 2 2
0 0 0 0 0 0 1 5 10 13 14 13 14 16 19 21 25 29 30 32 36 41 43 42 37 31 26 21 17 16 16 14 10 8 9 9 8 8 8 11 13 14 14 12 8 5 4 4 4
0 0 0 0 0 1 3 7 14 17 17 15 14 17 18 18 23 28 28 30 36 42 43 43 41 36 31 26 21 18 17 15 12 9 9 10 10 10 12 15 16 15 14 13 11 9 7 7 6
0 0 0 0 0 1 3 8 12 15 15 15 16 18 19 20 24 29 32 34 39 43 46 45 43 39 35 30 23 18 16 14 12 11 11 12 12 14 17 18 17 15 13 13 13 11 9 8 7
0 0 0 0 0 1 4 7 10 12 14 16 17 18 21 23 26 31 37 41 44 47 48 47 42 38 35 31 25 20 17 13 11 11 13 14 16 19 22 22 18 15 14 15 15 12 9 8 7
0 0 0 0 0 1 4 7 8 11 13 16 18 18 21 25 28 32 39 46 49 49 48 47 40 35 34 31 28 23 19 14 11 10 12 16 19 22 25 25 21 16 16 17 17 14 10 8 7

GEFSSGP_con_probscp_204.txt.gz
Probability
11 5 1 0 0 0 0 0 0 0 0 0 0 0 0 0 0 0 0 0 0 0 0 0 0 0 0 1 2 2 1 0 0 0 0 0 0 0 0 0 0 0 0 0 0 0 0 0 0
6 3 0 1 1 0 0 0 1 1 1 1 0 0 0 0 0 0 0 0 0 0 0 0 0 0 0 0 1 1 0 0 0 0 0 0 0 0 0 0 0 0 0 0 0 0 0 0 0
2 1 1 2 2 1 0 1 2 3 3 2 1 0 1 1 1 0 0 0 0 0 0 0 0 0 0 0 0 1 0 0 0 0 0 0 0 0 0 0 0 0 0 0 0 0 0 0 0
1 0 1 2 3 2 1 1 3 5 4 3 2 1 1 1 1 0 0 0 0 0 0 0 0 0 0 0 0 0 0 0 0 0 0 0 0 0 0 0 0 0 0 0 0 0 0 0 0
1 0 1 2 3 2 1 1 4 5 4 3 3 2 1 1 1 1 1 0 0 0 0 0 0 0 0 0 0 0 0 0 0 0 0 0 0 0 0 0 0 0 0 0 0 0 0 0 0
0 0 1 2 2 1 0 1 3 4 3 3 3 1 1 1 1 1 0 0 0 0 0 0 0 0 0 0 0 0 0 0 0 0 0 0 0 0 0 0 0 0 0 0 0 0 0 0 0
0 0 1 2 2 0 0 1 3 4 3 3 2 1 1 1 1 0 0 0 0 0 0 0 0 0 0 0 0 0 0 0 0 0 0 0 0 0 0 0 0 0 0 0 0 0 0 0 0
0 0 0 1 1 0 0 1 3 4 4 3 1 0 1 1 1 0 0 0 0 0 0 0 0 0 0 0 0 0 0 0 0 0 0 0 0 0 0 0 0 0 0 0 0 0 0 0 0
0 0 0 0 0 0 1 2 3 4 3 2 1 0 2 4 4 2 0 0 0 0 0 0 0 0 0 0 0 0 0 0 0 0 0 0 0 0 0 0 0 0 0 0 0 0 0 0 0
0 0 0 0 0 1 2 3 3 3 3 2 1 1 4 7 7 3 1 0 0 0 0 0 0 0 0 0 0 0 0 0 0 0 0 0 0 0 0 0 0 0 0 0 0 0 0 0 0
0 0 0 0 0 1 2 3 3 3 2 1 1 3 6 7 6 4 2 1 0 0 0 0 1 1 0 0 0 0 0 0 0 0 0 0 0 0 0 0 0 0 0 0 0 0 0 0 0
0 0 0 0 0 1 2 2 2 1 1 0 2 6 7 6 5 3 3 2 1 0 0 1 2 2 1 0 0 0 0 0 0 0 0 0 0 0 0 0 0 0 0 0 0 0 0 0 0
0 0 0 0 0 0 1 1 1 0 0 0 3 7 7 5 3 2 3 3 2 2 1 1 3 3 2 0 0 0 0 0 0 0 0 0 0 0 0 0 0 0 0 0 0 0 0 0 0
0 0 0 0 0 0 0 0 0 0 0 0 2 5 5 3 2 2 3 3 2 2 2 2 3 2 1 0 0 0 0 0 0 0 0 0 0 0 0 0 0 0 0 0 0 0 0 0 0
0 0 0 0 0 0 0 0 0 1 0 0 0 1 1 1 1 2 3 2 1 1 1 1 2 1 0 0 0 0 0 0 0 0 0 0 0 0 0 0 0 0 0 0 0 0 0 0 0
0 0 0 0 0 0 0 0 0 0 0 0 0 0 0 0 0 1 1 1 0 0 0 0 0 0 0 0 0 0 0 0 0 0 0 0 0 0 0 0 0 0 0 0 0 0 0 0 0
0 0 0 0 0 0 0 0 0 0 0 0 0 0 0 0 0 0 0 0 0 0 0 0 0 0 0 0 0 0 0 0 0 0 0 0 0 0 0 0 0 0 0 0 0 0 0 0 0
0 0 0 0 0 0 0 0 0 0 0 0 0 0 0 0 0 0 0 0 0 0 0 0 0 0 0 0 0 0 0 0 0 0 0 0 0 0 0 0 0 0 0 0 0 0 0 0 0
0 0 0 0 0 0 0 0 0 0 0 0 0 0 0 0 0 1 1 1 0 0 0 0 0 0 0 0 0 0 0 0 0 0 0 0 0 0 0 0 0 0 0 0 0 0 0 0 0
0 0 0 0 0 0 0 0 0 0 0 0 1 1 1 1 1 2 2 2 1 0 0 0 0 0 0 0 0 0 0 0 0 0 0 0 0 0 0 0 0 0 0 0 1 1 0 1 1
0 0 0 0 0 0 0 0 0 0 0 0 1 2 2 2 2 2 3 4 3 1 0 0 0 0 0 0 0 0 0 0 0 0 0 0 0 0 0 0 0 0 1 1 2 2 2 2 2
0 0 0 0 0 0 0 0 0 0 0 0 0 1 3 3 2 2 5 7 6 4 2 1 1 1 0 0 0 1 1 1 1 0 0 0 0 0 1 1 0 1 2 2 3 3 3 3 3
0 0 0 0 0 0 0 0 1 1 1 1 1 1 2 3 2 3 7 10 10 9 6 4 3 2 1 0 1 2 3 3 2 1 1 0 0 0 2 2 1 1 3 3 3 3 3 3 3
0 0 0 0 0 0 0 1 2 3 3 3 2 2 3 3 2 4 10 13 15 14 12 9 6 4 2 1 1 2 3 3 3 3 2 1 1 1 2 2 2 2 4 5 4 4 4 3 3
0 0 0 0 0 0 1 2 3 4 5 5 3 3 5 5 4 8 15 18 19 19 16 13 10 6 2 2 2 2 2 3 3 4 3 3 3 3 4 4 4 4 6 6 5 5 5 4 3
0 0 0 0 0 0 2 3 3 4 5 4 3 3 5 7 7 11 18 21 21 21 19 16 14 10 6 4 3 3 2 2 3 4 3 3 4 5 5 6 7 7 6 5 5 6 5 4 4
0 0 0 0 0 0 2 3 4 4 5 5 5 5 5 7 8 11 17 20 20 21 22 21 19 15 12 8 5 3 3 3 3 3 3 4 5 6 6 6 7 8 7 6 7 7 6 5 5
0 0 0 0 0 0 3 5 5 5 7 8 9 8 7 8 9 13 18 22 22 23 25 25 23 19 17 14 10 6 5 4 3 2 2 4 5 6 6 6 7 8 9 9 9 9 8 7 6
0 0 0 0 0 0 3 5 5 6 9 10 11 10 10 11 12 16 23 27 27 26 27 28 26 23 20 18 15 12 8 5 3 2 2 3 4 5 6 7 9 9 9 9 9 9 10 10 9
0 0 0 0 0 0 2 5 5 7 9 11 12 12 12 13 14 18 25 30 30 28 28 29 27 25 22 20 18 15 11 7 4 2 3 3 3 4 7 9 9 9 9 8 8 8 11 12 12

GEFSSGP_con_probscp_210.txt.gz
Probability
8 5 8 17 17 7 1 0 0 0 0 0 0 0 0 0 0 0 0 0 0 0 0 0 0 0 0 0 0 1 1 0 0 0 0 0 0 0 0 0 0 0 0 0 0 0 0 0 0
6 6 11 17 12 4 0 0 0 1 1 1 0 0 0 0 0 0 0 0 0 0 0 0 0 0 0 0 0 1 1 0 0 0 0 0 0 0 0 0 0 0 0 0 0 0 0 0 0
8 10 13 12 6 1 0 0 1 2 2 2 1 0 0 0 0 0 0 0 0 0 0 0 0 0 0 0 0 1 1 0 0 0 0 0 0 0 0 0 0 0 0 0 0 0 0 0 0
13 13 12 7 2 0 0 0 1 2 3 3 2 1 1 1 0 0 0 0 0 0 0 0 0 0 0 0 0 0 0 0 0 0 0 0 0 0 0 0 0 0 0 0 0 0 0 0 0
13 12 8 3 1 0 0 0 0 1 3 3 2 2 2 2 1 0 0 0 0 0 0 0 0 0 0 0 1 0 0 0 0 0 0 0 0 0 0 0 0 0 0 0 0 0 0 0 0
8 6 3 1 0 0 0 0 0 1 2 3 2 2 3 3 2 1 0 0 0 0 0 0 0 0 0 0 0 0 0 0 0 0 0 0 0 0 0 0 0 0 0 0 0 0 0 0 0
3 2 0 0 0 0 0 0 0 1 2 3 2 2 3 4 3 1 0 0 0 0 0 0 0 0 0 0 0 0 0 0 0 0 0 0 0 0 0 0 0 0 0 0 0 0 0 0 0
0 0 0 0 0 0 0 0 0 1 2 3 2 1 3 5 3 1 0 0 0 0 0 0 0 0 0 0 0 0 0 0 0 0 0 0 0 0 0 0 0 0 0 0 0 0 0 0 0
0 0 0 0 0 0 0 0 0 1 2 3 2 1 4 6 5 2 1 0 0 0 0 0 0 0 0 0 0 0 0 0 0 0 0 1 1 0 0 0 0 0 0 0 0 0 0 0 0
0 0 0 0 0 0 0 0 0 1 2 2 3 4 7 8 6 3 1 0 0 0 0 0 0 0 0 0 0 0 0 0 0 0 1 2 1 1 1 1 1 1 0 0 0 0 0 0 0
0 0 0 0 0 0 0 0 0 0 1 2 5 9 11 9 6 3 1 1 1 0 1 1 1 1 0 0 0 0 0 0 0 0 1 1 1 1 1 2 2 1 0 0 0 0 0 0 0
0 0 0 0 0 0 0 0 0 0 0 1 5 11 11 7 4 2 1 2 2 2 2 2 2 2 1 0 0 0 0 0 0 0 0 0 0 0 1 1 1 1 0 0 0 0 0 0 0
0 0 0 0 0 0 0 0 0 0 0 1 4 7 7 4 2 1 1 1 3 4 3 3 3 3 2 1 1 0 0 0 0 0 0 0 0 0 1 1 0 0 0 0 1 0 0 0 0
0 0 0 0 0 0 0 0 0 0 0 1 2 3 2 1 1 0 0 1 2 3 3 3 3 3 3 2 1 0 0 0 0 0 0 0 0 0 2 2 1 0 0 0 0 0 0 0 0
0 0 0 0 0 0 0 0 0 0 1 2 2 1 0 0 0 0 0 0 1 2 2 2 3 3 3 3 2 0 0 0 0 0 0 0 0 1 2 3 3 1 1 1 1 1 1 1 1
0 0 0 0 0 0 0 0 0 0 1 2 1 0 0 0 0 0 0 0 0 1 1 1 1 2 3 3 2 1 1 1 1 1 1 1 1 1 2 3 4 4 4 4 3 2 2 2 2
0 0 0 0 0 0 0 0 1 0 0 1 1 0 0 0 0 0 1 1 1 1 0 0 0 1 2 3 3 3 2 2 2 2 2 2 3 2 2 3 4 5 6 6 4 2 3 3 3
0 0 0 0 0 0 0 0 0 0 0 0 0 0 0 0 1 1 1 2 3 3 2 0 0 1 1 2 3 3 2 2 2 2 3 3 3 3 3 2 3 3 4 4 3 3 4 4 4
0 0 0 0 0 0 0 0 0 0 0 0 0 1 1 1 2 3 2 3 4 6 4 2 1 1 0 0 1 1 1 1 1 1 1 2 2 2 2 2 1 1 1 2 2 4 7 7 5
0 0 0 0 0 0 0 0 0 0 0 0 1 2 3 2 3 4 4 5 6 7 6 4 3 2 1 0 1 1 0 0 0 0 0 1 1 1 1 2 1 1 1 2 4 7 9 8 7
0 0 0 0 0 0 0 0 1 1 1 1 3 4 4 4 5 6 8 9 10 9 9 8 8 7 5 3 3 2 1 0 1 1 1 1 1 0 1 3 3 3 3 5 7 9 10 10 10
0 0 0 0 0 0 0 0 2 3 4 4 4 5 5 5 6 7 10 13 14 13 13 13 11 10 9 8 5 3 1 1 2 2 3 2 1 1 2 4 6 8 8 8 8 8 9 11 12
0 0 0 0 0 0 0 0 2 5 7 6 5 5 5 6 5 7 11 14 16 16 17 16 13 11 10 8 5 4 3 3 3 4 4 4 3 3 3 4 8 9 8 8 8 7 8 11 13
0 0 0 0 0 0 0 0 2 7 9 7 5 5 5 5 6 8 11 15 17 19 19 18 17 16 13 9 6 6 5 5 5 5 6 6 5 4 3 4 6 6 4 4 5 6 8 10 12
0 0 0 0 0 0 0 1 5 9 9 7 5 6 6 6 8 12 15 18 21 22 22 23 25 24 20 16 14 12 10 8 6 6 6 7 6 5 4 4 4 3 2 2 4 6 10 12 12
0 0 0 0 0 0 0 3 8 10 8 6 6 7 9 10 11 15 20 22 24 25 26 30 35 34 29 25 24 22 17 11 7 7 7 8 8 7 6 6 5 4 3 4 6 8 12 15 15
0 0 0 0 0 0 1 4 8 10 11 9 9 11 13 13 12 16 21 25 27 29 31 36 42 43 39 32 29 26 21 15 11 11 11 11 11 12 11 9 7 6 6 7 9 11 13 16 18
0 0 0 0 0 0 0 3 7 12 14 15 15 19 20 17 16 17 20 23 27 31 36 40 45 47 44 38 31 26 23 20 18 17 16 16 15 15 15 12 9 8 8 10 12 13 14 17 18
0 0 0 0 0 0 0 3 8 13 17 20 23 27 27 24 21 22 22 24 27 33 40 45 47 47 45 40 35 30 28 25 22 21 20 19 18 17 17 16 13 11 11 11 13 15 15 17 18
0 0 0 0 0 0 1 5 9 14 19 24 28 31 31 29 26 25 25 27 30 36 44 50 50 47 44 41 38 35 33 28 23 22 21 20 20 18 18 18 17 14 12 13 14 16 17 18 19

GEFSSGP_con_probscp_216.txt.gz
Probability
6 12 23 34 30 14 2 0 0 0 0 0 0 0 0 0 0 0 0 1 2 1 0 1 0 0 0 0 0 1 1 1 0 0 0 0 0 0 0 0 0 0 0 0 0 0 0 0 0
8 18 30 33 24 9 1 0 0 0 0 1 1 0 0 0 0 0 1 2 2 1 1 1 1 0 0 0 0 1 1 1 0 0 0 0 0 0 0 0 0 0 0 0 0 0 0 0 0
15 27 35 27 13 3 0 0 0 0 0 1 2 1 0 0 0 0 1 1 1 0 1 2 2 1 1 0 0 0 0 0 0 0 0 0 0 0 0 0 0 0 0 0 0 0 0 0 0
27 35 34 19 5 0 0 0 0 0 0 1 2 2 1 0 0 0 0 0 0 0 0 1 1 1 1 0 0 0 0 0 0 0 0 0 0 0 0 0 0 0 0 0 0 0 0 0 0
35 35 26 10 2 0 0 0 0 0 0 1 2 3 2 1 0 0 0 0 0 0 0 0 1 1 1 0 0 0 0 0 0 0 0 0 0 0 0 0 0 0 0 0 0 0 0 0 0
34 28 15 4 0 0 0 0 0 0 0 1 2 3 2 1 0 0 0 0 0 0 0 0 1 0 0 0 0 0 0 0 0 0 0 0 0 0 0 0 0 0 0 0 0 0 0 0 0
25 18 7 1 0 0 0 0 0 0 0 1 2 3 3 1 1 0 0 0 0 0 0 0 0 0 0 0 0 0 0 0 0 0 0 0 0 0 0 0 0 0 0 0 0 0 0 0 0
14 8 2 0 0 0 0 0 0 0 0 1 2 3 3 3 2 1 0 0 0 0 0 0 0 0 0 0 0 0 0 0 0 0 0 0 0 0 0 0 1 1 0 0 0 0 0 1 1
5 2 0 0 0 0 0 0 0 0 1 2 3 4 4 3 3 2 2 1 0 0 0 0 0 0 0 0 0 0 0 0 0 0 0 0 0 0 1 1 2 2 1 1 1 1 2 3 3
1 0 0 0 0 0 0 0 0 0 2 4 6 5 4 4 4 4 4 2 1 0 0 0 0 0 0 0 0 0 0 0 0 0 0 0 0 0 1 2 3 3 3 2 3 3 4 3 3
0 0 0 0 0 0 0 0 0 1 3 7 8 6 4 4 4 5 5 5 4 1 0 1 1 0 0 0 0 0 0 1 1 0 0 1 1 0 0 1 3 4 3 2 3 3 2 1 1
0 0 0 0 0 0 0 0 0 1 5 9 10 8 5 3 3 4 6 9 9 4 2 2 3 2 0 0 0 0 0 0 1 1 1 1 1 0 0 1 3 3 2 2 2 2 1 0 0
0 0 0 0 0 0 0 0 1 1 4 9 10 7 4 3 3 3 5 10 13 10 5 4 5 4 2 1 0 0 0 0 0 1 1 1 1 0 0 2 3 2 2 2 2 2 1 0 0
0 0 0 0 0 0 0 0 1 2 4 7 8 5 4 3 4 4 5 9 15 17 12 8 7 5 4 2 2 2 1 0 1 2 3 2 1 1 2 3 5 4 3 4 5 4 3 1 0
0 0 0 0 0 0 0 0 1 3 4 6 6 5 4 4 5 6 8 12 18 21 19 13 8 7 6 4 3 3 2 1 2 4 6 5 4 4 5 6 6 5 5 6 8 7 6 4 2
0 0 0 0 0 0 0 0 2 4 4 5 5 7 7 6 7 9 13 18 23 25 23 16 10 10 9 6 4 3 3 3 3 5 7 7 7 8 9 7 5 5 5 6 8 9 8 7 6
0 0 0 0 0 0 0 1 3 4 4 4 6 9 11 10 9 12 16 22 27 29 26 19 13 12 11 7 5 4 4 4 4 5 7 8 8 9 9 7 6 6 5 6 7 8 10 9 9
0 0 0 0 0 0 0 1 3 4 5 6 9 14 16 15 15 17 18 22 28 32 29 23 18 15 12 8 6 5 5 4 3 4 6 7 6 8 9 9 9 9 7 7 8 9 10 12 13
0 0 0 0 0 0 0 1 2 4 6 10 15 20 21 21 23 24 23 23 28 33 33 29 24 20 16 11 7 6 4 3 2 3 5 7 6 7 9 11 13 13 12 11 10 10 11 13 14
0 0 0 0 0 0 0 1 3 4 7 12 18 22 24 27 31 35 33 29 32 38 39 36 31 27 20 14 9 6 4 4 3 5 8 10 9 7 8 11 13 14 14 14 14 13 13 13 13
0 0 0 0 0 0 0 1 3 5 8 13 17 19 22 28 37 45 43 39 40 43 43 41 40 36 28 20 12 7 7 7 7 7 11 14 12 9 9 11 12 12 13 16 18 16 14 13 12
0 0 0 0 0 0 0 0 2 5 9 13 16 17 19 25 37 45 46 43 42 42 42 45 49 46 39 29 19 13 11 10 9 8 11 16 16 13 12 14 14 13 12 14 16 17 14 12 10
0 0 1 0 0 0 0 0 1 5 9 11 14 16 18 24 33 41 44 43 41 40 41 48 55 54 47 38 29 22 15 12 12 11 13 18 20 17 14 16 19 17 13 12 13 14 13 10 8
0 0 0 0 0 0 0 0 2 6 10 11 13 16 20 25 32 38 44 45 42 41 44 52 58 57 51 43 37 31 23 18 18 18 19 21 23 22 18 19 23 20 15 12 12 12 11 9 7
0 0 0 0 0 0 0 1 5 9 10 11 12 15 20 27 33 41 48 51 48 45 49 57 62 60 55 48 43 38 33 27 25 25 24 22 22 23 23 24 25 22 16 13 13 12 11 10 10
0 0 0 0 0 0 0 3 8 11 10 9 11 14 20 27 35 44 51 54 53 52 55 63 68 66 59 52 47 43 39 32 28 27 25 22 20 22 25 26 26 23 18 14 14 13 12 12 14
0 0 0 0 0 0 0 4 10 13 12 12 14 17 23 29 36 45 50 52 55 59 62 68 73 71 64 56 51 46 41 35 30 28 26 23 22 23 26 28 28 25 21 18 17 16 15 16 18
0 0 0 0 0 0 0 4 11 15 15 16 18 21 27 31 36 42 47 49 53 60 65 70 75 74 67 61 55 51 48 43 36 30 28 26 27 29 31 31 30 28 26 23 21 20 18 18 19
0 1 1 1 0 0 1 4 9 15 17 18 21 25 28 33 36 41 46 49 53 59 65 71 75 74 68 64 61 57 56 52 43 37 35 35 36 36 36 34 31 30 28 26 25 24 22 20 20
0 1 2 1 1 1 1 4 9 13 16 18 23 28 30 32 35 41 47 51 53 58 65 72 75 73 68 67 66 62 59 55 48 43 44 44 43 42 40 36 32 29 27 27 27 26 23 22 22

GEFSSGP_con_probscp_222.txt.gz
Probability
7 4 2 1 2 2 1 0 0 0 1 1 0 0 0 0 0 0 0 0 0 0 0 0 0 1 2 3 3 3 4 6 7 6 6 6 5 4 3 2 1 0 0 0 0 0 0 0 0
4 3 2 2 2 1 0 0 1 2 2 1 0 0 0 0 0 0 0 0 0 0 0 0 0 1 3 4 3 3 3 5 6 6 6 5 5 3 2 1 0 0 0 0 0 0 0 0 0
1 2 4 4 3 1 0 1 3 4 3 2 1 1 0 0 0 0 0 0 0 0 0 0 1 3 5 5 4 4 4 3 4 4 4 4 4 3 1 0 0 0 0 0 0 0 0 0 0
2 4 6 5 3 1 0 2 4 5 4 4 4 2 1 0 0 0 0 0 0 0 0 0 2 3 4 4 3 4 3 2 1 3 3 3 3 2 1 0 0 0 0 0 0 0 0 0 0
8 9 8 5 2 0 1 4 5 5 4 6 6 4 1 0 0 0 0 0 0 0 0 0 1 3 3 2 1 1 1 0 1 2 3 3 3 2 1 0 0 0 0 0 0 0 0 0 0
13 12 8 4 1 0 1 3 5 4 5 7 7 4 1 1 1 0 0 0 0 0 0 0 1 1 1 1 1 1 1 0 1 2 3 3 3 2 1 0 0 0 0 0 0 0 0 0 0
12 9 6 3 1 0 1 2 4 4 5 6 7 4 2 2 1 0 0 0 0 0 0 0 0 0 0 1 2 2 1 0 1 2 3 3 3 1 0 0 0 0 0 0 0 0 0 0 0
7 5 3 2 1 0 0 1 3 4 4 4 5 5 5 4 2 1 0 0 0 0 0 0 0 0 0 1 3 2 1 0 0 1 2 3 2 1 0 0 0 0 0 0 0 0 0 0 0
3 2 1 1 0 0 0 1 2 3 4 3 4 7 10 9 6 4 2 1 0 0 0 0 0 0 0 0 1 1 0 0 0 0 1 2 2 1 0 0 0 0 1 1 1 1 1 0 0
2 1 0 0 0 0 0 0 2 4 6 7 8 11 14 14 10 7 4 2 1 0 0 0 0 0 0 0 0 0 0 0 1 0 0 1 1 0 0 0 0 0 2 2 2 2 2 0 0
1 0 0 0 0 0 0 0 2 4 8 12 15 15 16 14 11 7 5 3 1 1 0 0 0 0 0 0 0 0 0 0 0 0 0 0 0 0 0 0 0 0 1 1 1 1 1 0 0
0 0 0 0 0 0 0 0 2 3 6 12 16 16 14 12 9 7 5 3 3 2 1 1 0 0 0 0 0 0 0 0 0 0 0 0 0 0 0 0 0 0 0 0 0 0 0 0 0
0 0 0 0 0 0 0 1 2 3 6 10 12 13 12 10 8 6 5 5 6 5 4 2 1 1 0 0 0 0 0 0 0 0 0 1 1 0 0 0 0 0 0 0 0 0 0 0 0
0 0 0 0 0 0 0 2 4 7 9 9 9 10 10 9 8 6 7 9 10 8 7 5 3 2 1 1 0 0 0 0 0 0 1 2 1 0 0 0 0 0 0 0 0 0 0 0 0
0 0 0 0 0 0 0 1 5 11 12 9 7 7 8 8 8 9 9 11 13 12 11 9 6 4 3 3 1 0 0 0 0 0 1 1 1 0 0 0 0 0 0 0 0 0 0 0 0
0 0 0 0 0 0 0 1 5 11 12 9 6 5 6 7 9 10 11 12 14 14 12 10 7 5 4 3 1 1 0 0 0 0 0 1 0 0 0 0 0 0 0 0 1 1 1 1 1
0 0 0 0 0 0 0 1 5 9 11 9 7 5 5 8 11 12 13 14 14 11 8 7 6 5 3 2 2 1 1 0 0 0 0 1 0 0 0 0 0 0 0 0 1 2 2 2 2
0 0 0 0 0 0 0 1 5 9 10 10 10 8 8 11 14 15 16 16 14 10 7 6 5 4 2 2 2 1 1 1 0 0 0 0 0 0 0 0 0 0 0 0 1 1 2 2 2
0 0 0 0 0 0 1 2 6 9 10 10 13 15 14 14 16 19 20 19 17 14 11 8 5 3 2 2 1 0 0 0 0 0 0 0 0 0 0 0 0 0 0 0 0 0 1 1 1
0 0 0 0 0 0 1 3 7 10 9 9 14 19 18 16 18 22 23 23 21 20 15 10 6 3 1 1 0 0 0 0 0 0 0 0 0 0 0 0 0 0 0 0 0 0 0 0 0
0 0 0 0 0 0 0 2 6 9 9 9 14 18 18 17 19 23 25 27 27 25 21 15 10 7 3 1 0 0 0 0 0 0 0 0 0 0 0 0 0 0 0 0 0 0 0 0 0
0 0 0 0 0 0 0 2 4 8 9 11 14 16 16 17 21 24 26 30 31 29 26 21 18 15 10 5 2 0 0 0 0 0 0 0 0 0 0 0 0 1 2 1 1 0 0 0 0
0 0 0 0 0 0 0 1 3 7 10 11 13 14 15 18 22 25 28 31 31 29 28 27 25 22 17 12 8 4 1 0 0 0 0 0 0 0 0 1 2 3 4 3 2 1 1 1 1
0 0 0 0 0 0 0 0 2 6 8 8 10 13 16 20 23 24 27 30 31 30 30 31 30 27 23 19 15 10 4 1 0 0 0 0 1 1 1 3 5 7 8 6 4 3 2 3 3
0 0 0 0 0 0 0 0 2 4 5 6 8 11 15 21 24 24 24 27 30 33 34 35 34 31 27 23 19 15 10 5 3 2 2 2 2 2 3 5 8 10 10 7 4 3 4 5 6
0 0 0 0 0 0 0 0 1 3 6 8 8 11 16 22 27 27 24 24 28 34 39 41 38 34 30 26 21 17 14 11 7 6 6 5 4 5 6 8 9 9 9 6 4 4 5 6 8
0 0 0 0 0 0 0 0 2 5 8 9 11 13 17 22 27 28 24 23 27 34 40 44 43 40 36 31 25 20 17 15 13 11 10 9 8 9 10 11 10 8 7 6 5 5 6 7 9
0 0 0 0 0 0 0 0 2 5 8 10 13 16 18 22 25 25 23 24 30 36 42 46 47 45 41 35 29 24 20 18 16 16 15 13 13 14 15 14 11 8 6 5 6 7 8 9 10
0 0 0 0 0 0 0 0 2 6 9 12 15 18 20 24 24 22 23 27 34 41 47 49 49 48 45 40 34 29 25 22 20 20 19 17 16 16 16 14 12 9 7 6 7 8 10 10 10
0 0 0 0 0 0 0 0 2 7 10 13 16 19 22 26 26 24 25 31 37 45 50 51 51 50 48 45 40 34 29 26 24 23 21 18 17 16 15 14 12 9 8 8 8 9 11 10 9

GEFSSGP_con_probscp_228.txt.gz
Probability
3 3 3 3 3 3 2 2 3 3 3 3 3 3 3 1 0 0 1 2 3 3 3 3 3 3 4 5 5 4 3 3 3 3 3 3 3 3 3 3 3 3 3 2 2 2 2 2 3
3 3 3 3 3 3 2 2 3 3 4 4 4 3 3 2 1 1 2 3 3 3 3 3 3 3 3 4 5 4 3 3 3 3 3 3 3 3 2 2 2 2 2 1 1 1 1 1 2
3 3 3 3 3 3 3 3 3 4 4 5 5 4 3 2 1 2 3 3 3 3 3 3 4 3 3 4 6 5 4 3 3 3 3 3 3 1 1 1 1 1 1 0 0 0 0 0 1
2 3 3 3 4 4 3 3 3 3 4 4 4 5 4 3 3 3 3 3 3 3 3 4 5 4 4 5 6 6 4 3 3 3 3 3 2 1 0 0 0 0 0 0 0 0 0 0 0
1 1 3 4 5 5 4 3 3 3 3 3 4 5 4 4 3 3 3 3 3 3 3 4 5 6 6 6 7 6 4 3 3 3 2 2 1 0 0 0 0 0 0 0 1 1 1 0 0
0 1 3 4 4 4 4 3 3 3 3 3 4 4 4 4 4 3 3 3 3 3 3 4 5 6 6 6 6 5 4 3 3 3 2 1 0 0 0 0 0 0 0 0 1 2 1 0 0
1 1 2 2 2 2 4 4 3 3 3 3 3 4 4 4 3 3 3 3 3 3 3 3 4 4 4 4 4 4 3 3 3 3 3 2 1 0 0 0 0 0 0 0 1 1 1 0 0
0 1 1 1 0 2 5 5 4 3 4 3 3 3 3 3 4 4 4 3 3 3 3 3 3 3 3 3 3 3 3 3 3 3 3 3 2 1 1 0 0 0 0 0 0 0 0 0 0
1 1 0 0 0 2 5 6 4 4 4 4 4 4 4 4 5 6 5 4 3 2 2 2 2 2 3 3 3 3 3 3 3 3 3 3 2 2 1 0 0 0 0 0 0 0 0 0 0
3 2 1 0 0 2 5 6 5 5 5 4 5 6 7 6 6 6 5 4 2 1 1 1 1 1 1 2 2 2 2 3 3 3 3 3 1 1 1 0 0 0 0 0 0 0 0 0 0
3 3 1 0 0 2 5 6 5 5 5 5 8 12 12 8 5 4 4 4 3 2 1 0 0 0 0 1 1 0 1 2 2 2 2 2 1 0 0 0 0 0 0 0 0 1 0 0 0
1 1 0 0 0 1 4 5 5 5 5 7 12 16 14 8 4 3 3 3 3 3 2 1 0 0 0 0 0 0 0 1 1 1 1 1 0 0 0 0 0 0 0 0 0 0 0 0 0
0 0 0 0 0 1 2 4 4 4 6 10 14 16 13 8 4 3 3 3 3 3 2 1 0 0 0 0 0 0 0 0 0 0 0 0 0 0 0 0 0 0 0 0 0 0 0 0 0
0 0 0 0 0 0 1 2 3 5 8 12 14 14 11 7 4 3 3 2 2 2 1 0 0 0 0 0 0 0 0 0 0 0 0 0 0 0 0 0 0 0 0 0 0 0 0 0 0
0 0 0 0 0 0 0 2 3 6 9 11 12 12 10 7 4 2 2 1 1 1 0 0 0 0 0 0 0 0 0 0 0 0 0 0 0 0 0 0 0 0 0 0 0 0 0 0 0
0 0 0 0 0 0 0 1 2 4 8 9 10 10 9 6 3 2 1 0 0 0 0 0 0 0 0 0 0 0 0 0 0 0 0 0 0 0 0 0 0 0 0 0 0 0 0 0 0
0 0 0 0 0 0 0 0 1 2 5 7 8 8 8 5 4 3 2 1 1 0 0 0 0 0 0 1 1 0 0 0 0 0 0 0 0 0 0 0 0 0 0 0 0 0 0 0 0
0 0 0 0 0 0 0 0 0 1 3 5 5 6 6 5 4 4 3 3 2 1 0 0 0 0 1 1 0 0 0 0 0 0 0 0 0 0 0 0 0 0 0 0 0 0 1 1 1
0 0 0 0 1 1 1 1 0 1 2 4 4 5 6 6 4 4 3 4 4 3 2 2 1 1 1 0 0 0 0 0 0 0 0 0 0 0 0 0 0 1 1 1 1 1 2 2 2
0 0 0 0 0 1 1 1 1 1 3 3 3 4 6 6 4 4 4 5 6 7 6 4 3 3 1 1 0 0 0 0 0 0 0 0 0 0 0 0 1 2 2 2 2 3 3 3 3
0 0 0 0 0 0 1 1 1 2 2 2 2 3 5 5 3 4 6 7 8 9 8 6 5 5 3 2 1 0 0 0 0 0 0 0 0 0 0 1 2 3 3 3 3 3 3 3 3
0 0 0 0 0 0 0 0 1 2 1 1 0 2 5 5 3 3 6 8 9 9 8 6 5 5 4 4 3 1 1 1 1 1 1 1 1 1 1 2 3 4 4 4 4 4 3 3 3
0 0 0 0 0 0 0 0 1 1 1 0 0 1 4 5 4 3 5 7 9 9 7 6 5 5 5 5 5 4 3 3 3 3 3 2 2 2 3 3 4 5 6 6 6 5 4 3 3
0 0 0 0 0 0 0 0 0 0 0 1 1 1 2 5 6 5 5 7 8 9 9 8 7 6 7 7 7 7 6 6 6 5 4 4 4 4 3 4 5 6 6 6 6 5 4 3 3
0 0 0 0 0 0 0 0 0 1 2 3 2 1 1 4 7 7 7 8 9 10 11 10 8 8 9 10 10 10 10 10 9 7 6 6 6 5 5 6 7 7 6 6 5 4 3 3 3
0 0 0 0 0 0 0 1 1 2 4 5 4 2 1 3 6 8 10 13 15 15 15 14 12 10 12 13 13 13 14 14 13 11 10 8 7 7 7 8 9 8 7 6 5 3 3 3 3
0 0 0 0 0 0 1 2 3 4 4 5 4 3 3 4 6 10 15 19 21 21 20 19 18 17 17 18 17 16 17 18 16 15 13 11 10 9 8 10 11 10 9 8 5 4 3 3 3
0 0 0 0 0 0 1 2 3 4 4 4 4 4 4 5 8 12 18 22 23 22 23 24 26 27 26 25 22 19 19 20 20 18 17 15 12 11 11 11 11 12 11 10 8 7 7 6 5
0 0 0 0 0 0 1 1 2 3 5 6 6 6 6 6 9 15 21 24 24 24 25 28 31 33 33 30 26 22 21 22 22 21 19 17 14 12 12 12 13 13 13 13 12 12 12 11 9
0 0 0 0 0 0 0 1 1 3 6 8 8 7 6 7 10 17 23 25 25 25 27 29 32 34 35 32 28 25 23 22 22 22 20 19 16 13 12 13 13 14 15 16 15 14 14 15 14

GEFSSGP_con_probscp_234.txt.gz
Probability
3 1 4 9 11 5 1 0 0 0 0 0 0 0 0 0 0 0 0 0 0 0 0 1 2 3 3 4 4 3 1 0 0 0 1 2 4 3 1 0 0 0 0 0 0 0 0 0 0
1 2 8 12 9 3 0 0 0 0 0 0 0 0 0 0 0 0 0 0 0 0 0 1 2 3 3 4 4 4 3 1 0 0 1 1 1 1 0 0 0 0 0 0 0 0 0 0 0
2 6 13 12 5 0 0 0 0 0 0 0 0 0 0 0 0 0 0 0 0 0 0 1 2 3 3 3 4 5 4 2 0 0 0 0 0 0 0 0 0 0 0 0 0 0 0 0 0
6 11 12 7 2 0 0 0 0 0 0 0 0 0 0 0 0 0 0 0 0 0 0 1 2 3 2 2 3 4 3 2 0 0 0 0 0 0 0 0 0 0 0 0 0 0 0 0 0
11 11 7 2 0 0 1 1 1 0 0 0 0 0 0 0 0 0 0 0 0 0 0 1 2 1 1 1 2 3 3 1 0 0 0 0 0 0 0 0 0 0 0 0 0 0 0 0 0
9 7 3 0 0 0 1 1 1 0 0 0 0 0 0 0 0 0 0 0 0 0 0 1 1 1 1 2 3 3 3 1 0 0 0 0 0 0 0 0 0 0 0 0 0 0 0 0 0
3 2 1 0 0 0 0 0 0 0 0 0 0 0 0 0 0 0 0 0 0 0 0 1 1 1 1 2 3 3 2 1 0 0 0 0 0 0 0 0 0 0 0 0 0 0 0 0 0
0 0 0 0 0 0 0 0 0 0 0 0 0 0 0 1 0 0 0 0 0 0 0 1 2 2 2 2 2 2 1 1 0 0 0 0 0 0 0 0 0 0 0 0 0 0 0 0 0
1 0 0 0 0 0 0 0 0 0 0 0 0 0 1 2 2 1 0 0 0 0 0 1 2 2 2 1 0 0 0 0 0 0 0 0 0 0 0 0 0 0 0 0 0 0 0 0 0
1 0 0 0 0 0 0 0 0 0 1 1 1 1 1 3 3 2 1 0 0 0 0 0 1 1 1 0 0 0 0 0 0 0 0 0 0 0 0 0 0 0 0 0 0 0 0 0 0
1 0 0 0 0 0 0 0 0 0 1 2 3 3 3 2 2 2 1 0 0 0 0 0 0 0 0 0 0 0 0 1 0 0 0 0 0 0 0 0 0 0 0 0 0 0 0 0 0
0 0 0 0 0 0 0 0 0 0 1 3 6 7 5 3 1 1 0 0 0 0 0 0 0 0 0 0 0 0 1 2 1 0 0 0 0 0 0 0 0 0 0 0 0 0 0 0 0
0 0 0 0 0 0 0 0 1 1 2 4 8 9 7 4 1 0 0 0 0 0 0 0 0 0 0 0 1 0 0 1 1 1 1 0 1 1 0 0 0 0 0 0 1 1 1 0 1
0 0 0 0 0 0 0 0 1 1 3 5 7 8 7 4 2 0 0 0 0 0 0 0 0 0 0 0 0 0 0 0 1 1 1 1 2 2 1 1 0 0 0 1 2 2 2 2 2
0 0 0 0 0 0 0 0 0 1 3 5 6 6 6 4 2 1 1 0 0 0 0 0 0 0 0 0 0 0 0 0 0 1 2 2 2 2 2 2 1 1 1 1 2 3 3 3 3
0 0 0 0 0 0 0 0 0 1 2 3 4 4 4 4 3 2 1 0 0 0 0 1 1 1 0 0 1 1 1 0 0 1 1 1 1 1 1 2 3 3 3 2 2 2 2 2 2
0 0 0 0 0 0 0 0 0 0 1 1 1 2 3 5 5 4 2 1 1 1 2 3 3 2 0 0 1 1 1 0 0 0 0 0 0 0 0 1 3 4 3 2 1 1 1 1 1
0 0 0 0 0 0 0 0 1 1 1 0 0 1 3 5 6 5 4 3 2 3 4 6 6 4 2 1 1 1 0 0 0 0 0 0 0 0 0 0 1 3 3 2 1 1 1 1 1
0 0 0 1 1 0 0 0 1 2 2 1 1 1 3 5 6 6 6 4 4 5 6 8 8 8 5 3 2 1 0 0 0 0 0 0 0 0 0 0 1 2 3 2 1 1 1 1 2
0 0 0 1 2 1 0 0 2 3 3 3 2 3 4 5 6 7 8 8 7 7 7 7 9 10 8 4 2 1 0 0 0 0 0 1 1 1 1 0 1 2 3 2 2 2 3 4 5
0 0 0 1 2 2 1 1 1 2 3 3 3 3 4 5 6 9 11 13 12 10 8 7 8 10 9 5 2 1 0 0 0 0 1 2 2 2 2 1 2 3 3 3 4 6 7 7 7
0 0 0 0 1 2 2 1 1 1 3 3 2 4 5 6 7 11 14 17 17 15 11 8 8 10 9 7 4 2 1 0 1 1 2 3 3 3 3 3 3 4 4 5 6 8 9 8 7
0 0 0 0 1 1 1 0 0 1 2 2 3 4 6 6 8 11 14 18 19 17 14 11 12 12 11 9 7 5 4 3 4 4 4 4 4 4 4 5 5 6 6 6 6 7 8 7 6
0 0 0 0 0 0 0 0 0 0 1 1 3 5 6 6 7 10 13 18 21 19 17 16 17 17 15 13 10 8 9 10 11 10 8 6 6 6 7 8 9 10 10 9 7 6 6 6 7
0 0 0 0 0 0 0 0 0 0 1 1 3 5 6 5 7 9 13 19 24 24 21 21 22 22 21 19 16 15 15 17 17 14 11 8 7 7 9 11 14 15 15 12 8 6 6 6 8
0 0 0 0 0 0 0 0 0 0 1 2 4 4 4 4 6 9 13 19 24 25 24 25 25 26 26 25 25 23 21 20 19 17 13 10 8 8 9 12 15 16 16 13 10 9 8 7 8
0 0 0 0 0 0 0 0 0 0 1 2 3 4 4 4 6 8 12 16 20 23 25 27 30 31 31 31 30 28 25 21 20 19 15 11 11 11 12 14 15 15 16 15 13 12 12 10 8
0 0 0 0 0 0 0 0 0 0 0 1 4 7 8 7 7 8 10 13 17 21 25 29 33 37 37 35 32 29 27 24 21 20 19 16 15 16 17 19 19 17 17 18 18 16 15 14 12
0 0 0 0 0 0 0 1 1 1 1 3 6 10 11 11 10 10 11 13 15 20 26 29 33 39 41 40 36 34 33 30 27 26 26 24 23 23 23 23 23 21 20 21 22 20 17 17 16
0 0 0 0 0 0 0 1 2 2 3 5 8 10 11 11 12 12 13 13 15 20 25 28 33 39 43 43 42 41 38 34 32 33 33 29 28 28 27 24 23 23 22 23 24 23 20 18 18